<?xml version="1.0" encoding="UTF-8" standalone="no" ?>
<gpx xmlns="http://www.topografix.com/GPX/1/1" xmlns:xsi="http://www.w3.org/2001/XMLSchema-instance" xsi:schemaLocation="http://www.topografix.com/GPX/1/1 http://www.topografix.com/GPX/1/1/gpx.xsd" version="1.1" creator="VisuGPX - https://www.visugpx.com">
  <metadata>
    <name>83-D-Seillons source d'Argens</name>
    <desc><![CDATA[83-D-Seillons source d'Argens : la source - le rocher des Abeilles]]></desc>
  </metadata>
  <trk>
    <name><![CDATA[2016-03-20-D-seillons Sd'A]]></name>
    <trkseg>
      <trkpt lat="43.50321" lon="5.90819">
        <ele>268.5</ele>
        <time>2016-03-20T08:04:45Z</time>
      </trkpt>
      <trkpt lat="43.50321" lon="5.90819">
        <ele>268.7</ele>
        <time>2016-03-20T08:04:46Z</time>
      </trkpt>
      <trkpt lat="43.50336" lon="5.90815">
        <ele>267.5</ele>
        <time>2016-03-20T08:05:32Z</time>
      </trkpt>
      <trkpt lat="43.50344" lon="5.90811">
        <ele>267.9</ele>
        <time>2016-03-20T08:05:39Z</time>
      </trkpt>
      <trkpt lat="43.5035" lon="5.90802">
        <ele>267.2</ele>
        <time>2016-03-20T08:05:45Z</time>
      </trkpt>
      <trkpt lat="43.50356" lon="5.90793">
        <ele>267.4</ele>
        <time>2016-03-20T08:05:51Z</time>
      </trkpt>
      <trkpt lat="43.50356" lon="5.90792">
        <ele>267.6</ele>
        <time>2016-03-20T08:05:52Z</time>
      </trkpt>
      <trkpt lat="43.50366" lon="5.90775">
        <ele>268.1</ele>
        <time>2016-03-20T08:06:04Z</time>
      </trkpt>
      <trkpt lat="43.50372" lon="5.90766">
        <ele>268.3</ele>
        <time>2016-03-20T08:06:11Z</time>
      </trkpt>
      <trkpt lat="43.50377" lon="5.90757">
        <ele>268.5</ele>
        <time>2016-03-20T08:06:18Z</time>
      </trkpt>
      <trkpt lat="43.50383" lon="5.90748">
        <ele>268.9</ele>
        <time>2016-03-20T08:06:27Z</time>
      </trkpt>
      <trkpt lat="43.5039" lon="5.90741">
        <ele>268.6</ele>
        <time>2016-03-20T08:06:36Z</time>
      </trkpt>
      <trkpt lat="43.50396" lon="5.90733">
        <ele>269</ele>
        <time>2016-03-20T08:06:45Z</time>
      </trkpt>
      <trkpt lat="43.50404" lon="5.90727">
        <ele>268.1</ele>
        <time>2016-03-20T08:06:53Z</time>
      </trkpt>
      <trkpt lat="43.50405" lon="5.90727">
        <ele>268</ele>
        <time>2016-03-20T08:06:54Z</time>
      </trkpt>
      <trkpt lat="43.50398" lon="5.90715">
        <ele>269</ele>
        <time>2016-03-20T08:10:59Z</time>
      </trkpt>
      <trkpt lat="43.50398" lon="5.90715">
        <ele>269.1</ele>
        <time>2016-03-20T08:11:00Z</time>
      </trkpt>
      <trkpt lat="43.50385" lon="5.90721">
        <ele>269.5</ele>
        <time>2016-03-20T08:11:29Z</time>
      </trkpt>
      <trkpt lat="43.50388" lon="5.90732">
        <ele>269</ele>
        <time>2016-03-20T08:11:39Z</time>
      </trkpt>
      <trkpt lat="43.50383" lon="5.90742">
        <ele>269.7</ele>
        <time>2016-03-20T08:12:00Z</time>
      </trkpt>
      <trkpt lat="43.50382" lon="5.90742">
        <ele>269.9</ele>
        <time>2016-03-20T08:12:01Z</time>
      </trkpt>
      <trkpt lat="43.50368" lon="5.9075">
        <ele>268.9</ele>
        <time>2016-03-20T08:12:16Z</time>
      </trkpt>
      <trkpt lat="43.50363" lon="5.90759">
        <ele>268.6</ele>
        <time>2016-03-20T08:12:25Z</time>
      </trkpt>
      <trkpt lat="43.50355" lon="5.90765">
        <ele>267.9</ele>
        <time>2016-03-20T08:12:35Z</time>
      </trkpt>
      <trkpt lat="43.50353" lon="5.90775">
        <ele>267.8</ele>
        <time>2016-03-20T08:12:42Z</time>
      </trkpt>
      <trkpt lat="43.50349" lon="5.90784">
        <ele>267.6</ele>
        <time>2016-03-20T08:12:48Z</time>
      </trkpt>
      <trkpt lat="43.50343" lon="5.90793">
        <ele>267.5</ele>
        <time>2016-03-20T08:12:56Z</time>
      </trkpt>
      <trkpt lat="43.50336" lon="5.90798">
        <ele>267.1</ele>
        <time>2016-03-20T08:13:03Z</time>
      </trkpt>
      <trkpt lat="43.50335" lon="5.90799">
        <ele>267.3</ele>
        <time>2016-03-20T08:13:04Z</time>
      </trkpt>
      <trkpt lat="43.5032" lon="5.90809">
        <ele>266.8</ele>
        <time>2016-03-20T08:13:21Z</time>
      </trkpt>
      <trkpt lat="43.50311" lon="5.90807">
        <ele>266</ele>
        <time>2016-03-20T08:13:32Z</time>
      </trkpt>
      <trkpt lat="43.50303" lon="5.90805">
        <ele>266.2</ele>
        <time>2016-03-20T08:13:39Z</time>
      </trkpt>
      <trkpt lat="43.50295" lon="5.90802">
        <ele>266.4</ele>
        <time>2016-03-20T08:13:47Z</time>
      </trkpt>
      <trkpt lat="43.50288" lon="5.90798">
        <ele>266.1</ele>
        <time>2016-03-20T08:13:55Z</time>
      </trkpt>
      <trkpt lat="43.5028" lon="5.90795">
        <ele>266.5</ele>
        <time>2016-03-20T08:14:01Z</time>
      </trkpt>
      <trkpt lat="43.50273" lon="5.90796">
        <ele>266.8</ele>
        <time>2016-03-20T08:14:06Z</time>
      </trkpt>
      <trkpt lat="43.50271" lon="5.90796">
        <ele>266.5</ele>
        <time>2016-03-20T08:14:07Z</time>
      </trkpt>
      <trkpt lat="43.50258" lon="5.90788">
        <ele>267.3</ele>
        <time>2016-03-20T08:14:17Z</time>
      </trkpt>
      <trkpt lat="43.50253" lon="5.90779">
        <ele>267.2</ele>
        <time>2016-03-20T08:14:24Z</time>
      </trkpt>
      <trkpt lat="43.50247" lon="5.9077">
        <ele>268</ele>
        <time>2016-03-20T08:14:32Z</time>
      </trkpt>
      <trkpt lat="43.50242" lon="5.90762">
        <ele>268.7</ele>
        <time>2016-03-20T08:14:51Z</time>
      </trkpt>
      <trkpt lat="43.50235" lon="5.90756">
        <ele>267.7</ele>
        <time>2016-03-20T08:14:58Z</time>
      </trkpt>
      <trkpt lat="43.50228" lon="5.90751">
        <ele>267.9</ele>
        <time>2016-03-20T08:15:05Z</time>
      </trkpt>
      <trkpt lat="43.50222" lon="5.90743">
        <ele>268.4</ele>
        <time>2016-03-20T08:15:12Z</time>
      </trkpt>
      <trkpt lat="43.50221" lon="5.90741">
        <ele>268.2</ele>
        <time>2016-03-20T08:15:13Z</time>
      </trkpt>
      <trkpt lat="43.50217" lon="5.9072">
        <ele>269.7</ele>
        <time>2016-03-20T08:15:31Z</time>
      </trkpt>
      <trkpt lat="43.50215" lon="5.90708">
        <ele>270.6</ele>
        <time>2016-03-20T08:15:44Z</time>
      </trkpt>
      <trkpt lat="43.50213" lon="5.90697">
        <ele>271.1</ele>
        <time>2016-03-20T08:15:54Z</time>
      </trkpt>
      <trkpt lat="43.50216" lon="5.90685">
        <ele>272.2</ele>
        <time>2016-03-20T08:16:03Z</time>
      </trkpt>
      <trkpt lat="43.50215" lon="5.90674">
        <ele>273.7</ele>
        <time>2016-03-20T08:16:15Z</time>
      </trkpt>
      <trkpt lat="43.50215" lon="5.90673">
        <ele>273.9</ele>
        <time>2016-03-20T08:16:16Z</time>
      </trkpt>
      <trkpt lat="43.50222" lon="5.90652">
        <ele>275.8</ele>
        <time>2016-03-20T08:16:34Z</time>
      </trkpt>
      <trkpt lat="43.50227" lon="5.90642">
        <ele>277.5</ele>
        <time>2016-03-20T08:16:48Z</time>
      </trkpt>
      <trkpt lat="43.50235" lon="5.90636">
        <ele>278.7</ele>
        <time>2016-03-20T08:16:56Z</time>
      </trkpt>
      <trkpt lat="43.50243" lon="5.90631">
        <ele>280.5</ele>
        <time>2016-03-20T08:17:07Z</time>
      </trkpt>
      <trkpt lat="43.50251" lon="5.90629">
        <ele>282.2</ele>
        <time>2016-03-20T08:17:16Z</time>
      </trkpt>
      <trkpt lat="43.50252" lon="5.90629">
        <ele>282.2</ele>
        <time>2016-03-20T08:17:17Z</time>
      </trkpt>
      <trkpt lat="43.50263" lon="5.90613">
        <ele>283</ele>
        <time>2016-03-20T08:17:40Z</time>
      </trkpt>
      <trkpt lat="43.50261" lon="5.90602">
        <ele>282.3</ele>
        <time>2016-03-20T08:17:50Z</time>
      </trkpt>
      <trkpt lat="43.50257" lon="5.90591">
        <ele>281.5</ele>
        <time>2016-03-20T08:17:59Z</time>
      </trkpt>
      <trkpt lat="43.50256" lon="5.90579">
        <ele>280.9</ele>
        <time>2016-03-20T08:18:07Z</time>
      </trkpt>
      <trkpt lat="43.50256" lon="5.90567">
        <ele>280.6</ele>
        <time>2016-03-20T08:18:15Z</time>
      </trkpt>
      <trkpt lat="43.50256" lon="5.90556">
        <ele>280.3</ele>
        <time>2016-03-20T08:18:23Z</time>
      </trkpt>
      <trkpt lat="43.50255" lon="5.90554">
        <ele>280.2</ele>
        <time>2016-03-20T08:18:24Z</time>
      </trkpt>
      <trkpt lat="43.50256" lon="5.90532">
        <ele>280.4</ele>
        <time>2016-03-20T08:18:39Z</time>
      </trkpt>
      <trkpt lat="43.50254" lon="5.90521">
        <ele>279.6</ele>
        <time>2016-03-20T08:18:47Z</time>
      </trkpt>
      <trkpt lat="43.50251" lon="5.90509">
        <ele>279.4</ele>
        <time>2016-03-20T08:18:55Z</time>
      </trkpt>
      <trkpt lat="43.50247" lon="5.90499">
        <ele>279.1</ele>
        <time>2016-03-20T08:19:03Z</time>
      </trkpt>
      <trkpt lat="43.50244" lon="5.9049">
        <ele>278.7</ele>
        <time>2016-03-20T08:19:10Z</time>
      </trkpt>
      <trkpt lat="43.50241" lon="5.90479">
        <ele>278.7</ele>
        <time>2016-03-20T08:19:17Z</time>
      </trkpt>
      <trkpt lat="43.50238" lon="5.90467">
        <ele>278</ele>
        <time>2016-03-20T08:19:25Z</time>
      </trkpt>
      <trkpt lat="43.50238" lon="5.90466">
        <ele>278</ele>
        <time>2016-03-20T08:19:26Z</time>
      </trkpt>
      <trkpt lat="43.5024" lon="5.90445">
        <ele>278.4</ele>
        <time>2016-03-20T08:19:40Z</time>
      </trkpt>
      <trkpt lat="43.50237" lon="5.90433">
        <ele>278.3</ele>
        <time>2016-03-20T08:21:32Z</time>
      </trkpt>
      <trkpt lat="43.50237" lon="5.90433">
        <ele>278.4</ele>
        <time>2016-03-20T08:21:33Z</time>
      </trkpt>
      <trkpt lat="43.50251" lon="5.90421">
        <ele>279</ele>
        <time>2016-03-20T08:22:06Z</time>
      </trkpt>
      <trkpt lat="43.50257" lon="5.90413">
        <ele>280</ele>
        <time>2016-03-20T08:22:15Z</time>
      </trkpt>
      <trkpt lat="43.50262" lon="5.90406">
        <ele>279.9</ele>
        <time>2016-03-20T08:22:22Z</time>
      </trkpt>
      <trkpt lat="43.50263" lon="5.90394">
        <ele>280.8</ele>
        <time>2016-03-20T08:22:32Z</time>
      </trkpt>
      <trkpt lat="43.50266" lon="5.90383">
        <ele>280.6</ele>
        <time>2016-03-20T08:22:38Z</time>
      </trkpt>
      <trkpt lat="43.50266" lon="5.90381">
        <ele>280.5</ele>
        <time>2016-03-20T08:22:39Z</time>
      </trkpt>
      <trkpt lat="43.50267" lon="5.90361">
        <ele>280.7</ele>
        <time>2016-03-20T08:22:52Z</time>
      </trkpt>
      <trkpt lat="43.50266" lon="5.90351">
        <ele>280.4</ele>
        <time>2016-03-20T08:22:58Z</time>
      </trkpt>
      <trkpt lat="43.50267" lon="5.9034">
        <ele>280.9</ele>
        <time>2016-03-20T08:23:04Z</time>
      </trkpt>
      <trkpt lat="43.50268" lon="5.90328">
        <ele>280.7</ele>
        <time>2016-03-20T08:23:11Z</time>
      </trkpt>
      <trkpt lat="43.50268" lon="5.90317">
        <ele>280.6</ele>
        <time>2016-03-20T08:23:18Z</time>
      </trkpt>
      <trkpt lat="43.50264" lon="5.90307">
        <ele>280.5</ele>
        <time>2016-03-20T08:23:25Z</time>
      </trkpt>
      <trkpt lat="43.50259" lon="5.90297">
        <ele>279.8</ele>
        <time>2016-03-20T08:23:33Z</time>
      </trkpt>
      <trkpt lat="43.50254" lon="5.90287">
        <ele>279.2</ele>
        <time>2016-03-20T08:23:41Z</time>
      </trkpt>
      <trkpt lat="43.50254" lon="5.90286">
        <ele>278.8</ele>
        <time>2016-03-20T08:23:42Z</time>
      </trkpt>
      <trkpt lat="43.50251" lon="5.90264">
        <ele>278.3</ele>
        <time>2016-03-20T08:23:56Z</time>
      </trkpt>
      <trkpt lat="43.5025" lon="5.90252">
        <ele>278</ele>
        <time>2016-03-20T08:24:05Z</time>
      </trkpt>
      <trkpt lat="43.50252" lon="5.9024">
        <ele>277.9</ele>
        <time>2016-03-20T08:24:14Z</time>
      </trkpt>
      <trkpt lat="43.50254" lon="5.90229">
        <ele>278.8</ele>
        <time>2016-03-20T08:24:20Z</time>
      </trkpt>
      <trkpt lat="43.50255" lon="5.90218">
        <ele>279.1</ele>
        <time>2016-03-20T08:24:28Z</time>
      </trkpt>
      <trkpt lat="43.50257" lon="5.90207">
        <ele>279.7</ele>
        <time>2016-03-20T08:24:34Z</time>
      </trkpt>
      <trkpt lat="43.50259" lon="5.90196">
        <ele>280.1</ele>
        <time>2016-03-20T08:24:41Z</time>
      </trkpt>
      <trkpt lat="43.50262" lon="5.90186">
        <ele>280.4</ele>
        <time>2016-03-20T08:24:48Z</time>
      </trkpt>
      <trkpt lat="43.50262" lon="5.90184">
        <ele>280.5</ele>
        <time>2016-03-20T08:24:49Z</time>
      </trkpt>
      <trkpt lat="43.5027" lon="5.90165">
        <ele>281.6</ele>
        <time>2016-03-20T08:25:07Z</time>
      </trkpt>
      <trkpt lat="43.50274" lon="5.90155">
        <ele>282.1</ele>
        <time>2016-03-20T08:25:14Z</time>
      </trkpt>
      <trkpt lat="43.50278" lon="5.90144">
        <ele>283.1</ele>
        <time>2016-03-20T08:25:22Z</time>
      </trkpt>
      <trkpt lat="43.50283" lon="5.90134">
        <ele>283.4</ele>
        <time>2016-03-20T08:25:29Z</time>
      </trkpt>
      <trkpt lat="43.50286" lon="5.90123">
        <ele>284.3</ele>
        <time>2016-03-20T08:25:37Z</time>
      </trkpt>
      <trkpt lat="43.50289" lon="5.90112">
        <ele>284.6</ele>
        <time>2016-03-20T08:25:45Z</time>
      </trkpt>
      <trkpt lat="43.50291" lon="5.90101">
        <ele>285.7</ele>
        <time>2016-03-20T08:25:53Z</time>
      </trkpt>
      <trkpt lat="43.50292" lon="5.901">
        <ele>285.7</ele>
        <time>2016-03-20T08:25:54Z</time>
      </trkpt>
      <trkpt lat="43.50301" lon="5.9008">
        <ele>287.5</ele>
        <time>2016-03-20T08:26:12Z</time>
      </trkpt>
      <trkpt lat="43.50305" lon="5.90069">
        <ele>287.8</ele>
        <time>2016-03-20T08:26:20Z</time>
      </trkpt>
      <trkpt lat="43.5031" lon="5.90059">
        <ele>289.1</ele>
        <time>2016-03-20T08:26:30Z</time>
      </trkpt>
      <trkpt lat="43.50313" lon="5.90048">
        <ele>290.7</ele>
        <time>2016-03-20T08:26:37Z</time>
      </trkpt>
      <trkpt lat="43.50314" lon="5.90037">
        <ele>291.4</ele>
        <time>2016-03-20T08:26:46Z</time>
      </trkpt>
      <trkpt lat="43.50317" lon="5.90025">
        <ele>292.4</ele>
        <time>2016-03-20T08:26:55Z</time>
      </trkpt>
      <trkpt lat="43.50317" lon="5.90024">
        <ele>292.6</ele>
        <time>2016-03-20T08:26:56Z</time>
      </trkpt>
      <trkpt lat="43.50322" lon="5.90003">
        <ele>294.9</ele>
        <time>2016-03-20T08:27:11Z</time>
      </trkpt>
      <trkpt lat="43.50325" lon="5.89992">
        <ele>296.2</ele>
        <time>2016-03-20T08:27:20Z</time>
      </trkpt>
      <trkpt lat="43.50324" lon="5.8998">
        <ele>297.3</ele>
        <time>2016-03-20T08:27:30Z</time>
      </trkpt>
      <trkpt lat="43.50319" lon="5.89971">
        <ele>297.9</ele>
        <time>2016-03-20T08:27:39Z</time>
      </trkpt>
      <trkpt lat="43.50315" lon="5.89962">
        <ele>297.4</ele>
        <time>2016-03-20T08:27:47Z</time>
      </trkpt>
      <trkpt lat="43.50307" lon="5.89958">
        <ele>296.8</ele>
        <time>2016-03-20T08:27:55Z</time>
      </trkpt>
      <trkpt lat="43.50299" lon="5.89956">
        <ele>296.2</ele>
        <time>2016-03-20T08:28:02Z</time>
      </trkpt>
      <trkpt lat="43.50298" lon="5.89956">
        <ele>296.2</ele>
        <time>2016-03-20T08:28:03Z</time>
      </trkpt>
      <trkpt lat="43.50285" lon="5.89943">
        <ele>295.1</ele>
        <time>2016-03-20T08:28:17Z</time>
      </trkpt>
      <trkpt lat="43.50279" lon="5.89934">
        <ele>294.2</ele>
        <time>2016-03-20T08:28:25Z</time>
      </trkpt>
      <trkpt lat="43.50272" lon="5.89928">
        <ele>293.6</ele>
        <time>2016-03-20T08:28:32Z</time>
      </trkpt>
      <trkpt lat="43.50265" lon="5.89921">
        <ele>292.8</ele>
        <time>2016-03-20T08:28:39Z</time>
      </trkpt>
      <trkpt lat="43.50259" lon="5.89913">
        <ele>292.5</ele>
        <time>2016-03-20T08:28:47Z</time>
      </trkpt>
      <trkpt lat="43.50252" lon="5.89906">
        <ele>291.7</ele>
        <time>2016-03-20T08:28:54Z</time>
      </trkpt>
      <trkpt lat="43.50246" lon="5.89898">
        <ele>291.5</ele>
        <time>2016-03-20T08:29:03Z</time>
      </trkpt>
      <trkpt lat="43.50245" lon="5.89897">
        <ele>291.3</ele>
        <time>2016-03-20T08:29:04Z</time>
      </trkpt>
      <trkpt lat="43.50232" lon="5.89885">
        <ele>290.3</ele>
        <time>2016-03-20T08:29:20Z</time>
      </trkpt>
      <trkpt lat="43.50228" lon="5.89875">
        <ele>288.7</ele>
        <time>2016-03-20T08:29:27Z</time>
      </trkpt>
      <trkpt lat="43.50223" lon="5.89867">
        <ele>287.6</ele>
        <time>2016-03-20T08:29:34Z</time>
      </trkpt>
      <trkpt lat="43.50217" lon="5.89859">
        <ele>287.1</ele>
        <time>2016-03-20T08:29:42Z</time>
      </trkpt>
      <trkpt lat="43.50212" lon="5.8985">
        <ele>285.6</ele>
        <time>2016-03-20T08:29:49Z</time>
      </trkpt>
      <trkpt lat="43.50207" lon="5.89841">
        <ele>285.8</ele>
        <time>2016-03-20T08:29:57Z</time>
      </trkpt>
      <trkpt lat="43.50204" lon="5.89831">
        <ele>285</ele>
        <time>2016-03-20T08:30:05Z</time>
      </trkpt>
      <trkpt lat="43.50203" lon="5.89829">
        <ele>284.8</ele>
        <time>2016-03-20T08:30:06Z</time>
      </trkpt>
      <trkpt lat="43.50198" lon="5.8981">
        <ele>284.7</ele>
        <time>2016-03-20T08:30:30Z</time>
      </trkpt>
      <trkpt lat="43.50207" lon="5.89808">
        <ele>286.4</ele>
        <time>2016-03-20T08:30:41Z</time>
      </trkpt>
      <trkpt lat="43.5021" lon="5.89797">
        <ele>286.8</ele>
        <time>2016-03-20T08:31:05Z</time>
      </trkpt>
      <trkpt lat="43.50211" lon="5.89786">
        <ele>286.3</ele>
        <time>2016-03-20T08:31:12Z</time>
      </trkpt>
      <trkpt lat="43.50212" lon="5.89784">
        <ele>286.3</ele>
        <time>2016-03-20T08:31:13Z</time>
      </trkpt>
      <trkpt lat="43.50213" lon="5.89765">
        <ele>287.8</ele>
        <time>2016-03-20T08:32:15Z</time>
      </trkpt>
      <trkpt lat="43.50213" lon="5.89764">
        <ele>288</ele>
        <time>2016-03-20T08:32:16Z</time>
      </trkpt>
      <trkpt lat="43.50221" lon="5.89757">
        <ele>290.6</ele>
        <time>2016-03-20T08:35:46Z</time>
      </trkpt>
      <trkpt lat="43.50232" lon="5.89743">
        <ele>293.4</ele>
        <time>2016-03-20T08:36:07Z</time>
      </trkpt>
      <trkpt lat="43.50238" lon="5.89733">
        <ele>294.1</ele>
        <time>2016-03-20T08:36:15Z</time>
      </trkpt>
      <trkpt lat="43.50243" lon="5.89726">
        <ele>294.7</ele>
        <time>2016-03-20T08:36:20Z</time>
      </trkpt>
      <trkpt lat="43.50246" lon="5.89715">
        <ele>296.5</ele>
        <time>2016-03-20T08:36:28Z</time>
      </trkpt>
      <trkpt lat="43.50247" lon="5.89704">
        <ele>296.9</ele>
        <time>2016-03-20T08:36:35Z</time>
      </trkpt>
      <trkpt lat="43.50244" lon="5.89693">
        <ele>295</ele>
        <time>2016-03-20T08:36:44Z</time>
      </trkpt>
      <trkpt lat="43.5024" lon="5.89683">
        <ele>294.2</ele>
        <time>2016-03-20T08:36:51Z</time>
      </trkpt>
      <trkpt lat="43.50241" lon="5.89681">
        <ele>294.1</ele>
        <time>2016-03-20T08:36:52Z</time>
      </trkpt>
      <trkpt lat="43.50245" lon="5.89661">
        <ele>293</ele>
        <time>2016-03-20T08:37:05Z</time>
      </trkpt>
      <trkpt lat="43.50244" lon="5.89649">
        <ele>292.4</ele>
        <time>2016-03-20T08:37:13Z</time>
      </trkpt>
      <trkpt lat="43.50245" lon="5.89637">
        <ele>291.2</ele>
        <time>2016-03-20T08:37:23Z</time>
      </trkpt>
      <trkpt lat="43.50247" lon="5.89626">
        <ele>291.1</ele>
        <time>2016-03-20T08:37:33Z</time>
      </trkpt>
      <trkpt lat="43.50249" lon="5.89615">
        <ele>291.2</ele>
        <time>2016-03-20T08:37:41Z</time>
      </trkpt>
      <trkpt lat="43.5025" lon="5.89604">
        <ele>290.3</ele>
        <time>2016-03-20T08:37:49Z</time>
      </trkpt>
      <trkpt lat="43.50252" lon="5.89592">
        <ele>290.4</ele>
        <time>2016-03-20T08:37:56Z</time>
      </trkpt>
      <trkpt lat="43.50252" lon="5.89591">
        <ele>290.3</ele>
        <time>2016-03-20T08:37:57Z</time>
      </trkpt>
      <trkpt lat="43.50252" lon="5.8957">
        <ele>288.7</ele>
        <time>2016-03-20T08:38:12Z</time>
      </trkpt>
      <trkpt lat="43.50253" lon="5.89559">
        <ele>289.2</ele>
        <time>2016-03-20T08:38:18Z</time>
      </trkpt>
      <trkpt lat="43.50254" lon="5.89548">
        <ele>288.3</ele>
        <time>2016-03-20T08:38:24Z</time>
      </trkpt>
      <trkpt lat="43.50256" lon="5.89537">
        <ele>288.1</ele>
        <time>2016-03-20T08:38:30Z</time>
      </trkpt>
      <trkpt lat="43.50258" lon="5.89526">
        <ele>288.3</ele>
        <time>2016-03-20T08:38:38Z</time>
      </trkpt>
      <trkpt lat="43.50259" lon="5.89513">
        <ele>288</ele>
        <time>2016-03-20T08:38:45Z</time>
      </trkpt>
      <trkpt lat="43.5026" lon="5.89502">
        <ele>289.4</ele>
        <time>2016-03-20T08:38:52Z</time>
      </trkpt>
      <trkpt lat="43.50265" lon="5.89491">
        <ele>288.8</ele>
        <time>2016-03-20T08:39:00Z</time>
      </trkpt>
      <trkpt lat="43.50265" lon="5.8949">
        <ele>289.6</ele>
        <time>2016-03-20T08:39:01Z</time>
      </trkpt>
      <trkpt lat="43.50269" lon="5.89469">
        <ele>289.8</ele>
        <time>2016-03-20T08:39:16Z</time>
      </trkpt>
      <trkpt lat="43.50276" lon="5.89463">
        <ele>289.8</ele>
        <time>2016-03-20T08:39:27Z</time>
      </trkpt>
      <trkpt lat="43.50282" lon="5.89454">
        <ele>290.8</ele>
        <time>2016-03-20T08:39:35Z</time>
      </trkpt>
      <trkpt lat="43.50289" lon="5.89446">
        <ele>290.9</ele>
        <time>2016-03-20T08:39:42Z</time>
      </trkpt>
      <trkpt lat="43.50294" lon="5.89438">
        <ele>290.9</ele>
        <time>2016-03-20T08:39:48Z</time>
      </trkpt>
      <trkpt lat="43.503" lon="5.89429">
        <ele>291.4</ele>
        <time>2016-03-20T08:39:55Z</time>
      </trkpt>
      <trkpt lat="43.50307" lon="5.89422">
        <ele>291.8</ele>
        <time>2016-03-20T08:40:04Z</time>
      </trkpt>
      <trkpt lat="43.50308" lon="5.89421">
        <ele>291.9</ele>
        <time>2016-03-20T08:40:05Z</time>
      </trkpt>
      <trkpt lat="43.50322" lon="5.8941">
        <ele>294.3</ele>
        <time>2016-03-20T08:40:22Z</time>
      </trkpt>
      <trkpt lat="43.5033" lon="5.89409">
        <ele>295.5</ele>
        <time>2016-03-20T08:40:33Z</time>
      </trkpt>
      <trkpt lat="43.50338" lon="5.89407">
        <ele>296.2</ele>
        <time>2016-03-20T08:40:42Z</time>
      </trkpt>
      <trkpt lat="43.50347" lon="5.89405">
        <ele>297</ele>
        <time>2016-03-20T08:40:50Z</time>
      </trkpt>
      <trkpt lat="43.50355" lon="5.89404">
        <ele>298</ele>
        <time>2016-03-20T08:40:58Z</time>
      </trkpt>
      <trkpt lat="43.50362" lon="5.89399">
        <ele>297.9</ele>
        <time>2016-03-20T08:41:04Z</time>
      </trkpt>
      <trkpt lat="43.5037" lon="5.89395">
        <ele>297.9</ele>
        <time>2016-03-20T08:41:12Z</time>
      </trkpt>
      <trkpt lat="43.50372" lon="5.89394">
        <ele>298.1</ele>
        <time>2016-03-20T08:41:13Z</time>
      </trkpt>
      <trkpt lat="43.50386" lon="5.89391">
        <ele>299.6</ele>
        <time>2016-03-20T08:41:28Z</time>
      </trkpt>
      <trkpt lat="43.50394" lon="5.8939">
        <ele>299.7</ele>
        <time>2016-03-20T08:41:37Z</time>
      </trkpt>
      <trkpt lat="43.50402" lon="5.89388">
        <ele>300.2</ele>
        <time>2016-03-20T08:41:48Z</time>
      </trkpt>
      <trkpt lat="43.50411" lon="5.89386">
        <ele>300.9</ele>
        <time>2016-03-20T08:41:57Z</time>
      </trkpt>
      <trkpt lat="43.5042" lon="5.89384">
        <ele>301.3</ele>
        <time>2016-03-20T08:42:07Z</time>
      </trkpt>
      <trkpt lat="43.50427" lon="5.89379">
        <ele>302</ele>
        <time>2016-03-20T08:42:13Z</time>
      </trkpt>
      <trkpt lat="43.50429" lon="5.89378">
        <ele>302</ele>
        <time>2016-03-20T08:42:14Z</time>
      </trkpt>
      <trkpt lat="43.50439" lon="5.89365">
        <ele>302.5</ele>
        <time>2016-03-20T08:42:28Z</time>
      </trkpt>
      <trkpt lat="43.50444" lon="5.89355">
        <ele>303.2</ele>
        <time>2016-03-20T08:42:35Z</time>
      </trkpt>
      <trkpt lat="43.5045" lon="5.89347">
        <ele>303.1</ele>
        <time>2016-03-20T08:42:41Z</time>
      </trkpt>
      <trkpt lat="43.50455" lon="5.89339">
        <ele>302.4</ele>
        <time>2016-03-20T08:42:49Z</time>
      </trkpt>
      <trkpt lat="43.50461" lon="5.89331">
        <ele>301.6</ele>
        <time>2016-03-20T08:42:58Z</time>
      </trkpt>
      <trkpt lat="43.50465" lon="5.89321">
        <ele>301.8</ele>
        <time>2016-03-20T08:43:07Z</time>
      </trkpt>
      <trkpt lat="43.5047" lon="5.89311">
        <ele>302.2</ele>
        <time>2016-03-20T08:43:15Z</time>
      </trkpt>
      <trkpt lat="43.50471" lon="5.89309">
        <ele>302</ele>
        <time>2016-03-20T08:43:16Z</time>
      </trkpt>
      <trkpt lat="43.5048" lon="5.89292">
        <ele>302.9</ele>
        <time>2016-03-20T08:43:31Z</time>
      </trkpt>
      <trkpt lat="43.50486" lon="5.89284">
        <ele>303.1</ele>
        <time>2016-03-20T08:43:37Z</time>
      </trkpt>
      <trkpt lat="43.50491" lon="5.89276">
        <ele>303.4</ele>
        <time>2016-03-20T08:43:43Z</time>
      </trkpt>
      <trkpt lat="43.50495" lon="5.89266">
        <ele>303.7</ele>
        <time>2016-03-20T08:43:50Z</time>
      </trkpt>
      <trkpt lat="43.50495" lon="5.89254">
        <ele>304.4</ele>
        <time>2016-03-20T08:43:57Z</time>
      </trkpt>
      <trkpt lat="43.50494" lon="5.89243">
        <ele>304.2</ele>
        <time>2016-03-20T08:44:04Z</time>
      </trkpt>
      <trkpt lat="43.50489" lon="5.89233">
        <ele>303.8</ele>
        <time>2016-03-20T08:44:11Z</time>
      </trkpt>
      <trkpt lat="43.50486" lon="5.89222">
        <ele>304.3</ele>
        <time>2016-03-20T08:44:18Z</time>
      </trkpt>
      <trkpt lat="43.50485" lon="5.89221">
        <ele>304.2</ele>
        <time>2016-03-20T08:44:19Z</time>
      </trkpt>
      <trkpt lat="43.5048" lon="5.89201">
        <ele>303.6</ele>
        <time>2016-03-20T08:44:32Z</time>
      </trkpt>
      <trkpt lat="43.50478" lon="5.8919">
        <ele>303.2</ele>
        <time>2016-03-20T08:44:39Z</time>
      </trkpt>
      <trkpt lat="43.5048" lon="5.89178">
        <ele>303.5</ele>
        <time>2016-03-20T08:44:48Z</time>
      </trkpt>
      <trkpt lat="43.5048" lon="5.89166">
        <ele>304</ele>
        <time>2016-03-20T08:44:58Z</time>
      </trkpt>
      <trkpt lat="43.5048" lon="5.89154">
        <ele>305.1</ele>
        <time>2016-03-20T08:45:05Z</time>
      </trkpt>
      <trkpt lat="43.50477" lon="5.89143">
        <ele>304.8</ele>
        <time>2016-03-20T08:45:13Z</time>
      </trkpt>
      <trkpt lat="43.50472" lon="5.89134">
        <ele>304.8</ele>
        <time>2016-03-20T08:45:21Z</time>
      </trkpt>
      <trkpt lat="43.50471" lon="5.89133">
        <ele>304.9</ele>
        <time>2016-03-20T08:45:22Z</time>
      </trkpt>
      <trkpt lat="43.50458" lon="5.89122">
        <ele>302.6</ele>
        <time>2016-03-20T08:45:37Z</time>
      </trkpt>
      <trkpt lat="43.5045" lon="5.89119">
        <ele>301.3</ele>
        <time>2016-03-20T08:45:44Z</time>
      </trkpt>
      <trkpt lat="43.50443" lon="5.89113">
        <ele>301</ele>
        <time>2016-03-20T08:45:51Z</time>
      </trkpt>
      <trkpt lat="43.50437" lon="5.89105">
        <ele>300.4</ele>
        <time>2016-03-20T08:45:59Z</time>
      </trkpt>
      <trkpt lat="43.50436" lon="5.89093">
        <ele>300.1</ele>
        <time>2016-03-20T08:46:07Z</time>
      </trkpt>
      <trkpt lat="43.50435" lon="5.89083">
        <ele>300.8</ele>
        <time>2016-03-20T08:46:14Z</time>
      </trkpt>
      <trkpt lat="43.50431" lon="5.89072">
        <ele>300.5</ele>
        <time>2016-03-20T08:46:22Z</time>
      </trkpt>
      <trkpt lat="43.50431" lon="5.8907">
        <ele>300.6</ele>
        <time>2016-03-20T08:46:23Z</time>
      </trkpt>
      <trkpt lat="43.50426" lon="5.89048">
        <ele>302.1</ele>
        <time>2016-03-20T08:46:37Z</time>
      </trkpt>
      <trkpt lat="43.50423" lon="5.89037">
        <ele>302.3</ele>
        <time>2016-03-20T08:46:44Z</time>
      </trkpt>
      <trkpt lat="43.50422" lon="5.89025">
        <ele>302.5</ele>
        <time>2016-03-20T08:46:51Z</time>
      </trkpt>
      <trkpt lat="43.50419" lon="5.89015">
        <ele>302.1</ele>
        <time>2016-03-20T08:46:58Z</time>
      </trkpt>
      <trkpt lat="43.50414" lon="5.89004">
        <ele>302.1</ele>
        <time>2016-03-20T08:47:05Z</time>
      </trkpt>
      <trkpt lat="43.5041" lon="5.88995">
        <ele>301.2</ele>
        <time>2016-03-20T08:47:11Z</time>
      </trkpt>
      <trkpt lat="43.50406" lon="5.88984">
        <ele>301</ele>
        <time>2016-03-20T08:47:18Z</time>
      </trkpt>
      <trkpt lat="43.50403" lon="5.88973">
        <ele>301.4</ele>
        <time>2016-03-20T08:47:25Z</time>
      </trkpt>
      <trkpt lat="43.50403" lon="5.88972">
        <ele>301.3</ele>
        <time>2016-03-20T08:47:26Z</time>
      </trkpt>
      <trkpt lat="43.50398" lon="5.8895">
        <ele>301</ele>
        <time>2016-03-20T08:47:40Z</time>
      </trkpt>
      <trkpt lat="43.50396" lon="5.88939">
        <ele>302.3</ele>
        <time>2016-03-20T08:47:48Z</time>
      </trkpt>
      <trkpt lat="43.50393" lon="5.88928">
        <ele>302.3</ele>
        <time>2016-03-20T08:47:55Z</time>
      </trkpt>
      <trkpt lat="43.50391" lon="5.88918">
        <ele>302.1</ele>
        <time>2016-03-20T08:48:02Z</time>
      </trkpt>
      <trkpt lat="43.50388" lon="5.88907">
        <ele>302.4</ele>
        <time>2016-03-20T08:48:09Z</time>
      </trkpt>
      <trkpt lat="43.50386" lon="5.88897">
        <ele>303.1</ele>
        <time>2016-03-20T08:48:16Z</time>
      </trkpt>
      <trkpt lat="43.50383" lon="5.88885">
        <ele>302.8</ele>
        <time>2016-03-20T08:48:30Z</time>
      </trkpt>
      <trkpt lat="43.50383" lon="5.88884">
        <ele>302.7</ele>
        <time>2016-03-20T08:48:31Z</time>
      </trkpt>
      <trkpt lat="43.50381" lon="5.88864">
        <ele>301.9</ele>
        <time>2016-03-20T08:48:46Z</time>
      </trkpt>
      <trkpt lat="43.50377" lon="5.88853">
        <ele>301.5</ele>
        <time>2016-03-20T08:48:53Z</time>
      </trkpt>
      <trkpt lat="43.50374" lon="5.88842">
        <ele>300.6</ele>
        <time>2016-03-20T08:49:00Z</time>
      </trkpt>
      <trkpt lat="43.50369" lon="5.88833">
        <ele>300.4</ele>
        <time>2016-03-20T08:49:07Z</time>
      </trkpt>
      <trkpt lat="43.50369" lon="5.88821">
        <ele>299.3</ele>
        <time>2016-03-20T08:49:14Z</time>
      </trkpt>
      <trkpt lat="43.50367" lon="5.88809">
        <ele>298.6</ele>
        <time>2016-03-20T08:49:23Z</time>
      </trkpt>
      <trkpt lat="43.50365" lon="5.88797">
        <ele>298.1</ele>
        <time>2016-03-20T08:50:40Z</time>
      </trkpt>
      <trkpt lat="43.50364" lon="5.88797">
        <ele>298</ele>
        <time>2016-03-20T08:50:41Z</time>
      </trkpt>
      <trkpt lat="43.50365" lon="5.88774">
        <ele>298.3</ele>
        <time>2016-03-20T08:51:38Z</time>
      </trkpt>
      <trkpt lat="43.50363" lon="5.88763">
        <ele>298.5</ele>
        <time>2016-03-20T08:51:45Z</time>
      </trkpt>
      <trkpt lat="43.50363" lon="5.88761">
        <ele>298.5</ele>
        <time>2016-03-20T08:51:46Z</time>
      </trkpt>
      <trkpt lat="43.50359" lon="5.8874">
        <ele>298.2</ele>
        <time>2016-03-20T08:51:58Z</time>
      </trkpt>
      <trkpt lat="43.50357" lon="5.88729">
        <ele>296.7</ele>
        <time>2016-03-20T08:52:04Z</time>
      </trkpt>
      <trkpt lat="43.5036" lon="5.88717">
        <ele>297.6</ele>
        <time>2016-03-20T08:52:14Z</time>
      </trkpt>
      <trkpt lat="43.50358" lon="5.88706">
        <ele>297</ele>
        <time>2016-03-20T08:52:23Z</time>
      </trkpt>
      <trkpt lat="43.50357" lon="5.88695">
        <ele>297.8</ele>
        <time>2016-03-20T08:52:32Z</time>
      </trkpt>
      <trkpt lat="43.50359" lon="5.88684">
        <ele>298</ele>
        <time>2016-03-20T08:52:39Z</time>
      </trkpt>
      <trkpt lat="43.50364" lon="5.88675">
        <ele>297.9</ele>
        <time>2016-03-20T08:52:47Z</time>
      </trkpt>
      <trkpt lat="43.50365" lon="5.88674">
        <ele>298.2</ele>
        <time>2016-03-20T08:52:48Z</time>
      </trkpt>
      <trkpt lat="43.50376" lon="5.88659">
        <ele>299.1</ele>
        <time>2016-03-20T08:53:02Z</time>
      </trkpt>
      <trkpt lat="43.50382" lon="5.8865">
        <ele>299.9</ele>
        <time>2016-03-20T08:53:20Z</time>
      </trkpt>
      <trkpt lat="43.50389" lon="5.88644">
        <ele>299.6</ele>
        <time>2016-03-20T08:53:26Z</time>
      </trkpt>
      <trkpt lat="43.50396" lon="5.8864">
        <ele>300.4</ele>
        <time>2016-03-20T08:53:32Z</time>
      </trkpt>
      <trkpt lat="43.50403" lon="5.88635">
        <ele>300.7</ele>
        <time>2016-03-20T08:53:39Z</time>
      </trkpt>
      <trkpt lat="43.5041" lon="5.88629">
        <ele>300.4</ele>
        <time>2016-03-20T08:53:45Z</time>
      </trkpt>
      <trkpt lat="43.50418" lon="5.88623">
        <ele>300.4</ele>
        <time>2016-03-20T08:53:56Z</time>
      </trkpt>
      <trkpt lat="43.50419" lon="5.88623">
        <ele>300.3</ele>
        <time>2016-03-20T08:53:57Z</time>
      </trkpt>
      <trkpt lat="43.50434" lon="5.88616">
        <ele>300.9</ele>
        <time>2016-03-20T08:54:14Z</time>
      </trkpt>
      <trkpt lat="43.50441" lon="5.88612">
        <ele>300.7</ele>
        <time>2016-03-20T08:54:19Z</time>
      </trkpt>
      <trkpt lat="43.50448" lon="5.88609">
        <ele>301.1</ele>
        <time>2016-03-20T08:54:23Z</time>
      </trkpt>
      <trkpt lat="43.50454" lon="5.88603">
        <ele>301.7</ele>
        <time>2016-03-20T08:54:28Z</time>
      </trkpt>
      <trkpt lat="43.50461" lon="5.88599">
        <ele>301.5</ele>
        <time>2016-03-20T08:54:32Z</time>
      </trkpt>
      <trkpt lat="43.50469" lon="5.88594">
        <ele>301.1</ele>
        <time>2016-03-20T08:54:40Z</time>
      </trkpt>
      <trkpt lat="43.50476" lon="5.88588">
        <ele>301.8</ele>
        <time>2016-03-20T08:54:47Z</time>
      </trkpt>
      <trkpt lat="43.50483" lon="5.88584">
        <ele>301.7</ele>
        <time>2016-03-20T08:54:54Z</time>
      </trkpt>
      <trkpt lat="43.50491" lon="5.8858">
        <ele>302.6</ele>
        <time>2016-03-20T08:55:01Z</time>
      </trkpt>
      <trkpt lat="43.50492" lon="5.88579">
        <ele>302.5</ele>
        <time>2016-03-20T08:55:02Z</time>
      </trkpt>
      <trkpt lat="43.50506" lon="5.88569">
        <ele>302.6</ele>
        <time>2016-03-20T08:55:14Z</time>
      </trkpt>
      <trkpt lat="43.50514" lon="5.88562">
        <ele>302.6</ele>
        <time>2016-03-20T08:55:22Z</time>
      </trkpt>
      <trkpt lat="43.50516" lon="5.88552">
        <ele>303.1</ele>
        <time>2016-03-20T08:55:52Z</time>
      </trkpt>
      <trkpt lat="43.50523" lon="5.88547">
        <ele>303.2</ele>
        <time>2016-03-20T08:56:06Z</time>
      </trkpt>
      <trkpt lat="43.50524" lon="5.88546">
        <ele>303</ele>
        <time>2016-03-20T08:56:07Z</time>
      </trkpt>
      <trkpt lat="43.50537" lon="5.88534">
        <ele>302.8</ele>
        <time>2016-03-20T08:56:20Z</time>
      </trkpt>
      <trkpt lat="43.50543" lon="5.88525">
        <ele>303</ele>
        <time>2016-03-20T08:56:27Z</time>
      </trkpt>
      <trkpt lat="43.50549" lon="5.88517">
        <ele>303.2</ele>
        <time>2016-03-20T08:56:35Z</time>
      </trkpt>
      <trkpt lat="43.50553" lon="5.88508">
        <ele>303.6</ele>
        <time>2016-03-20T08:56:42Z</time>
      </trkpt>
      <trkpt lat="43.50559" lon="5.88501">
        <ele>304.5</ele>
        <time>2016-03-20T08:56:48Z</time>
      </trkpt>
      <trkpt lat="43.50565" lon="5.88493">
        <ele>304.3</ele>
        <time>2016-03-20T08:56:55Z</time>
      </trkpt>
      <trkpt lat="43.50571" lon="5.88485">
        <ele>304.6</ele>
        <time>2016-03-20T08:57:02Z</time>
      </trkpt>
      <trkpt lat="43.50578" lon="5.88478">
        <ele>304.4</ele>
        <time>2016-03-20T08:57:11Z</time>
      </trkpt>
      <trkpt lat="43.50579" lon="5.88477">
        <ele>304.4</ele>
        <time>2016-03-20T08:57:12Z</time>
      </trkpt>
      <trkpt lat="43.50592" lon="5.88466">
        <ele>305.8</ele>
        <time>2016-03-20T08:57:28Z</time>
      </trkpt>
      <trkpt lat="43.50601" lon="5.88462">
        <ele>306.5</ele>
        <time>2016-03-20T08:57:35Z</time>
      </trkpt>
      <trkpt lat="43.50608" lon="5.88461">
        <ele>306.9</ele>
        <time>2016-03-20T08:57:43Z</time>
      </trkpt>
      <trkpt lat="43.50616" lon="5.88467">
        <ele>306.3</ele>
        <time>2016-03-20T08:57:53Z</time>
      </trkpt>
      <trkpt lat="43.50624" lon="5.88463">
        <ele>306.5</ele>
        <time>2016-03-20T08:58:00Z</time>
      </trkpt>
      <trkpt lat="43.50632" lon="5.88459">
        <ele>307.6</ele>
        <time>2016-03-20T08:58:08Z</time>
      </trkpt>
      <trkpt lat="43.5064" lon="5.88459">
        <ele>308.2</ele>
        <time>2016-03-20T08:58:15Z</time>
      </trkpt>
      <trkpt lat="43.50642" lon="5.88458">
        <ele>307.9</ele>
        <time>2016-03-20T08:58:16Z</time>
      </trkpt>
      <trkpt lat="43.50656" lon="5.88451">
        <ele>308.2</ele>
        <time>2016-03-20T08:58:26Z</time>
      </trkpt>
      <trkpt lat="43.50663" lon="5.88445">
        <ele>308</ele>
        <time>2016-03-20T08:58:32Z</time>
      </trkpt>
      <trkpt lat="43.50671" lon="5.88441">
        <ele>308.2</ele>
        <time>2016-03-20T08:58:37Z</time>
      </trkpt>
      <trkpt lat="43.50677" lon="5.88434">
        <ele>308.4</ele>
        <time>2016-03-20T08:58:43Z</time>
      </trkpt>
      <trkpt lat="43.50683" lon="5.88425">
        <ele>308.8</ele>
        <time>2016-03-20T08:58:51Z</time>
      </trkpt>
      <trkpt lat="43.50688" lon="5.88417">
        <ele>309</ele>
        <time>2016-03-20T08:58:58Z</time>
      </trkpt>
      <trkpt lat="43.50693" lon="5.88408">
        <ele>309</ele>
        <time>2016-03-20T08:59:05Z</time>
      </trkpt>
      <trkpt lat="43.50697" lon="5.88399">
        <ele>310.1</ele>
        <time>2016-03-20T08:59:13Z</time>
      </trkpt>
      <trkpt lat="43.50704" lon="5.88392">
        <ele>310.3</ele>
        <time>2016-03-20T08:59:20Z</time>
      </trkpt>
      <trkpt lat="43.50705" lon="5.88391">
        <ele>310.3</ele>
        <time>2016-03-20T08:59:21Z</time>
      </trkpt>
      <trkpt lat="43.50717" lon="5.8838">
        <ele>310.4</ele>
        <time>2016-03-20T08:59:30Z</time>
      </trkpt>
      <trkpt lat="43.50723" lon="5.88375">
        <ele>310.6</ele>
        <time>2016-03-20T08:59:34Z</time>
      </trkpt>
      <trkpt lat="43.50729" lon="5.88368">
        <ele>310.9</ele>
        <time>2016-03-20T08:59:38Z</time>
      </trkpt>
      <trkpt lat="43.50732" lon="5.88358">
        <ele>311.1</ele>
        <time>2016-03-20T08:59:45Z</time>
      </trkpt>
      <trkpt lat="43.50735" lon="5.88348">
        <ele>311.2</ele>
        <time>2016-03-20T08:59:53Z</time>
      </trkpt>
      <trkpt lat="43.50738" lon="5.88337">
        <ele>311.3</ele>
        <time>2016-03-20T09:00:01Z</time>
      </trkpt>
      <trkpt lat="43.50741" lon="5.88327">
        <ele>311.1</ele>
        <time>2016-03-20T09:00:06Z</time>
      </trkpt>
      <trkpt lat="43.50744" lon="5.88317">
        <ele>311.7</ele>
        <time>2016-03-20T09:00:14Z</time>
      </trkpt>
      <trkpt lat="43.50751" lon="5.88311">
        <ele>312.3</ele>
        <time>2016-03-20T09:00:25Z</time>
      </trkpt>
      <trkpt lat="43.50752" lon="5.8831">
        <ele>311.9</ele>
        <time>2016-03-20T09:00:26Z</time>
      </trkpt>
      <trkpt lat="43.50764" lon="5.88298">
        <ele>311.8</ele>
        <time>2016-03-20T09:00:40Z</time>
      </trkpt>
      <trkpt lat="43.50773" lon="5.88295">
        <ele>312.4</ele>
        <time>2016-03-20T09:00:48Z</time>
      </trkpt>
      <trkpt lat="43.50781" lon="5.88294">
        <ele>313.2</ele>
        <time>2016-03-20T09:00:58Z</time>
      </trkpt>
      <trkpt lat="43.5079" lon="5.88298">
        <ele>313</ele>
        <time>2016-03-20T09:01:06Z</time>
      </trkpt>
      <trkpt lat="43.50798" lon="5.883">
        <ele>313.2</ele>
        <time>2016-03-20T09:01:13Z</time>
      </trkpt>
      <trkpt lat="43.50804" lon="5.88307">
        <ele>314</ele>
        <time>2016-03-20T09:01:23Z</time>
      </trkpt>
      <trkpt lat="43.50811" lon="5.88314">
        <ele>313.5</ele>
        <time>2016-03-20T09:01:32Z</time>
      </trkpt>
      <trkpt lat="43.50811" lon="5.88315">
        <ele>313.3</ele>
        <time>2016-03-20T09:01:33Z</time>
      </trkpt>
      <trkpt lat="43.5082" lon="5.88332">
        <ele>314.5</ele>
        <time>2016-03-20T09:01:46Z</time>
      </trkpt>
      <trkpt lat="43.50821" lon="5.88344">
        <ele>315.2</ele>
        <time>2016-03-20T09:01:54Z</time>
      </trkpt>
      <trkpt lat="43.50821" lon="5.88356">
        <ele>315.4</ele>
        <time>2016-03-20T09:02:05Z</time>
      </trkpt>
      <trkpt lat="43.50819" lon="5.88367">
        <ele>315.1</ele>
        <time>2016-03-20T09:02:12Z</time>
      </trkpt>
      <trkpt lat="43.50819" lon="5.88379">
        <ele>315.7</ele>
        <time>2016-03-20T09:02:21Z</time>
      </trkpt>
      <trkpt lat="43.50819" lon="5.88391">
        <ele>316</ele>
        <time>2016-03-20T09:02:27Z</time>
      </trkpt>
      <trkpt lat="43.50823" lon="5.88402">
        <ele>316.5</ele>
        <time>2016-03-20T09:02:34Z</time>
      </trkpt>
      <trkpt lat="43.50823" lon="5.88403">
        <ele>316.5</ele>
        <time>2016-03-20T09:02:35Z</time>
      </trkpt>
      <trkpt lat="43.50834" lon="5.88418">
        <ele>317.4</ele>
        <time>2016-03-20T09:03:01Z</time>
      </trkpt>
      <trkpt lat="43.50843" lon="5.88416">
        <ele>318.3</ele>
        <time>2016-03-20T09:04:05Z</time>
      </trkpt>
      <trkpt lat="43.50843" lon="5.88416">
        <ele>318.5</ele>
        <time>2016-03-20T09:04:06Z</time>
      </trkpt>
      <trkpt lat="43.50842" lon="5.88404">
        <ele>318.1</ele>
        <time>2016-03-20T09:05:50Z</time>
      </trkpt>
      <trkpt lat="43.50849" lon="5.88411">
        <ele>317.4</ele>
        <time>2016-03-20T09:10:36Z</time>
      </trkpt>
      <trkpt lat="43.5085" lon="5.88411">
        <ele>317.4</ele>
        <time>2016-03-20T09:10:37Z</time>
      </trkpt>
      <trkpt lat="43.50866" lon="5.8841">
        <ele>317</ele>
        <time>2016-03-20T09:10:54Z</time>
      </trkpt>
      <trkpt lat="43.50874" lon="5.8841">
        <ele>317.9</ele>
        <time>2016-03-20T09:11:02Z</time>
      </trkpt>
      <trkpt lat="43.50881" lon="5.88406">
        <ele>318</ele>
        <time>2016-03-20T09:11:08Z</time>
      </trkpt>
      <trkpt lat="43.50889" lon="5.88405">
        <ele>318.5</ele>
        <time>2016-03-20T09:11:15Z</time>
      </trkpt>
      <trkpt lat="43.50897" lon="5.88404">
        <ele>318.2</ele>
        <time>2016-03-20T09:11:21Z</time>
      </trkpt>
      <trkpt lat="43.50905" lon="5.88402">
        <ele>317.8</ele>
        <time>2016-03-20T09:11:28Z</time>
      </trkpt>
      <trkpt lat="43.50913" lon="5.884">
        <ele>318.3</ele>
        <time>2016-03-20T09:11:34Z</time>
      </trkpt>
      <trkpt lat="43.50921" lon="5.884">
        <ele>318.6</ele>
        <time>2016-03-20T09:11:42Z</time>
      </trkpt>
      <trkpt lat="43.50923" lon="5.88399">
        <ele>318.5</ele>
        <time>2016-03-20T09:11:43Z</time>
      </trkpt>
      <trkpt lat="43.50937" lon="5.88393">
        <ele>318.1</ele>
        <time>2016-03-20T09:11:56Z</time>
      </trkpt>
      <trkpt lat="43.50945" lon="5.8839">
        <ele>318.2</ele>
        <time>2016-03-20T09:12:02Z</time>
      </trkpt>
      <trkpt lat="43.50953" lon="5.88385">
        <ele>318.5</ele>
        <time>2016-03-20T09:12:10Z</time>
      </trkpt>
      <trkpt lat="43.5096" lon="5.88383">
        <ele>318.2</ele>
        <time>2016-03-20T09:12:16Z</time>
      </trkpt>
      <trkpt lat="43.50968" lon="5.88379">
        <ele>319.1</ele>
        <time>2016-03-20T09:12:21Z</time>
      </trkpt>
      <trkpt lat="43.50975" lon="5.88375">
        <ele>318.8</ele>
        <time>2016-03-20T09:12:26Z</time>
      </trkpt>
      <trkpt lat="43.50983" lon="5.88372">
        <ele>319</ele>
        <time>2016-03-20T09:12:34Z</time>
      </trkpt>
      <trkpt lat="43.50991" lon="5.88372">
        <ele>318.9</ele>
        <time>2016-03-20T09:12:41Z</time>
      </trkpt>
      <trkpt lat="43.51" lon="5.88368">
        <ele>319.7</ele>
        <time>2016-03-20T09:12:49Z</time>
      </trkpt>
      <trkpt lat="43.51001" lon="5.88367">
        <ele>319.7</ele>
        <time>2016-03-20T09:12:50Z</time>
      </trkpt>
      <trkpt lat="43.51015" lon="5.88362">
        <ele>320.4</ele>
        <time>2016-03-20T09:13:05Z</time>
      </trkpt>
      <trkpt lat="43.51023" lon="5.88363">
        <ele>320.4</ele>
        <time>2016-03-20T09:13:14Z</time>
      </trkpt>
      <trkpt lat="43.51031" lon="5.88362">
        <ele>320.5</ele>
        <time>2016-03-20T09:13:22Z</time>
      </trkpt>
      <trkpt lat="43.51039" lon="5.88361">
        <ele>319.8</ele>
        <time>2016-03-20T09:13:27Z</time>
      </trkpt>
      <trkpt lat="43.51047" lon="5.88363">
        <ele>320.9</ele>
        <time>2016-03-20T09:13:35Z</time>
      </trkpt>
      <trkpt lat="43.51055" lon="5.88362">
        <ele>320.9</ele>
        <time>2016-03-20T09:13:40Z</time>
      </trkpt>
      <trkpt lat="43.51063" lon="5.88359">
        <ele>320.5</ele>
        <time>2016-03-20T09:13:45Z</time>
      </trkpt>
      <trkpt lat="43.51071" lon="5.88356">
        <ele>321.1</ele>
        <time>2016-03-20T09:13:51Z</time>
      </trkpt>
      <trkpt lat="43.51072" lon="5.88355">
        <ele>321.2</ele>
        <time>2016-03-20T09:13:52Z</time>
      </trkpt>
      <trkpt lat="43.51087" lon="5.88351">
        <ele>321.1</ele>
        <time>2016-03-20T09:14:06Z</time>
      </trkpt>
      <trkpt lat="43.51095" lon="5.88346">
        <ele>320.8</ele>
        <time>2016-03-20T09:14:13Z</time>
      </trkpt>
      <trkpt lat="43.51103" lon="5.88342">
        <ele>320.8</ele>
        <time>2016-03-20T09:14:19Z</time>
      </trkpt>
      <trkpt lat="43.51111" lon="5.88342">
        <ele>321.4</ele>
        <time>2016-03-20T09:14:28Z</time>
      </trkpt>
      <trkpt lat="43.5112" lon="5.88338">
        <ele>321.1</ele>
        <time>2016-03-20T09:14:35Z</time>
      </trkpt>
      <trkpt lat="43.51127" lon="5.88335">
        <ele>321.3</ele>
        <time>2016-03-20T09:14:39Z</time>
      </trkpt>
      <trkpt lat="43.51136" lon="5.88333">
        <ele>321.9</ele>
        <time>2016-03-20T09:14:47Z</time>
      </trkpt>
      <trkpt lat="43.51144" lon="5.88336">
        <ele>322.4</ele>
        <time>2016-03-20T09:14:56Z</time>
      </trkpt>
      <trkpt lat="43.51144" lon="5.88338">
        <ele>322.4</ele>
        <time>2016-03-20T09:14:57Z</time>
      </trkpt>
      <trkpt lat="43.51156" lon="5.88353">
        <ele>323.3</ele>
        <time>2016-03-20T09:15:11Z</time>
      </trkpt>
      <trkpt lat="43.51161" lon="5.88362">
        <ele>323.2</ele>
        <time>2016-03-20T09:15:18Z</time>
      </trkpt>
      <trkpt lat="43.51161" lon="5.88374">
        <ele>323.9</ele>
        <time>2016-03-20T09:15:26Z</time>
      </trkpt>
      <trkpt lat="43.51162" lon="5.88386">
        <ele>324.3</ele>
        <time>2016-03-20T09:15:35Z</time>
      </trkpt>
      <trkpt lat="43.51163" lon="5.88397">
        <ele>324.5</ele>
        <time>2016-03-20T09:15:42Z</time>
      </trkpt>
      <trkpt lat="43.51164" lon="5.88408">
        <ele>324.5</ele>
        <time>2016-03-20T09:15:50Z</time>
      </trkpt>
      <trkpt lat="43.51164" lon="5.88419">
        <ele>324.5</ele>
        <time>2016-03-20T09:15:57Z</time>
      </trkpt>
      <trkpt lat="43.51164" lon="5.88421">
        <ele>324.4</ele>
        <time>2016-03-20T09:15:58Z</time>
      </trkpt>
      <trkpt lat="43.51174" lon="5.88434">
        <ele>324.6</ele>
        <time>2016-03-20T09:16:12Z</time>
      </trkpt>
      <trkpt lat="43.5118" lon="5.88428">
        <ele>324.5</ele>
        <time>2016-03-20T09:16:17Z</time>
      </trkpt>
      <trkpt lat="43.51187" lon="5.88422">
        <ele>324.8</ele>
        <time>2016-03-20T09:16:22Z</time>
      </trkpt>
      <trkpt lat="43.51195" lon="5.88418">
        <ele>324.8</ele>
        <time>2016-03-20T09:16:30Z</time>
      </trkpt>
      <trkpt lat="43.51204" lon="5.88416">
        <ele>325.3</ele>
        <time>2016-03-20T09:16:39Z</time>
      </trkpt>
      <trkpt lat="43.51212" lon="5.88414">
        <ele>325.2</ele>
        <time>2016-03-20T09:16:46Z</time>
      </trkpt>
      <trkpt lat="43.5122" lon="5.88415">
        <ele>327.1</ele>
        <time>2016-03-20T09:16:55Z</time>
      </trkpt>
      <trkpt lat="43.51227" lon="5.88421">
        <ele>329.1</ele>
        <time>2016-03-20T09:17:04Z</time>
      </trkpt>
      <trkpt lat="43.51229" lon="5.88421">
        <ele>329.2</ele>
        <time>2016-03-20T09:17:05Z</time>
      </trkpt>
      <trkpt lat="43.51242" lon="5.88434">
        <ele>332.1</ele>
        <time>2016-03-20T09:17:23Z</time>
      </trkpt>
      <trkpt lat="43.5125" lon="5.88435">
        <ele>333</ele>
        <time>2016-03-20T09:17:31Z</time>
      </trkpt>
      <trkpt lat="43.51257" lon="5.8843">
        <ele>332.7</ele>
        <time>2016-03-20T09:17:39Z</time>
      </trkpt>
      <trkpt lat="43.51264" lon="5.88423">
        <ele>332.8</ele>
        <time>2016-03-20T09:17:46Z</time>
      </trkpt>
      <trkpt lat="43.51269" lon="5.88416">
        <ele>332.4</ele>
        <time>2016-03-20T09:17:52Z</time>
      </trkpt>
      <trkpt lat="43.51276" lon="5.8841">
        <ele>332.5</ele>
        <time>2016-03-20T09:17:57Z</time>
      </trkpt>
      <trkpt lat="43.51283" lon="5.88402">
        <ele>331.5</ele>
        <time>2016-03-20T09:18:03Z</time>
      </trkpt>
      <trkpt lat="43.51289" lon="5.88394">
        <ele>330.9</ele>
        <time>2016-03-20T09:18:09Z</time>
      </trkpt>
      <trkpt lat="43.51291" lon="5.88394">
        <ele>330.8</ele>
        <time>2016-03-20T09:18:10Z</time>
      </trkpt>
      <trkpt lat="43.51299" lon="5.88374">
        <ele>330.1</ele>
        <time>2016-03-20T09:18:26Z</time>
      </trkpt>
      <trkpt lat="43.513" lon="5.88362">
        <ele>330.8</ele>
        <time>2016-03-20T09:18:34Z</time>
      </trkpt>
      <trkpt lat="43.51303" lon="5.88351">
        <ele>331</ele>
        <time>2016-03-20T09:18:41Z</time>
      </trkpt>
      <trkpt lat="43.51306" lon="5.88341">
        <ele>331.2</ele>
        <time>2016-03-20T09:18:48Z</time>
      </trkpt>
      <trkpt lat="43.51307" lon="5.8833">
        <ele>331.6</ele>
        <time>2016-03-20T09:18:56Z</time>
      </trkpt>
      <trkpt lat="43.51307" lon="5.88319">
        <ele>332.7</ele>
        <time>2016-03-20T09:19:04Z</time>
      </trkpt>
      <trkpt lat="43.51314" lon="5.88312">
        <ele>333</ele>
        <time>2016-03-20T09:19:11Z</time>
      </trkpt>
      <trkpt lat="43.51316" lon="5.88311">
        <ele>333.1</ele>
        <time>2016-03-20T09:19:12Z</time>
      </trkpt>
      <trkpt lat="43.5133" lon="5.88304">
        <ele>333.1</ele>
        <time>2016-03-20T09:19:29Z</time>
      </trkpt>
      <trkpt lat="43.51338" lon="5.88299">
        <ele>333.5</ele>
        <time>2016-03-20T09:19:40Z</time>
      </trkpt>
      <trkpt lat="43.51346" lon="5.88298">
        <ele>333.2</ele>
        <time>2016-03-20T09:19:49Z</time>
      </trkpt>
      <trkpt lat="43.51354" lon="5.88297">
        <ele>334</ele>
        <time>2016-03-20T09:19:55Z</time>
      </trkpt>
      <trkpt lat="43.51362" lon="5.88299">
        <ele>334.7</ele>
        <time>2016-03-20T09:20:05Z</time>
      </trkpt>
      <trkpt lat="43.51371" lon="5.883">
        <ele>334.7</ele>
        <time>2016-03-20T09:20:13Z</time>
      </trkpt>
      <trkpt lat="43.51372" lon="5.88301">
        <ele>334.8</ele>
        <time>2016-03-20T09:20:14Z</time>
      </trkpt>
      <trkpt lat="43.51385" lon="5.88313">
        <ele>335.5</ele>
        <time>2016-03-20T09:20:28Z</time>
      </trkpt>
      <trkpt lat="43.51391" lon="5.88321">
        <ele>336.2</ele>
        <time>2016-03-20T09:20:36Z</time>
      </trkpt>
      <trkpt lat="43.51398" lon="5.88327">
        <ele>336.4</ele>
        <time>2016-03-20T09:20:43Z</time>
      </trkpt>
      <trkpt lat="43.51405" lon="5.88333">
        <ele>335.8</ele>
        <time>2016-03-20T09:20:50Z</time>
      </trkpt>
      <trkpt lat="43.51411" lon="5.88342">
        <ele>336.1</ele>
        <time>2016-03-20T09:20:58Z</time>
      </trkpt>
      <trkpt lat="43.51418" lon="5.88348">
        <ele>336.6</ele>
        <time>2016-03-20T09:21:05Z</time>
      </trkpt>
      <trkpt lat="43.51424" lon="5.88355">
        <ele>336.8</ele>
        <time>2016-03-20T09:21:11Z</time>
      </trkpt>
      <trkpt lat="43.51432" lon="5.88359">
        <ele>337.1</ele>
        <time>2016-03-20T09:21:17Z</time>
      </trkpt>
      <trkpt lat="43.51432" lon="5.8836">
        <ele>337.2</ele>
        <time>2016-03-20T09:21:18Z</time>
      </trkpt>
      <trkpt lat="43.51446" lon="5.88369">
        <ele>338</ele>
        <time>2016-03-20T09:21:33Z</time>
      </trkpt>
      <trkpt lat="43.51455" lon="5.88369">
        <ele>338</ele>
        <time>2016-03-20T09:21:41Z</time>
      </trkpt>
      <trkpt lat="43.51462" lon="5.88366">
        <ele>338.2</ele>
        <time>2016-03-20T09:21:48Z</time>
      </trkpt>
      <trkpt lat="43.51469" lon="5.88359">
        <ele>338.6</ele>
        <time>2016-03-20T09:21:54Z</time>
      </trkpt>
      <trkpt lat="43.51476" lon="5.88353">
        <ele>339.3</ele>
        <time>2016-03-20T09:22:00Z</time>
      </trkpt>
      <trkpt lat="43.51482" lon="5.88345">
        <ele>339</ele>
        <time>2016-03-20T09:22:06Z</time>
      </trkpt>
      <trkpt lat="43.51487" lon="5.88336">
        <ele>338.9</ele>
        <time>2016-03-20T09:22:12Z</time>
      </trkpt>
      <trkpt lat="43.51494" lon="5.88329">
        <ele>339.3</ele>
        <time>2016-03-20T09:22:16Z</time>
      </trkpt>
      <trkpt lat="43.515" lon="5.8832">
        <ele>338.6</ele>
        <time>2016-03-20T09:22:22Z</time>
      </trkpt>
      <trkpt lat="43.51501" lon="5.88319">
        <ele>338.4</ele>
        <time>2016-03-20T09:22:23Z</time>
      </trkpt>
      <trkpt lat="43.5151" lon="5.88304">
        <ele>339.6</ele>
        <time>2016-03-20T09:22:34Z</time>
      </trkpt>
      <trkpt lat="43.51517" lon="5.88296">
        <ele>339.7</ele>
        <time>2016-03-20T09:22:44Z</time>
      </trkpt>
      <trkpt lat="43.51524" lon="5.88289">
        <ele>339.5</ele>
        <time>2016-03-20T09:22:52Z</time>
      </trkpt>
      <trkpt lat="43.5153" lon="5.88284">
        <ele>339.7</ele>
        <time>2016-03-20T09:22:59Z</time>
      </trkpt>
      <trkpt lat="43.51538" lon="5.88278">
        <ele>340.3</ele>
        <time>2016-03-20T09:23:06Z</time>
      </trkpt>
      <trkpt lat="43.51544" lon="5.88269">
        <ele>340</ele>
        <time>2016-03-20T09:23:14Z</time>
      </trkpt>
      <trkpt lat="43.51552" lon="5.88264">
        <ele>340.7</ele>
        <time>2016-03-20T09:23:23Z</time>
      </trkpt>
      <trkpt lat="43.51553" lon="5.88263">
        <ele>340.7</ele>
        <time>2016-03-20T09:23:24Z</time>
      </trkpt>
      <trkpt lat="43.51568" lon="5.88274">
        <ele>342.2</ele>
        <time>2016-03-20T09:23:47Z</time>
      </trkpt>
      <trkpt lat="43.51574" lon="5.88281">
        <ele>343.2</ele>
        <time>2016-03-20T09:23:54Z</time>
      </trkpt>
      <trkpt lat="43.51581" lon="5.88287">
        <ele>343.5</ele>
        <time>2016-03-20T09:24:00Z</time>
      </trkpt>
      <trkpt lat="43.51587" lon="5.88297">
        <ele>343.8</ele>
        <time>2016-03-20T09:24:08Z</time>
      </trkpt>
      <trkpt lat="43.51592" lon="5.88306">
        <ele>344.3</ele>
        <time>2016-03-20T09:24:16Z</time>
      </trkpt>
      <trkpt lat="43.51597" lon="5.88315">
        <ele>344.9</ele>
        <time>2016-03-20T09:24:23Z</time>
      </trkpt>
      <trkpt lat="43.51601" lon="5.88325">
        <ele>343.8</ele>
        <time>2016-03-20T09:24:31Z</time>
      </trkpt>
      <trkpt lat="43.51602" lon="5.88326">
        <ele>344.1</ele>
        <time>2016-03-20T09:24:32Z</time>
      </trkpt>
      <trkpt lat="43.5161" lon="5.88345">
        <ele>344.8</ele>
        <time>2016-03-20T09:24:46Z</time>
      </trkpt>
      <trkpt lat="43.51616" lon="5.88351">
        <ele>345.3</ele>
        <time>2016-03-20T09:24:52Z</time>
      </trkpt>
      <trkpt lat="43.51623" lon="5.88357">
        <ele>345.5</ele>
        <time>2016-03-20T09:25:01Z</time>
      </trkpt>
      <trkpt lat="43.5163" lon="5.88355">
        <ele>345.5</ele>
        <time>2016-03-20T09:25:07Z</time>
      </trkpt>
      <trkpt lat="43.51637" lon="5.8835">
        <ele>345.6</ele>
        <time>2016-03-20T09:25:13Z</time>
      </trkpt>
      <trkpt lat="43.51644" lon="5.88345">
        <ele>345.9</ele>
        <time>2016-03-20T09:25:18Z</time>
      </trkpt>
      <trkpt lat="43.5165" lon="5.88339">
        <ele>345.6</ele>
        <time>2016-03-20T09:25:23Z</time>
      </trkpt>
      <trkpt lat="43.51656" lon="5.8833">
        <ele>346.3</ele>
        <time>2016-03-20T09:25:29Z</time>
      </trkpt>
      <trkpt lat="43.51661" lon="5.88321">
        <ele>345.9</ele>
        <time>2016-03-20T09:25:35Z</time>
      </trkpt>
      <trkpt lat="43.51661" lon="5.88319">
        <ele>346.1</ele>
        <time>2016-03-20T09:25:36Z</time>
      </trkpt>
      <trkpt lat="43.5167" lon="5.88303">
        <ele>347.7</ele>
        <time>2016-03-20T09:25:48Z</time>
      </trkpt>
      <trkpt lat="43.51675" lon="5.88293">
        <ele>348.1</ele>
        <time>2016-03-20T09:25:56Z</time>
      </trkpt>
      <trkpt lat="43.5168" lon="5.88284">
        <ele>348.6</ele>
        <time>2016-03-20T09:26:04Z</time>
      </trkpt>
      <trkpt lat="43.51685" lon="5.88278">
        <ele>348.7</ele>
        <time>2016-03-20T09:26:10Z</time>
      </trkpt>
      <trkpt lat="43.51691" lon="5.8827">
        <ele>349.3</ele>
        <time>2016-03-20T09:26:19Z</time>
      </trkpt>
      <trkpt lat="43.51699" lon="5.88266">
        <ele>348.7</ele>
        <time>2016-03-20T09:26:26Z</time>
      </trkpt>
      <trkpt lat="43.51707" lon="5.88266">
        <ele>348.8</ele>
        <time>2016-03-20T09:26:36Z</time>
      </trkpt>
      <trkpt lat="43.51709" lon="5.88266">
        <ele>349</ele>
        <time>2016-03-20T09:26:37Z</time>
      </trkpt>
      <trkpt lat="43.51722" lon="5.88275">
        <ele>349.7</ele>
        <time>2016-03-20T09:26:50Z</time>
      </trkpt>
      <trkpt lat="43.5173" lon="5.88281">
        <ele>350.5</ele>
        <time>2016-03-20T09:26:57Z</time>
      </trkpt>
      <trkpt lat="43.51735" lon="5.88289">
        <ele>350.4</ele>
        <time>2016-03-20T09:27:05Z</time>
      </trkpt>
      <trkpt lat="43.51741" lon="5.88298">
        <ele>350.9</ele>
        <time>2016-03-20T09:27:13Z</time>
      </trkpt>
      <trkpt lat="43.51746" lon="5.88306">
        <ele>350.7</ele>
        <time>2016-03-20T09:27:19Z</time>
      </trkpt>
      <trkpt lat="43.51755" lon="5.88308">
        <ele>350.7</ele>
        <time>2016-03-20T09:27:27Z</time>
      </trkpt>
      <trkpt lat="43.51763" lon="5.88304">
        <ele>351.2</ele>
        <time>2016-03-20T09:27:34Z</time>
      </trkpt>
      <trkpt lat="43.51768" lon="5.88297">
        <ele>351.9</ele>
        <time>2016-03-20T09:27:40Z</time>
      </trkpt>
      <trkpt lat="43.5177" lon="5.88296">
        <ele>351.7</ele>
        <time>2016-03-20T09:27:41Z</time>
      </trkpt>
      <trkpt lat="43.5178" lon="5.88281">
        <ele>351.7</ele>
        <time>2016-03-20T09:27:53Z</time>
      </trkpt>
      <trkpt lat="43.51786" lon="5.88273">
        <ele>351.6</ele>
        <time>2016-03-20T09:27:59Z</time>
      </trkpt>
      <trkpt lat="43.51792" lon="5.88264">
        <ele>351.8</ele>
        <time>2016-03-20T09:28:06Z</time>
      </trkpt>
      <trkpt lat="43.51802" lon="5.88255">
        <ele>352</ele>
        <time>2016-03-20T09:28:13Z</time>
      </trkpt>
      <trkpt lat="43.51809" lon="5.88248">
        <ele>352.7</ele>
        <time>2016-03-20T09:28:20Z</time>
      </trkpt>
      <trkpt lat="43.51816" lon="5.8824">
        <ele>352.4</ele>
        <time>2016-03-20T09:28:29Z</time>
      </trkpt>
      <trkpt lat="43.51822" lon="5.88233">
        <ele>352.3</ele>
        <time>2016-03-20T09:28:36Z</time>
      </trkpt>
      <trkpt lat="43.51828" lon="5.88224">
        <ele>353.1</ele>
        <time>2016-03-20T09:28:45Z</time>
      </trkpt>
      <trkpt lat="43.51828" lon="5.88223">
        <ele>353</ele>
        <time>2016-03-20T09:28:46Z</time>
      </trkpt>
      <trkpt lat="43.51842" lon="5.88211">
        <ele>353.7</ele>
        <time>2016-03-20T09:29:00Z</time>
      </trkpt>
      <trkpt lat="43.5185" lon="5.88207">
        <ele>353.8</ele>
        <time>2016-03-20T09:29:09Z</time>
      </trkpt>
      <trkpt lat="43.51857" lon="5.88206">
        <ele>354</ele>
        <time>2016-03-20T09:29:16Z</time>
      </trkpt>
      <trkpt lat="43.51866" lon="5.88204">
        <ele>355</ele>
        <time>2016-03-20T09:29:24Z</time>
      </trkpt>
      <trkpt lat="43.51874" lon="5.88205">
        <ele>354.8</ele>
        <time>2016-03-20T09:29:31Z</time>
      </trkpt>
      <trkpt lat="43.51883" lon="5.88204">
        <ele>355.6</ele>
        <time>2016-03-20T09:29:38Z</time>
      </trkpt>
      <trkpt lat="43.51891" lon="5.88205">
        <ele>356.1</ele>
        <time>2016-03-20T09:29:47Z</time>
      </trkpt>
      <trkpt lat="43.51892" lon="5.88204">
        <ele>356</ele>
        <time>2016-03-20T09:29:48Z</time>
      </trkpt>
      <trkpt lat="43.51908" lon="5.88202">
        <ele>357</ele>
        <time>2016-03-20T09:30:04Z</time>
      </trkpt>
      <trkpt lat="43.51916" lon="5.882">
        <ele>356.9</ele>
        <time>2016-03-20T09:30:13Z</time>
      </trkpt>
      <trkpt lat="43.51924" lon="5.88197">
        <ele>357.8</ele>
        <time>2016-03-20T09:30:19Z</time>
      </trkpt>
      <trkpt lat="43.51932" lon="5.88194">
        <ele>358.8</ele>
        <time>2016-03-20T09:30:26Z</time>
      </trkpt>
      <trkpt lat="43.51941" lon="5.88192">
        <ele>359</ele>
        <time>2016-03-20T09:30:33Z</time>
      </trkpt>
      <trkpt lat="43.51948" lon="5.88193">
        <ele>359.3</ele>
        <time>2016-03-20T09:30:38Z</time>
      </trkpt>
      <trkpt lat="43.51957" lon="5.88196">
        <ele>360.1</ele>
        <time>2016-03-20T09:30:46Z</time>
      </trkpt>
      <trkpt lat="43.51965" lon="5.88201">
        <ele>359.9</ele>
        <time>2016-03-20T09:30:53Z</time>
      </trkpt>
      <trkpt lat="43.51966" lon="5.88203">
        <ele>360.1</ele>
        <time>2016-03-20T09:30:54Z</time>
      </trkpt>
      <trkpt lat="43.51975" lon="5.88219">
        <ele>360.8</ele>
        <time>2016-03-20T09:31:05Z</time>
      </trkpt>
      <trkpt lat="43.51983" lon="5.88222">
        <ele>360.8</ele>
        <time>2016-03-20T09:31:11Z</time>
      </trkpt>
      <trkpt lat="43.51988" lon="5.88231">
        <ele>360.4</ele>
        <time>2016-03-20T09:31:16Z</time>
      </trkpt>
      <trkpt lat="43.51995" lon="5.88235">
        <ele>360.4</ele>
        <time>2016-03-20T09:31:25Z</time>
      </trkpt>
      <trkpt lat="43.52002" lon="5.88228">
        <ele>360.7</ele>
        <time>2016-03-20T09:31:49Z</time>
      </trkpt>
      <trkpt lat="43.52011" lon="5.88229">
        <ele>361.1</ele>
        <time>2016-03-20T09:32:20Z</time>
      </trkpt>
      <trkpt lat="43.52012" lon="5.88229">
        <ele>361</ele>
        <time>2016-03-20T09:32:21Z</time>
      </trkpt>
      <trkpt lat="43.52002" lon="5.88225">
        <ele>361.5</ele>
        <time>2016-03-20T09:33:24Z</time>
      </trkpt>
      <trkpt lat="43.52003" lon="5.88225">
        <ele>361.1</ele>
        <time>2016-03-20T09:34:36Z</time>
      </trkpt>
      <trkpt lat="43.52005" lon="5.88225">
        <ele>361</ele>
        <time>2016-03-20T09:34:37Z</time>
      </trkpt>
      <trkpt lat="43.52021" lon="5.88227">
        <ele>361.4</ele>
        <time>2016-03-20T09:34:51Z</time>
      </trkpt>
      <trkpt lat="43.52029" lon="5.88226">
        <ele>361.6</ele>
        <time>2016-03-20T09:34:58Z</time>
      </trkpt>
      <trkpt lat="43.52037" lon="5.88225">
        <ele>362.1</ele>
        <time>2016-03-20T09:35:07Z</time>
      </trkpt>
      <trkpt lat="43.52045" lon="5.88222">
        <ele>362.4</ele>
        <time>2016-03-20T09:35:16Z</time>
      </trkpt>
      <trkpt lat="43.52053" lon="5.88217">
        <ele>362.2</ele>
        <time>2016-03-20T09:35:22Z</time>
      </trkpt>
      <trkpt lat="43.52061" lon="5.88212">
        <ele>362.2</ele>
        <time>2016-03-20T09:35:28Z</time>
      </trkpt>
      <trkpt lat="43.52068" lon="5.88208">
        <ele>362.3</ele>
        <time>2016-03-20T09:35:33Z</time>
      </trkpt>
      <trkpt lat="43.52075" lon="5.88201">
        <ele>362.5</ele>
        <time>2016-03-20T09:35:40Z</time>
      </trkpt>
      <trkpt lat="43.52075" lon="5.882">
        <ele>362.6</ele>
        <time>2016-03-20T09:35:41Z</time>
      </trkpt>
      <trkpt lat="43.52089" lon="5.88191">
        <ele>362.8</ele>
        <time>2016-03-20T09:35:52Z</time>
      </trkpt>
      <trkpt lat="43.52097" lon="5.88186">
        <ele>363</ele>
        <time>2016-03-20T09:35:57Z</time>
      </trkpt>
      <trkpt lat="43.52104" lon="5.88183">
        <ele>363.4</ele>
        <time>2016-03-20T09:36:02Z</time>
      </trkpt>
      <trkpt lat="43.52111" lon="5.88177">
        <ele>363.2</ele>
        <time>2016-03-20T09:36:08Z</time>
      </trkpt>
      <trkpt lat="43.52118" lon="5.8817">
        <ele>363.5</ele>
        <time>2016-03-20T09:36:21Z</time>
      </trkpt>
      <trkpt lat="43.52125" lon="5.88164">
        <ele>363.6</ele>
        <time>2016-03-20T09:36:31Z</time>
      </trkpt>
      <trkpt lat="43.52133" lon="5.8816">
        <ele>364.2</ele>
        <time>2016-03-20T09:36:36Z</time>
      </trkpt>
      <trkpt lat="43.52141" lon="5.88158">
        <ele>364.1</ele>
        <time>2016-03-20T09:36:41Z</time>
      </trkpt>
      <trkpt lat="43.52142" lon="5.88158">
        <ele>364.3</ele>
        <time>2016-03-20T09:36:42Z</time>
      </trkpt>
      <trkpt lat="43.52155" lon="5.88168">
        <ele>364.5</ele>
        <time>2016-03-20T09:36:56Z</time>
      </trkpt>
      <trkpt lat="43.52162" lon="5.88176">
        <ele>364.8</ele>
        <time>2016-03-20T09:37:03Z</time>
      </trkpt>
      <trkpt lat="43.52168" lon="5.88184">
        <ele>365.2</ele>
        <time>2016-03-20T09:37:12Z</time>
      </trkpt>
      <trkpt lat="43.52176" lon="5.88185">
        <ele>365.4</ele>
        <time>2016-03-20T09:37:20Z</time>
      </trkpt>
      <trkpt lat="43.52184" lon="5.88182">
        <ele>366.3</ele>
        <time>2016-03-20T09:37:27Z</time>
      </trkpt>
      <trkpt lat="43.52192" lon="5.88178">
        <ele>365.9</ele>
        <time>2016-03-20T09:37:34Z</time>
      </trkpt>
      <trkpt lat="43.522" lon="5.88174">
        <ele>366.3</ele>
        <time>2016-03-20T09:37:39Z</time>
      </trkpt>
      <trkpt lat="43.52207" lon="5.88168">
        <ele>366.5</ele>
        <time>2016-03-20T09:37:43Z</time>
      </trkpt>
      <trkpt lat="43.52208" lon="5.88166">
        <ele>366.4</ele>
        <time>2016-03-20T09:37:44Z</time>
      </trkpt>
      <trkpt lat="43.5222" lon="5.88153">
        <ele>367.3</ele>
        <time>2016-03-20T09:37:55Z</time>
      </trkpt>
      <trkpt lat="43.52225" lon="5.88144">
        <ele>367.6</ele>
        <time>2016-03-20T09:38:01Z</time>
      </trkpt>
      <trkpt lat="43.52229" lon="5.88133">
        <ele>368.3</ele>
        <time>2016-03-20T09:38:07Z</time>
      </trkpt>
      <trkpt lat="43.52232" lon="5.88122">
        <ele>368.2</ele>
        <time>2016-03-20T09:38:14Z</time>
      </trkpt>
      <trkpt lat="43.52236" lon="5.88112">
        <ele>368.2</ele>
        <time>2016-03-20T09:38:21Z</time>
      </trkpt>
      <trkpt lat="43.52241" lon="5.88101">
        <ele>368.5</ele>
        <time>2016-03-20T09:38:29Z</time>
      </trkpt>
      <trkpt lat="43.52245" lon="5.88091">
        <ele>368.1</ele>
        <time>2016-03-20T09:38:35Z</time>
      </trkpt>
      <trkpt lat="43.5225" lon="5.88082">
        <ele>368.1</ele>
        <time>2016-03-20T09:38:41Z</time>
      </trkpt>
      <trkpt lat="43.52252" lon="5.88071">
        <ele>368</ele>
        <time>2016-03-20T09:38:49Z</time>
      </trkpt>
      <trkpt lat="43.52253" lon="5.88069">
        <ele>367.8</ele>
        <time>2016-03-20T09:38:50Z</time>
      </trkpt>
      <trkpt lat="43.5226" lon="5.88051">
        <ele>367.2</ele>
        <time>2016-03-20T09:39:02Z</time>
      </trkpt>
      <trkpt lat="43.52265" lon="5.88042">
        <ele>367.4</ele>
        <time>2016-03-20T09:39:08Z</time>
      </trkpt>
      <trkpt lat="43.52272" lon="5.88035">
        <ele>367.5</ele>
        <time>2016-03-20T09:39:15Z</time>
      </trkpt>
      <trkpt lat="43.52278" lon="5.88027">
        <ele>367.8</ele>
        <time>2016-03-20T09:39:24Z</time>
      </trkpt>
      <trkpt lat="43.52286" lon="5.88023">
        <ele>368.4</ele>
        <time>2016-03-20T09:39:33Z</time>
      </trkpt>
      <trkpt lat="43.52294" lon="5.8802">
        <ele>368.6</ele>
        <time>2016-03-20T09:39:43Z</time>
      </trkpt>
      <trkpt lat="43.52302" lon="5.88019">
        <ele>369</ele>
        <time>2016-03-20T09:39:50Z</time>
      </trkpt>
      <trkpt lat="43.52304" lon="5.88019">
        <ele>368.7</ele>
        <time>2016-03-20T09:39:51Z</time>
      </trkpt>
      <trkpt lat="43.52319" lon="5.88019">
        <ele>369.3</ele>
        <time>2016-03-20T09:40:06Z</time>
      </trkpt>
      <trkpt lat="43.52326" lon="5.88023">
        <ele>369.8</ele>
        <time>2016-03-20T09:40:13Z</time>
      </trkpt>
      <trkpt lat="43.52332" lon="5.88032">
        <ele>370.7</ele>
        <time>2016-03-20T09:40:23Z</time>
      </trkpt>
      <trkpt lat="43.52339" lon="5.88037">
        <ele>370.7</ele>
        <time>2016-03-20T09:40:30Z</time>
      </trkpt>
      <trkpt lat="43.52345" lon="5.88046">
        <ele>371.3</ele>
        <time>2016-03-20T09:40:39Z</time>
      </trkpt>
      <trkpt lat="43.52353" lon="5.88046">
        <ele>371.7</ele>
        <time>2016-03-20T09:40:44Z</time>
      </trkpt>
      <trkpt lat="43.52361" lon="5.88048">
        <ele>372.7</ele>
        <time>2016-03-20T09:40:49Z</time>
      </trkpt>
      <trkpt lat="43.52369" lon="5.88052">
        <ele>372.2</ele>
        <time>2016-03-20T09:40:58Z</time>
      </trkpt>
      <trkpt lat="43.5237" lon="5.88053">
        <ele>372.3</ele>
        <time>2016-03-20T09:40:59Z</time>
      </trkpt>
      <trkpt lat="43.52385" lon="5.88052">
        <ele>373.7</ele>
        <time>2016-03-20T09:41:11Z</time>
      </trkpt>
      <trkpt lat="43.52393" lon="5.88049">
        <ele>373.4</ele>
        <time>2016-03-20T09:41:19Z</time>
      </trkpt>
      <trkpt lat="43.52399" lon="5.88045">
        <ele>373.7</ele>
        <time>2016-03-20T09:41:22Z</time>
      </trkpt>
      <trkpt lat="43.52406" lon="5.88038">
        <ele>373.9</ele>
        <time>2016-03-20T09:41:28Z</time>
      </trkpt>
      <trkpt lat="43.52409" lon="5.88029">
        <ele>374.5</ele>
        <time>2016-03-20T09:41:33Z</time>
      </trkpt>
      <trkpt lat="43.52414" lon="5.88019">
        <ele>374.7</ele>
        <time>2016-03-20T09:41:39Z</time>
      </trkpt>
      <trkpt lat="43.52415" lon="5.88007">
        <ele>375.2</ele>
        <time>2016-03-20T09:41:46Z</time>
      </trkpt>
      <trkpt lat="43.52414" lon="5.87995">
        <ele>374.5</ele>
        <time>2016-03-20T09:41:54Z</time>
      </trkpt>
      <trkpt lat="43.52415" lon="5.87983">
        <ele>375</ele>
        <time>2016-03-20T09:42:02Z</time>
      </trkpt>
      <trkpt lat="43.52414" lon="5.87981">
        <ele>375.2</ele>
        <time>2016-03-20T09:42:03Z</time>
      </trkpt>
      <trkpt lat="43.52411" lon="5.87961">
        <ele>375.6</ele>
        <time>2016-03-20T09:42:17Z</time>
      </trkpt>
      <trkpt lat="43.52414" lon="5.87951">
        <ele>375.9</ele>
        <time>2016-03-20T09:42:24Z</time>
      </trkpt>
      <trkpt lat="43.52415" lon="5.87939">
        <ele>376.3</ele>
        <time>2016-03-20T09:42:32Z</time>
      </trkpt>
      <trkpt lat="43.52419" lon="5.87928">
        <ele>376.1</ele>
        <time>2016-03-20T09:42:39Z</time>
      </trkpt>
      <trkpt lat="43.52429" lon="5.87917">
        <ele>376</ele>
        <time>2016-03-20T09:42:47Z</time>
      </trkpt>
      <trkpt lat="43.52435" lon="5.87907">
        <ele>376</ele>
        <time>2016-03-20T09:42:59Z</time>
      </trkpt>
      <trkpt lat="43.52445" lon="5.87908">
        <ele>376.9</ele>
        <time>2016-03-20T09:43:09Z</time>
      </trkpt>
      <trkpt lat="43.52446" lon="5.87909">
        <ele>377.1</ele>
        <time>2016-03-20T09:43:10Z</time>
      </trkpt>
      <trkpt lat="43.5246" lon="5.87911">
        <ele>377.4</ele>
        <time>2016-03-20T09:43:23Z</time>
      </trkpt>
      <trkpt lat="43.52468" lon="5.87911">
        <ele>377.9</ele>
        <time>2016-03-20T09:43:30Z</time>
      </trkpt>
      <trkpt lat="43.52474" lon="5.8792">
        <ele>378.9</ele>
        <time>2016-03-20T09:43:39Z</time>
      </trkpt>
      <trkpt lat="43.52479" lon="5.87929">
        <ele>378.8</ele>
        <time>2016-03-20T09:43:47Z</time>
      </trkpt>
      <trkpt lat="43.52487" lon="5.87933">
        <ele>378.4</ele>
        <time>2016-03-20T09:43:53Z</time>
      </trkpt>
      <trkpt lat="43.52492" lon="5.87941">
        <ele>379.1</ele>
        <time>2016-03-20T09:44:01Z</time>
      </trkpt>
      <trkpt lat="43.52498" lon="5.87947">
        <ele>379.4</ele>
        <time>2016-03-20T09:44:07Z</time>
      </trkpt>
      <trkpt lat="43.52506" lon="5.8795">
        <ele>379.2</ele>
        <time>2016-03-20T09:44:13Z</time>
      </trkpt>
      <trkpt lat="43.52507" lon="5.8795">
        <ele>379.5</ele>
        <time>2016-03-20T09:44:14Z</time>
      </trkpt>
      <trkpt lat="43.52519" lon="5.87935">
        <ele>379.4</ele>
        <time>2016-03-20T09:48:18Z</time>
      </trkpt>
      <trkpt lat="43.5252" lon="5.87935">
        <ele>379.3</ele>
        <time>2016-03-20T09:48:19Z</time>
      </trkpt>
      <trkpt lat="43.52522" lon="5.87944">
        <ele>379.1</ele>
        <time>2016-03-20T09:49:52Z</time>
      </trkpt>
      <trkpt lat="43.52523" lon="5.87944">
        <ele>379.2</ele>
        <time>2016-03-20T09:49:53Z</time>
      </trkpt>
      <trkpt lat="43.52537" lon="5.87935">
        <ele>379.2</ele>
        <time>2016-03-20T09:50:08Z</time>
      </trkpt>
      <trkpt lat="43.52542" lon="5.87928">
        <ele>379.5</ele>
        <time>2016-03-20T09:50:13Z</time>
      </trkpt>
      <trkpt lat="43.52548" lon="5.87919">
        <ele>379.9</ele>
        <time>2016-03-20T09:50:20Z</time>
      </trkpt>
      <trkpt lat="43.52555" lon="5.87914">
        <ele>380</ele>
        <time>2016-03-20T09:50:24Z</time>
      </trkpt>
      <trkpt lat="43.52559" lon="5.87904">
        <ele>380</ele>
        <time>2016-03-20T09:50:31Z</time>
      </trkpt>
      <trkpt lat="43.52565" lon="5.87896">
        <ele>380.8</ele>
        <time>2016-03-20T09:50:36Z</time>
      </trkpt>
      <trkpt lat="43.52568" lon="5.87886">
        <ele>381.6</ele>
        <time>2016-03-20T09:50:43Z</time>
      </trkpt>
      <trkpt lat="43.52571" lon="5.87876">
        <ele>382.5</ele>
        <time>2016-03-20T09:50:51Z</time>
      </trkpt>
      <trkpt lat="43.52576" lon="5.87865">
        <ele>383.5</ele>
        <time>2016-03-20T09:50:57Z</time>
      </trkpt>
      <trkpt lat="43.52576" lon="5.87864">
        <ele>383.4</ele>
        <time>2016-03-20T09:50:58Z</time>
      </trkpt>
      <trkpt lat="43.52567" lon="5.87848">
        <ele>382.9</ele>
        <time>2016-03-20T09:51:09Z</time>
      </trkpt>
      <trkpt lat="43.52561" lon="5.87839">
        <ele>382.5</ele>
        <time>2016-03-20T09:51:14Z</time>
      </trkpt>
      <trkpt lat="43.52558" lon="5.87828">
        <ele>383.4</ele>
        <time>2016-03-20T09:51:21Z</time>
      </trkpt>
      <trkpt lat="43.52559" lon="5.87816">
        <ele>383.4</ele>
        <time>2016-03-20T09:51:30Z</time>
      </trkpt>
      <trkpt lat="43.5256" lon="5.87803">
        <ele>384.3</ele>
        <time>2016-03-20T09:51:38Z</time>
      </trkpt>
      <trkpt lat="43.5256" lon="5.87791">
        <ele>384.9</ele>
        <time>2016-03-20T09:51:46Z</time>
      </trkpt>
      <trkpt lat="43.52565" lon="5.8778">
        <ele>385.3</ele>
        <time>2016-03-20T09:51:54Z</time>
      </trkpt>
      <trkpt lat="43.52571" lon="5.87772">
        <ele>385.2</ele>
        <time>2016-03-20T09:52:00Z</time>
      </trkpt>
      <trkpt lat="43.52572" lon="5.8777">
        <ele>385.5</ele>
        <time>2016-03-20T09:52:01Z</time>
      </trkpt>
      <trkpt lat="43.52572" lon="5.87749">
        <ele>385.9</ele>
        <time>2016-03-20T09:52:13Z</time>
      </trkpt>
      <trkpt lat="43.52567" lon="5.87739">
        <ele>386.2</ele>
        <time>2016-03-20T09:52:20Z</time>
      </trkpt>
      <trkpt lat="43.52568" lon="5.87727">
        <ele>386.2</ele>
        <time>2016-03-20T09:52:27Z</time>
      </trkpt>
      <trkpt lat="43.52569" lon="5.87715">
        <ele>386.3</ele>
        <time>2016-03-20T09:52:34Z</time>
      </trkpt>
      <trkpt lat="43.52564" lon="5.87705">
        <ele>387.2</ele>
        <time>2016-03-20T09:52:42Z</time>
      </trkpt>
      <trkpt lat="43.52559" lon="5.87695">
        <ele>387.4</ele>
        <time>2016-03-20T09:52:48Z</time>
      </trkpt>
      <trkpt lat="43.52554" lon="5.87686">
        <ele>387.8</ele>
        <time>2016-03-20T09:52:55Z</time>
      </trkpt>
      <trkpt lat="43.52552" lon="5.87674">
        <ele>387.3</ele>
        <time>2016-03-20T09:53:04Z</time>
      </trkpt>
      <trkpt lat="43.52553" lon="5.87673">
        <ele>387.3</ele>
        <time>2016-03-20T09:53:05Z</time>
      </trkpt>
      <trkpt lat="43.52547" lon="5.87652">
        <ele>388</ele>
        <time>2016-03-20T09:53:18Z</time>
      </trkpt>
      <trkpt lat="43.5255" lon="5.87641">
        <ele>388.6</ele>
        <time>2016-03-20T09:53:25Z</time>
      </trkpt>
      <trkpt lat="43.52548" lon="5.8763">
        <ele>388.9</ele>
        <time>2016-03-20T09:53:31Z</time>
      </trkpt>
      <trkpt lat="43.52548" lon="5.87618">
        <ele>388.6</ele>
        <time>2016-03-20T09:53:38Z</time>
      </trkpt>
      <trkpt lat="43.52545" lon="5.87607">
        <ele>389</ele>
        <time>2016-03-20T09:53:47Z</time>
      </trkpt>
      <trkpt lat="43.52541" lon="5.876">
        <ele>389.7</ele>
        <time>2016-03-20T09:53:51Z</time>
      </trkpt>
      <trkpt lat="43.52536" lon="5.8759">
        <ele>389.8</ele>
        <time>2016-03-20T09:53:57Z</time>
      </trkpt>
      <trkpt lat="43.52535" lon="5.87579">
        <ele>391.2</ele>
        <time>2016-03-20T09:54:05Z</time>
      </trkpt>
      <trkpt lat="43.52534" lon="5.87577">
        <ele>391.4</ele>
        <time>2016-03-20T09:54:06Z</time>
      </trkpt>
      <trkpt lat="43.52538" lon="5.87557">
        <ele>391.5</ele>
        <time>2016-03-20T09:54:22Z</time>
      </trkpt>
      <trkpt lat="43.52542" lon="5.87548">
        <ele>391.4</ele>
        <time>2016-03-20T09:54:28Z</time>
      </trkpt>
      <trkpt lat="43.52549" lon="5.8754">
        <ele>392.4</ele>
        <time>2016-03-20T09:54:34Z</time>
      </trkpt>
      <trkpt lat="43.52555" lon="5.87533">
        <ele>392.4</ele>
        <time>2016-03-20T09:54:42Z</time>
      </trkpt>
      <trkpt lat="43.52562" lon="5.87527">
        <ele>392.7</ele>
        <time>2016-03-20T09:54:47Z</time>
      </trkpt>
      <trkpt lat="43.52569" lon="5.87521">
        <ele>392.9</ele>
        <time>2016-03-20T09:54:51Z</time>
      </trkpt>
      <trkpt lat="43.52574" lon="5.87512">
        <ele>392.7</ele>
        <time>2016-03-20T09:55:00Z</time>
      </trkpt>
      <trkpt lat="43.5258" lon="5.87505">
        <ele>393.4</ele>
        <time>2016-03-20T09:55:06Z</time>
      </trkpt>
      <trkpt lat="43.52582" lon="5.87504">
        <ele>393.4</ele>
        <time>2016-03-20T09:55:07Z</time>
      </trkpt>
      <trkpt lat="43.52594" lon="5.87492">
        <ele>394.2</ele>
        <time>2016-03-20T09:55:19Z</time>
      </trkpt>
      <trkpt lat="43.52599" lon="5.8748">
        <ele>395.4</ele>
        <time>2016-03-20T09:55:30Z</time>
      </trkpt>
      <trkpt lat="43.52605" lon="5.87475">
        <ele>395.6</ele>
        <time>2016-03-20T09:55:36Z</time>
      </trkpt>
      <trkpt lat="43.52614" lon="5.87471">
        <ele>395.3</ele>
        <time>2016-03-20T09:55:43Z</time>
      </trkpt>
      <trkpt lat="43.52622" lon="5.8747">
        <ele>396.1</ele>
        <time>2016-03-20T09:55:54Z</time>
      </trkpt>
      <trkpt lat="43.5263" lon="5.87466">
        <ele>395.5</ele>
        <time>2016-03-20T09:56:08Z</time>
      </trkpt>
      <trkpt lat="43.52632" lon="5.87465">
        <ele>395.6</ele>
        <time>2016-03-20T09:56:09Z</time>
      </trkpt>
      <trkpt lat="43.52646" lon="5.87456">
        <ele>396</ele>
        <time>2016-03-20T09:56:20Z</time>
      </trkpt>
      <trkpt lat="43.52651" lon="5.87449">
        <ele>396</ele>
        <time>2016-03-20T09:56:25Z</time>
      </trkpt>
      <trkpt lat="43.52653" lon="5.87438">
        <ele>397.2</ele>
        <time>2016-03-20T09:56:32Z</time>
      </trkpt>
      <trkpt lat="43.5265" lon="5.87427">
        <ele>396.6</ele>
        <time>2016-03-20T09:56:41Z</time>
      </trkpt>
      <trkpt lat="43.52643" lon="5.8742">
        <ele>396.9</ele>
        <time>2016-03-20T09:56:47Z</time>
      </trkpt>
      <trkpt lat="43.52637" lon="5.87412">
        <ele>397.8</ele>
        <time>2016-03-20T09:56:54Z</time>
      </trkpt>
      <trkpt lat="43.52632" lon="5.87403">
        <ele>398.3</ele>
        <time>2016-03-20T09:57:02Z</time>
      </trkpt>
      <trkpt lat="43.52633" lon="5.87391">
        <ele>397.9</ele>
        <time>2016-03-20T09:57:12Z</time>
      </trkpt>
      <trkpt lat="43.52633" lon="5.87389">
        <ele>397.8</ele>
        <time>2016-03-20T09:57:13Z</time>
      </trkpt>
      <trkpt lat="43.52637" lon="5.87368">
        <ele>398.9</ele>
        <time>2016-03-20T09:57:28Z</time>
      </trkpt>
      <trkpt lat="43.52639" lon="5.87356">
        <ele>399.6</ele>
        <time>2016-03-20T09:57:38Z</time>
      </trkpt>
      <trkpt lat="43.52648" lon="5.87351">
        <ele>399.2</ele>
        <time>2016-03-20T09:57:43Z</time>
      </trkpt>
      <trkpt lat="43.52652" lon="5.87343">
        <ele>399.6</ele>
        <time>2016-03-20T09:57:50Z</time>
      </trkpt>
      <trkpt lat="43.52659" lon="5.87337">
        <ele>399.8</ele>
        <time>2016-03-20T09:57:57Z</time>
      </trkpt>
      <trkpt lat="43.52663" lon="5.87327">
        <ele>399.7</ele>
        <time>2016-03-20T09:58:04Z</time>
      </trkpt>
      <trkpt lat="43.52668" lon="5.87318">
        <ele>400</ele>
        <time>2016-03-20T09:58:11Z</time>
      </trkpt>
      <trkpt lat="43.52672" lon="5.87308">
        <ele>400.8</ele>
        <time>2016-03-20T09:58:22Z</time>
      </trkpt>
      <trkpt lat="43.52673" lon="5.87308">
        <ele>400.9</ele>
        <time>2016-03-20T09:58:23Z</time>
      </trkpt>
      <trkpt lat="43.52686" lon="5.87297">
        <ele>401.6</ele>
        <time>2016-03-20T09:58:36Z</time>
      </trkpt>
      <trkpt lat="43.52692" lon="5.87289">
        <ele>401.9</ele>
        <time>2016-03-20T09:58:43Z</time>
      </trkpt>
      <trkpt lat="43.52698" lon="5.8728">
        <ele>401.9</ele>
        <time>2016-03-20T09:58:53Z</time>
      </trkpt>
      <trkpt lat="43.52704" lon="5.87273">
        <ele>401.9</ele>
        <time>2016-03-20T09:59:00Z</time>
      </trkpt>
      <trkpt lat="43.52711" lon="5.87264">
        <ele>402.9</ele>
        <time>2016-03-20T09:59:07Z</time>
      </trkpt>
      <trkpt lat="43.52716" lon="5.87255">
        <ele>403.2</ele>
        <time>2016-03-20T09:59:15Z</time>
      </trkpt>
      <trkpt lat="43.5272" lon="5.87245">
        <ele>403.8</ele>
        <time>2016-03-20T09:59:22Z</time>
      </trkpt>
      <trkpt lat="43.52722" lon="5.87234">
        <ele>403.5</ele>
        <time>2016-03-20T09:59:28Z</time>
      </trkpt>
      <trkpt lat="43.52723" lon="5.87232">
        <ele>403.7</ele>
        <time>2016-03-20T09:59:29Z</time>
      </trkpt>
      <trkpt lat="43.5272" lon="5.87213">
        <ele>403.9</ele>
        <time>2016-03-20T09:59:40Z</time>
      </trkpt>
      <trkpt lat="43.52717" lon="5.87202">
        <ele>404.3</ele>
        <time>2016-03-20T09:59:48Z</time>
      </trkpt>
      <trkpt lat="43.52714" lon="5.8719">
        <ele>404.5</ele>
        <time>2016-03-20T09:59:56Z</time>
      </trkpt>
      <trkpt lat="43.52712" lon="5.8718">
        <ele>404.3</ele>
        <time>2016-03-20T10:00:01Z</time>
      </trkpt>
      <trkpt lat="43.52714" lon="5.87168">
        <ele>404.7</ele>
        <time>2016-03-20T10:00:08Z</time>
      </trkpt>
      <trkpt lat="43.52712" lon="5.87157">
        <ele>405.3</ele>
        <time>2016-03-20T10:00:16Z</time>
      </trkpt>
      <trkpt lat="43.52711" lon="5.87145">
        <ele>405.9</ele>
        <time>2016-03-20T10:00:25Z</time>
      </trkpt>
      <trkpt lat="43.52708" lon="5.87135">
        <ele>405.8</ele>
        <time>2016-03-20T10:00:34Z</time>
      </trkpt>
      <trkpt lat="43.52707" lon="5.87133">
        <ele>405.7</ele>
        <time>2016-03-20T10:00:35Z</time>
      </trkpt>
      <trkpt lat="43.52713" lon="5.87111">
        <ele>406.3</ele>
        <time>2016-03-20T10:00:49Z</time>
      </trkpt>
      <trkpt lat="43.52717" lon="5.871">
        <ele>406.3</ele>
        <time>2016-03-20T10:00:56Z</time>
      </trkpt>
      <trkpt lat="43.52714" lon="5.87091">
        <ele>406.8</ele>
        <time>2016-03-20T10:01:02Z</time>
      </trkpt>
      <trkpt lat="43.52718" lon="5.8708">
        <ele>406.8</ele>
        <time>2016-03-20T10:01:11Z</time>
      </trkpt>
      <trkpt lat="43.52724" lon="5.87071">
        <ele>406.9</ele>
        <time>2016-03-20T10:01:18Z</time>
      </trkpt>
      <trkpt lat="43.52727" lon="5.8706">
        <ele>407.5</ele>
        <time>2016-03-20T10:01:29Z</time>
      </trkpt>
      <trkpt lat="43.52732" lon="5.87052">
        <ele>407.3</ele>
        <time>2016-03-20T10:01:35Z</time>
      </trkpt>
      <trkpt lat="43.52733" lon="5.87051">
        <ele>407.4</ele>
        <time>2016-03-20T10:01:36Z</time>
      </trkpt>
      <trkpt lat="43.52744" lon="5.87038">
        <ele>408.5</ele>
        <time>2016-03-20T10:01:48Z</time>
      </trkpt>
      <trkpt lat="43.52753" lon="5.87036">
        <ele>409</ele>
        <time>2016-03-20T10:01:57Z</time>
      </trkpt>
      <trkpt lat="43.52745" lon="5.87031">
        <ele>408.7</ele>
        <time>2016-03-20T10:03:21Z</time>
      </trkpt>
      <trkpt lat="43.52745" lon="5.8703">
        <ele>408.6</ele>
        <time>2016-03-20T10:03:22Z</time>
      </trkpt>
      <trkpt lat="43.52759" lon="5.87016">
        <ele>409</ele>
        <time>2016-03-20T10:04:05Z</time>
      </trkpt>
      <trkpt lat="43.52761" lon="5.87006">
        <ele>408.8</ele>
        <time>2016-03-20T10:04:12Z</time>
      </trkpt>
      <trkpt lat="43.52764" lon="5.86994">
        <ele>409</ele>
        <time>2016-03-20T10:04:20Z</time>
      </trkpt>
      <trkpt lat="43.52764" lon="5.86982">
        <ele>409.1</ele>
        <time>2016-03-20T10:04:27Z</time>
      </trkpt>
      <trkpt lat="43.52763" lon="5.8698">
        <ele>409.3</ele>
        <time>2016-03-20T10:04:28Z</time>
      </trkpt>
      <trkpt lat="43.52762" lon="5.86959">
        <ele>409.3</ele>
        <time>2016-03-20T10:04:42Z</time>
      </trkpt>
      <trkpt lat="43.5276" lon="5.86947">
        <ele>409.2</ele>
        <time>2016-03-20T10:04:49Z</time>
      </trkpt>
      <trkpt lat="43.52756" lon="5.86936">
        <ele>409.5</ele>
        <time>2016-03-20T10:04:57Z</time>
      </trkpt>
      <trkpt lat="43.52755" lon="5.86925">
        <ele>410.5</ele>
        <time>2016-03-20T10:05:05Z</time>
      </trkpt>
      <trkpt lat="43.5275" lon="5.86916">
        <ele>410.1</ele>
        <time>2016-03-20T10:05:12Z</time>
      </trkpt>
      <trkpt lat="43.52745" lon="5.86908">
        <ele>410.9</ele>
        <time>2016-03-20T10:05:18Z</time>
      </trkpt>
      <trkpt lat="43.52738" lon="5.869">
        <ele>411.5</ele>
        <time>2016-03-20T10:05:25Z</time>
      </trkpt>
      <trkpt lat="43.52734" lon="5.8689">
        <ele>412.3</ele>
        <time>2016-03-20T10:05:33Z</time>
      </trkpt>
      <trkpt lat="43.52734" lon="5.86888">
        <ele>412.1</ele>
        <time>2016-03-20T10:05:34Z</time>
      </trkpt>
      <trkpt lat="43.52738" lon="5.86867">
        <ele>411.9</ele>
        <time>2016-03-20T10:05:50Z</time>
      </trkpt>
      <trkpt lat="43.52738" lon="5.86856">
        <ele>413</ele>
        <time>2016-03-20T10:05:58Z</time>
      </trkpt>
      <trkpt lat="43.52743" lon="5.86847">
        <ele>412.4</ele>
        <time>2016-03-20T10:06:05Z</time>
      </trkpt>
      <trkpt lat="43.52746" lon="5.86836">
        <ele>413.6</ele>
        <time>2016-03-20T10:06:12Z</time>
      </trkpt>
      <trkpt lat="43.52749" lon="5.86825">
        <ele>413.7</ele>
        <time>2016-03-20T10:06:20Z</time>
      </trkpt>
      <trkpt lat="43.52755" lon="5.86811">
        <ele>413</ele>
        <time>2016-03-20T10:06:28Z</time>
      </trkpt>
      <trkpt lat="43.52758" lon="5.868">
        <ele>413.6</ele>
        <time>2016-03-20T10:06:36Z</time>
      </trkpt>
      <trkpt lat="43.52758" lon="5.86799">
        <ele>413.7</ele>
        <time>2016-03-20T10:06:37Z</time>
      </trkpt>
      <trkpt lat="43.52759" lon="5.86778">
        <ele>415.5</ele>
        <time>2016-03-20T10:06:54Z</time>
      </trkpt>
      <trkpt lat="43.52764" lon="5.86768">
        <ele>416.4</ele>
        <time>2016-03-20T10:07:04Z</time>
      </trkpt>
      <trkpt lat="43.52769" lon="5.86758">
        <ele>416</ele>
        <time>2016-03-20T10:07:12Z</time>
      </trkpt>
      <trkpt lat="43.52773" lon="5.86747">
        <ele>415.9</ele>
        <time>2016-03-20T10:07:20Z</time>
      </trkpt>
      <trkpt lat="43.52781" lon="5.8674">
        <ele>416.6</ele>
        <time>2016-03-20T10:07:27Z</time>
      </trkpt>
      <trkpt lat="43.52788" lon="5.86734">
        <ele>416.3</ele>
        <time>2016-03-20T10:07:34Z</time>
      </trkpt>
      <trkpt lat="43.52793" lon="5.86723">
        <ele>416.6</ele>
        <time>2016-03-20T10:07:42Z</time>
      </trkpt>
      <trkpt lat="43.52794" lon="5.86722">
        <ele>416.6</ele>
        <time>2016-03-20T10:07:43Z</time>
      </trkpt>
      <trkpt lat="43.52799" lon="5.86701">
        <ele>417.2</ele>
        <time>2016-03-20T10:08:05Z</time>
      </trkpt>
      <trkpt lat="43.52805" lon="5.86693">
        <ele>417.5</ele>
        <time>2016-03-20T10:08:13Z</time>
      </trkpt>
      <trkpt lat="43.52811" lon="5.86684">
        <ele>418.2</ele>
        <time>2016-03-20T10:08:23Z</time>
      </trkpt>
      <trkpt lat="43.52816" lon="5.86676">
        <ele>418.2</ele>
        <time>2016-03-20T10:08:31Z</time>
      </trkpt>
      <trkpt lat="43.52823" lon="5.86668">
        <ele>418.4</ele>
        <time>2016-03-20T10:08:38Z</time>
      </trkpt>
      <trkpt lat="43.5283" lon="5.86661">
        <ele>419.1</ele>
        <time>2016-03-20T10:08:46Z</time>
      </trkpt>
      <trkpt lat="43.52831" lon="5.86659">
        <ele>419.3</ele>
        <time>2016-03-20T10:08:47Z</time>
      </trkpt>
      <trkpt lat="43.52837" lon="5.86638">
        <ele>419.7</ele>
        <time>2016-03-20T10:09:01Z</time>
      </trkpt>
      <trkpt lat="43.52837" lon="5.86627">
        <ele>420.6</ele>
        <time>2016-03-20T10:09:09Z</time>
      </trkpt>
      <trkpt lat="43.52839" lon="5.86616">
        <ele>420.5</ele>
        <time>2016-03-20T10:09:19Z</time>
      </trkpt>
      <trkpt lat="43.52838" lon="5.86605">
        <ele>420.7</ele>
        <time>2016-03-20T10:09:26Z</time>
      </trkpt>
      <trkpt lat="43.52834" lon="5.86594">
        <ele>421.3</ele>
        <time>2016-03-20T10:09:33Z</time>
      </trkpt>
      <trkpt lat="43.5283" lon="5.86584">
        <ele>422.4</ele>
        <time>2016-03-20T10:09:41Z</time>
      </trkpt>
      <trkpt lat="43.52824" lon="5.8657">
        <ele>423</ele>
        <time>2016-03-20T10:09:51Z</time>
      </trkpt>
      <trkpt lat="43.52822" lon="5.86569">
        <ele>424.6</ele>
        <time>2016-03-20T10:09:53Z</time>
      </trkpt>
      <trkpt lat="43.52817" lon="5.8655">
        <ele>423.1</ele>
        <time>2016-03-20T10:10:05Z</time>
      </trkpt>
      <trkpt lat="43.52816" lon="5.86539">
        <ele>424.3</ele>
        <time>2016-03-20T10:10:12Z</time>
      </trkpt>
      <trkpt lat="43.52822" lon="5.86532">
        <ele>423.4</ele>
        <time>2016-03-20T10:10:16Z</time>
      </trkpt>
      <trkpt lat="43.52826" lon="5.86521">
        <ele>424.4</ele>
        <time>2016-03-20T10:10:23Z</time>
      </trkpt>
      <trkpt lat="43.52829" lon="5.86509">
        <ele>425.1</ele>
        <time>2016-03-20T10:10:34Z</time>
      </trkpt>
      <trkpt lat="43.52833" lon="5.865">
        <ele>426.1</ele>
        <time>2016-03-20T10:10:46Z</time>
      </trkpt>
      <trkpt lat="43.52838" lon="5.8649">
        <ele>426.9</ele>
        <time>2016-03-20T10:10:56Z</time>
      </trkpt>
      <trkpt lat="43.52839" lon="5.8649">
        <ele>426.9</ele>
        <time>2016-03-20T10:10:57Z</time>
      </trkpt>
      <trkpt lat="43.52849" lon="5.86473">
        <ele>428.1</ele>
        <time>2016-03-20T10:11:13Z</time>
      </trkpt>
      <trkpt lat="43.52856" lon="5.86469">
        <ele>428.6</ele>
        <time>2016-03-20T10:11:20Z</time>
      </trkpt>
      <trkpt lat="43.52863" lon="5.86464">
        <ele>428.9</ele>
        <time>2016-03-20T10:11:26Z</time>
      </trkpt>
      <trkpt lat="43.5287" lon="5.8646">
        <ele>428.7</ele>
        <time>2016-03-20T10:11:33Z</time>
      </trkpt>
      <trkpt lat="43.52877" lon="5.86453">
        <ele>429.7</ele>
        <time>2016-03-20T10:11:40Z</time>
      </trkpt>
      <trkpt lat="43.52884" lon="5.86446">
        <ele>430.7</ele>
        <time>2016-03-20T10:11:46Z</time>
      </trkpt>
      <trkpt lat="43.5289" lon="5.86439">
        <ele>430.1</ele>
        <time>2016-03-20T10:11:54Z</time>
      </trkpt>
      <trkpt lat="43.52897" lon="5.86431">
        <ele>430.9</ele>
        <time>2016-03-20T10:12:05Z</time>
      </trkpt>
      <trkpt lat="43.52897" lon="5.8643">
        <ele>431</ele>
        <time>2016-03-20T10:12:06Z</time>
      </trkpt>
      <trkpt lat="43.52907" lon="5.86413">
        <ele>431.3</ele>
        <time>2016-03-20T10:12:18Z</time>
      </trkpt>
      <trkpt lat="43.52912" lon="5.86404">
        <ele>431.2</ele>
        <time>2016-03-20T10:12:24Z</time>
      </trkpt>
      <trkpt lat="43.52918" lon="5.86396">
        <ele>431.4</ele>
        <time>2016-03-20T10:12:31Z</time>
      </trkpt>
      <trkpt lat="43.52924" lon="5.86387">
        <ele>432.1</ele>
        <time>2016-03-20T10:12:38Z</time>
      </trkpt>
      <trkpt lat="43.52932" lon="5.86383">
        <ele>432.1</ele>
        <time>2016-03-20T10:12:46Z</time>
      </trkpt>
      <trkpt lat="43.52938" lon="5.86375">
        <ele>432.6</ele>
        <time>2016-03-20T10:12:55Z</time>
      </trkpt>
      <trkpt lat="43.52945" lon="5.86371">
        <ele>432.9</ele>
        <time>2016-03-20T10:13:02Z</time>
      </trkpt>
      <trkpt lat="43.52952" lon="5.86365">
        <ele>433</ele>
        <time>2016-03-20T10:13:10Z</time>
      </trkpt>
      <trkpt lat="43.52953" lon="5.86364">
        <ele>433.1</ele>
        <time>2016-03-20T10:13:11Z</time>
      </trkpt>
      <trkpt lat="43.52966" lon="5.86355">
        <ele>433.2</ele>
        <time>2016-03-20T10:13:21Z</time>
      </trkpt>
      <trkpt lat="43.52972" lon="5.86346">
        <ele>433.5</ele>
        <time>2016-03-20T10:13:32Z</time>
      </trkpt>
      <trkpt lat="43.52976" lon="5.86337">
        <ele>433.6</ele>
        <time>2016-03-20T10:13:41Z</time>
      </trkpt>
      <trkpt lat="43.52983" lon="5.86329">
        <ele>434.4</ele>
        <time>2016-03-20T10:13:48Z</time>
      </trkpt>
      <trkpt lat="43.52986" lon="5.86318">
        <ele>434.5</ele>
        <time>2016-03-20T10:13:55Z</time>
      </trkpt>
      <trkpt lat="43.52988" lon="5.86306">
        <ele>435</ele>
        <time>2016-03-20T10:14:03Z</time>
      </trkpt>
      <trkpt lat="43.5299" lon="5.86295">
        <ele>435.2</ele>
        <time>2016-03-20T10:14:10Z</time>
      </trkpt>
      <trkpt lat="43.52992" lon="5.86284">
        <ele>435.7</ele>
        <time>2016-03-20T10:14:17Z</time>
      </trkpt>
      <trkpt lat="43.52993" lon="5.86282">
        <ele>435.8</ele>
        <time>2016-03-20T10:14:18Z</time>
      </trkpt>
      <trkpt lat="43.53" lon="5.86264">
        <ele>436.7</ele>
        <time>2016-03-20T10:14:29Z</time>
      </trkpt>
      <trkpt lat="43.52998" lon="5.86253">
        <ele>436.7</ele>
        <time>2016-03-20T10:14:38Z</time>
      </trkpt>
      <trkpt lat="43.52998" lon="5.86241">
        <ele>436.9</ele>
        <time>2016-03-20T10:14:46Z</time>
      </trkpt>
      <trkpt lat="43.53001" lon="5.8623">
        <ele>436.9</ele>
        <time>2016-03-20T10:14:52Z</time>
      </trkpt>
      <trkpt lat="43.52999" lon="5.86218">
        <ele>438</ele>
        <time>2016-03-20T10:15:00Z</time>
      </trkpt>
      <trkpt lat="43.53" lon="5.86207">
        <ele>437.8</ele>
        <time>2016-03-20T10:15:10Z</time>
      </trkpt>
      <trkpt lat="43.53006" lon="5.86199">
        <ele>438.9</ele>
        <time>2016-03-20T10:15:18Z</time>
      </trkpt>
      <trkpt lat="43.53006" lon="5.86198">
        <ele>438.9</ele>
        <time>2016-03-20T10:15:19Z</time>
      </trkpt>
      <trkpt lat="43.53022" lon="5.86189">
        <ele>440</ele>
        <time>2016-03-20T10:15:38Z</time>
      </trkpt>
      <trkpt lat="43.53029" lon="5.86183">
        <ele>441.6</ele>
        <time>2016-03-20T10:15:46Z</time>
      </trkpt>
      <trkpt lat="43.53036" lon="5.86178">
        <ele>441.5</ele>
        <time>2016-03-20T10:15:53Z</time>
      </trkpt>
      <trkpt lat="43.53044" lon="5.86173">
        <ele>442.2</ele>
        <time>2016-03-20T10:16:00Z</time>
      </trkpt>
      <trkpt lat="43.53052" lon="5.8617">
        <ele>442</ele>
        <time>2016-03-20T10:16:08Z</time>
      </trkpt>
      <trkpt lat="43.5306" lon="5.86164">
        <ele>442.9</ele>
        <time>2016-03-20T10:16:16Z</time>
      </trkpt>
      <trkpt lat="43.53066" lon="5.86155">
        <ele>443.7</ele>
        <time>2016-03-20T10:16:29Z</time>
      </trkpt>
      <trkpt lat="43.53067" lon="5.86154">
        <ele>443.8</ele>
        <time>2016-03-20T10:16:30Z</time>
      </trkpt>
      <trkpt lat="43.53079" lon="5.86139">
        <ele>444.8</ele>
        <time>2016-03-20T10:16:43Z</time>
      </trkpt>
      <trkpt lat="43.53083" lon="5.8613">
        <ele>444.6</ele>
        <time>2016-03-20T10:16:52Z</time>
      </trkpt>
      <trkpt lat="43.53089" lon="5.86123">
        <ele>445.3</ele>
        <time>2016-03-20T10:16:59Z</time>
      </trkpt>
      <trkpt lat="43.53093" lon="5.86113">
        <ele>445.4</ele>
        <time>2016-03-20T10:17:07Z</time>
      </trkpt>
      <trkpt lat="43.53099" lon="5.86105">
        <ele>446</ele>
        <time>2016-03-20T10:17:17Z</time>
      </trkpt>
      <trkpt lat="43.53106" lon="5.86098">
        <ele>445.6</ele>
        <time>2016-03-20T10:17:23Z</time>
      </trkpt>
      <trkpt lat="43.53111" lon="5.86091">
        <ele>446.9</ele>
        <time>2016-03-20T10:17:30Z</time>
      </trkpt>
      <trkpt lat="43.53112" lon="5.8609">
        <ele>447.1</ele>
        <time>2016-03-20T10:17:31Z</time>
      </trkpt>
      <trkpt lat="43.53126" lon="5.86083">
        <ele>447.6</ele>
        <time>2016-03-20T10:17:42Z</time>
      </trkpt>
      <trkpt lat="43.53134" lon="5.86085">
        <ele>447.9</ele>
        <time>2016-03-20T10:17:51Z</time>
      </trkpt>
      <trkpt lat="43.53142" lon="5.86083">
        <ele>447.6</ele>
        <time>2016-03-20T10:17:57Z</time>
      </trkpt>
      <trkpt lat="43.53149" lon="5.86081">
        <ele>447.7</ele>
        <time>2016-03-20T10:18:03Z</time>
      </trkpt>
      <trkpt lat="43.53155" lon="5.86074">
        <ele>447.5</ele>
        <time>2016-03-20T10:18:08Z</time>
      </trkpt>
      <trkpt lat="43.53162" lon="5.86065">
        <ele>447.6</ele>
        <time>2016-03-20T10:18:17Z</time>
      </trkpt>
      <trkpt lat="43.5317" lon="5.86062">
        <ele>447.6</ele>
        <time>2016-03-20T10:18:27Z</time>
      </trkpt>
      <trkpt lat="43.53178" lon="5.8606">
        <ele>448.5</ele>
        <time>2016-03-20T10:18:35Z</time>
      </trkpt>
      <trkpt lat="43.5318" lon="5.8606">
        <ele>448.6</ele>
        <time>2016-03-20T10:18:36Z</time>
      </trkpt>
      <trkpt lat="43.53195" lon="5.8606">
        <ele>447.1</ele>
        <time>2016-03-20T10:19:04Z</time>
      </trkpt>
      <trkpt lat="43.53189" lon="5.86053">
        <ele>448.4</ele>
        <time>2016-03-20T10:22:04Z</time>
      </trkpt>
      <trkpt lat="43.53188" lon="5.86052">
        <ele>448.5</ele>
        <time>2016-03-20T10:22:05Z</time>
      </trkpt>
      <trkpt lat="43.53199" lon="5.86051">
        <ele>447.1</ele>
        <time>2016-03-20T10:23:08Z</time>
      </trkpt>
      <trkpt lat="43.53194" lon="5.86056">
        <ele>446.8</ele>
        <time>2016-03-20T10:23:56Z</time>
      </trkpt>
      <trkpt lat="43.53199" lon="5.86066">
        <ele>447</ele>
        <time>2016-03-20T10:24:05Z</time>
      </trkpt>
      <trkpt lat="43.53204" lon="5.86076">
        <ele>447</ele>
        <time>2016-03-20T10:24:19Z</time>
      </trkpt>
      <trkpt lat="43.53205" lon="5.86076">
        <ele>447.1</ele>
        <time>2016-03-20T10:24:20Z</time>
      </trkpt>
      <trkpt lat="43.53216" lon="5.86092">
        <ele>448.2</ele>
        <time>2016-03-20T10:24:40Z</time>
      </trkpt>
      <trkpt lat="43.53223" lon="5.86098">
        <ele>448.7</ele>
        <time>2016-03-20T10:24:46Z</time>
      </trkpt>
      <trkpt lat="43.53231" lon="5.86104">
        <ele>450</ele>
        <time>2016-03-20T10:24:54Z</time>
      </trkpt>
      <trkpt lat="43.53239" lon="5.86108">
        <ele>450.4</ele>
        <time>2016-03-20T10:25:04Z</time>
      </trkpt>
      <trkpt lat="43.53247" lon="5.86115">
        <ele>450.9</ele>
        <time>2016-03-20T10:25:11Z</time>
      </trkpt>
      <trkpt lat="43.53254" lon="5.86121">
        <ele>451</ele>
        <time>2016-03-20T10:25:19Z</time>
      </trkpt>
      <trkpt lat="43.5326" lon="5.86128">
        <ele>450.7</ele>
        <time>2016-03-20T10:25:27Z</time>
      </trkpt>
      <trkpt lat="43.53261" lon="5.86129">
        <ele>450.7</ele>
        <time>2016-03-20T10:25:28Z</time>
      </trkpt>
      <trkpt lat="43.53274" lon="5.86142">
        <ele>451.4</ele>
        <time>2016-03-20T10:25:43Z</time>
      </trkpt>
      <trkpt lat="43.5328" lon="5.8615">
        <ele>450.9</ele>
        <time>2016-03-20T10:25:51Z</time>
      </trkpt>
      <trkpt lat="43.53288" lon="5.86155">
        <ele>452.5</ele>
        <time>2016-03-20T10:26:01Z</time>
      </trkpt>
      <trkpt lat="43.53295" lon="5.86162">
        <ele>452.9</ele>
        <time>2016-03-20T10:26:09Z</time>
      </trkpt>
      <trkpt lat="43.53302" lon="5.86168">
        <ele>453.2</ele>
        <time>2016-03-20T10:26:15Z</time>
      </trkpt>
      <trkpt lat="43.5331" lon="5.86174">
        <ele>452.7</ele>
        <time>2016-03-20T10:26:21Z</time>
      </trkpt>
      <trkpt lat="43.53318" lon="5.86177">
        <ele>454</ele>
        <time>2016-03-20T10:26:29Z</time>
      </trkpt>
      <trkpt lat="43.5332" lon="5.86177">
        <ele>454.1</ele>
        <time>2016-03-20T10:26:30Z</time>
      </trkpt>
      <trkpt lat="43.53333" lon="5.86189">
        <ele>453.8</ele>
        <time>2016-03-20T10:26:44Z</time>
      </trkpt>
      <trkpt lat="43.5334" lon="5.86197">
        <ele>453.8</ele>
        <time>2016-03-20T10:26:49Z</time>
      </trkpt>
      <trkpt lat="43.53345" lon="5.86205">
        <ele>453.8</ele>
        <time>2016-03-20T10:26:56Z</time>
      </trkpt>
      <trkpt lat="43.53353" lon="5.86211">
        <ele>454.4</ele>
        <time>2016-03-20T10:27:06Z</time>
      </trkpt>
      <trkpt lat="43.5336" lon="5.86214">
        <ele>454.4</ele>
        <time>2016-03-20T10:27:11Z</time>
      </trkpt>
      <trkpt lat="43.53369" lon="5.86214">
        <ele>454</ele>
        <time>2016-03-20T10:27:16Z</time>
      </trkpt>
      <trkpt lat="43.53377" lon="5.86213">
        <ele>454</ele>
        <time>2016-03-20T10:27:23Z</time>
      </trkpt>
      <trkpt lat="43.53386" lon="5.86212">
        <ele>453.9</ele>
        <time>2016-03-20T10:27:29Z</time>
      </trkpt>
      <trkpt lat="43.53394" lon="5.86211">
        <ele>453.6</ele>
        <time>2016-03-20T10:27:36Z</time>
      </trkpt>
      <trkpt lat="43.53396" lon="5.8621">
        <ele>454.1</ele>
        <time>2016-03-20T10:27:37Z</time>
      </trkpt>
      <trkpt lat="43.5341" lon="5.86205">
        <ele>455.6</ele>
        <time>2016-03-20T10:27:48Z</time>
      </trkpt>
      <trkpt lat="43.53418" lon="5.86201">
        <ele>454.7</ele>
        <time>2016-03-20T10:27:54Z</time>
      </trkpt>
      <trkpt lat="43.53426" lon="5.86196">
        <ele>454.8</ele>
        <time>2016-03-20T10:28:01Z</time>
      </trkpt>
      <trkpt lat="43.53433" lon="5.86189">
        <ele>454.9</ele>
        <time>2016-03-20T10:28:08Z</time>
      </trkpt>
      <trkpt lat="43.53439" lon="5.86182">
        <ele>455.3</ele>
        <time>2016-03-20T10:28:14Z</time>
      </trkpt>
      <trkpt lat="43.53445" lon="5.86173">
        <ele>455.7</ele>
        <time>2016-03-20T10:28:21Z</time>
      </trkpt>
      <trkpt lat="43.53451" lon="5.86164">
        <ele>456.9</ele>
        <time>2016-03-20T10:28:29Z</time>
      </trkpt>
      <trkpt lat="43.53458" lon="5.86159">
        <ele>457.5</ele>
        <time>2016-03-20T10:28:34Z</time>
      </trkpt>
      <trkpt lat="43.53466" lon="5.86154">
        <ele>457.9</ele>
        <time>2016-03-20T10:28:43Z</time>
      </trkpt>
      <trkpt lat="43.53466" lon="5.86154">
        <ele>457.8</ele>
        <time>2016-03-20T10:28:44Z</time>
      </trkpt>
      <trkpt lat="43.5345" lon="5.86159">
        <ele>456.7</ele>
        <time>2016-03-20T10:29:00Z</time>
      </trkpt>
      <trkpt lat="43.53443" lon="5.86166">
        <ele>456.7</ele>
        <time>2016-03-20T10:29:15Z</time>
      </trkpt>
      <trkpt lat="43.53436" lon="5.86173">
        <ele>456.6</ele>
        <time>2016-03-20T10:29:24Z</time>
      </trkpt>
      <trkpt lat="43.53435" lon="5.86184">
        <ele>455.7</ele>
        <time>2016-03-20T10:29:34Z</time>
      </trkpt>
      <trkpt lat="43.53438" lon="5.86194">
        <ele>456.5</ele>
        <time>2016-03-20T10:29:41Z</time>
      </trkpt>
      <trkpt lat="43.53442" lon="5.86204">
        <ele>456.7</ele>
        <time>2016-03-20T10:29:49Z</time>
      </trkpt>
      <trkpt lat="43.53443" lon="5.86205">
        <ele>457</ele>
        <time>2016-03-20T10:29:50Z</time>
      </trkpt>
      <trkpt lat="43.53446" lon="5.86228">
        <ele>458.1</ele>
        <time>2016-03-20T10:30:10Z</time>
      </trkpt>
      <trkpt lat="43.53449" lon="5.86239">
        <ele>457.9</ele>
        <time>2016-03-20T10:30:17Z</time>
      </trkpt>
      <trkpt lat="43.53454" lon="5.86249">
        <ele>458.2</ele>
        <time>2016-03-20T10:30:25Z</time>
      </trkpt>
      <trkpt lat="43.53458" lon="5.86258">
        <ele>458.8</ele>
        <time>2016-03-20T10:30:31Z</time>
      </trkpt>
      <trkpt lat="43.53463" lon="5.86269">
        <ele>460.1</ele>
        <time>2016-03-20T10:30:38Z</time>
      </trkpt>
      <trkpt lat="43.53467" lon="5.86279">
        <ele>459.9</ele>
        <time>2016-03-20T10:30:45Z</time>
      </trkpt>
      <trkpt lat="43.53468" lon="5.86291">
        <ele>460</ele>
        <time>2016-03-20T10:30:54Z</time>
      </trkpt>
      <trkpt lat="43.53469" lon="5.86292">
        <ele>459.9</ele>
        <time>2016-03-20T10:30:55Z</time>
      </trkpt>
      <trkpt lat="43.5348" lon="5.86307">
        <ele>461</ele>
        <time>2016-03-20T10:31:09Z</time>
      </trkpt>
      <trkpt lat="43.53489" lon="5.86308">
        <ele>461.4</ele>
        <time>2016-03-20T10:31:17Z</time>
      </trkpt>
      <trkpt lat="43.53497" lon="5.86303">
        <ele>461.8</ele>
        <time>2016-03-20T10:31:27Z</time>
      </trkpt>
      <trkpt lat="43.53505" lon="5.86302">
        <ele>462.6</ele>
        <time>2016-03-20T10:31:34Z</time>
      </trkpt>
      <trkpt lat="43.53513" lon="5.86298">
        <ele>462.6</ele>
        <time>2016-03-20T10:31:42Z</time>
      </trkpt>
      <trkpt lat="43.53522" lon="5.86295">
        <ele>462.6</ele>
        <time>2016-03-20T10:31:48Z</time>
      </trkpt>
      <trkpt lat="43.53529" lon="5.86291">
        <ele>463</ele>
        <time>2016-03-20T10:31:55Z</time>
      </trkpt>
      <trkpt lat="43.5353" lon="5.86291">
        <ele>463</ele>
        <time>2016-03-20T10:31:56Z</time>
      </trkpt>
      <trkpt lat="43.53542" lon="5.86303">
        <ele>464.1</ele>
        <time>2016-03-20T10:32:13Z</time>
      </trkpt>
      <trkpt lat="43.53546" lon="5.86314">
        <ele>463.9</ele>
        <time>2016-03-20T10:32:24Z</time>
      </trkpt>
      <trkpt lat="43.53546" lon="5.86326">
        <ele>463.5</ele>
        <time>2016-03-20T10:32:35Z</time>
      </trkpt>
      <trkpt lat="43.53551" lon="5.86336">
        <ele>464.9</ele>
        <time>2016-03-20T10:32:44Z</time>
      </trkpt>
      <trkpt lat="43.53556" lon="5.86344">
        <ele>465.3</ele>
        <time>2016-03-20T10:32:52Z</time>
      </trkpt>
      <trkpt lat="43.5356" lon="5.86355">
        <ele>465.9</ele>
        <time>2016-03-20T10:33:01Z</time>
      </trkpt>
      <trkpt lat="43.53561" lon="5.86356">
        <ele>466.4</ele>
        <time>2016-03-20T10:33:02Z</time>
      </trkpt>
      <trkpt lat="43.53575" lon="5.86367">
        <ele>466.7</ele>
        <time>2016-03-20T10:33:14Z</time>
      </trkpt>
      <trkpt lat="43.53583" lon="5.86366">
        <ele>467.3</ele>
        <time>2016-03-20T10:33:22Z</time>
      </trkpt>
      <trkpt lat="43.53592" lon="5.86368">
        <ele>467.2</ele>
        <time>2016-03-20T10:33:30Z</time>
      </trkpt>
      <trkpt lat="43.53601" lon="5.86369">
        <ele>468.2</ele>
        <time>2016-03-20T10:33:39Z</time>
      </trkpt>
      <trkpt lat="43.53608" lon="5.86372">
        <ele>468</ele>
        <time>2016-03-20T10:33:47Z</time>
      </trkpt>
      <trkpt lat="43.53616" lon="5.86374">
        <ele>469.1</ele>
        <time>2016-03-20T10:33:57Z</time>
      </trkpt>
      <trkpt lat="43.53624" lon="5.86373">
        <ele>469.4</ele>
        <time>2016-03-20T10:34:03Z</time>
      </trkpt>
      <trkpt lat="43.53626" lon="5.86373">
        <ele>469.5</ele>
        <time>2016-03-20T10:34:04Z</time>
      </trkpt>
      <trkpt lat="43.53641" lon="5.86377">
        <ele>469.9</ele>
        <time>2016-03-20T10:34:20Z</time>
      </trkpt>
      <trkpt lat="43.5365" lon="5.86373">
        <ele>469.9</ele>
        <time>2016-03-20T10:34:32Z</time>
      </trkpt>
      <trkpt lat="43.53658" lon="5.86371">
        <ele>470.9</ele>
        <time>2016-03-20T10:34:40Z</time>
      </trkpt>
      <trkpt lat="43.53666" lon="5.86369">
        <ele>470.6</ele>
        <time>2016-03-20T10:34:49Z</time>
      </trkpt>
      <trkpt lat="43.53674" lon="5.86364">
        <ele>470.9</ele>
        <time>2016-03-20T10:34:58Z</time>
      </trkpt>
      <trkpt lat="43.53682" lon="5.86361">
        <ele>470.6</ele>
        <time>2016-03-20T10:35:06Z</time>
      </trkpt>
      <trkpt lat="43.53683" lon="5.86361">
        <ele>470.8</ele>
        <time>2016-03-20T10:35:07Z</time>
      </trkpt>
      <trkpt lat="43.53699" lon="5.86361">
        <ele>471</ele>
        <time>2016-03-20T10:35:27Z</time>
      </trkpt>
      <trkpt lat="43.53706" lon="5.86368">
        <ele>471.2</ele>
        <time>2016-03-20T10:35:38Z</time>
      </trkpt>
      <trkpt lat="43.53711" lon="5.86378">
        <ele>471.6</ele>
        <time>2016-03-20T10:35:50Z</time>
      </trkpt>
      <trkpt lat="43.53716" lon="5.86387">
        <ele>472.2</ele>
        <time>2016-03-20T10:35:57Z</time>
      </trkpt>
      <trkpt lat="43.53723" lon="5.86395">
        <ele>472.8</ele>
        <time>2016-03-20T10:36:04Z</time>
      </trkpt>
      <trkpt lat="43.5373" lon="5.86402">
        <ele>472.7</ele>
        <time>2016-03-20T10:36:15Z</time>
      </trkpt>
      <trkpt lat="43.53732" lon="5.86403">
        <ele>472.7</ele>
        <time>2016-03-20T10:36:16Z</time>
      </trkpt>
      <trkpt lat="43.53748" lon="5.86407">
        <ele>473.1</ele>
        <time>2016-03-20T10:36:30Z</time>
      </trkpt>
      <trkpt lat="43.53756" lon="5.86406">
        <ele>474</ele>
        <time>2016-03-20T10:36:37Z</time>
      </trkpt>
      <trkpt lat="43.53765" lon="5.86405">
        <ele>474</ele>
        <time>2016-03-20T10:36:45Z</time>
      </trkpt>
      <trkpt lat="43.53773" lon="5.86402">
        <ele>474.1</ele>
        <time>2016-03-20T10:36:54Z</time>
      </trkpt>
      <trkpt lat="43.53781" lon="5.86402">
        <ele>474.2</ele>
        <time>2016-03-20T10:37:07Z</time>
      </trkpt>
      <trkpt lat="43.53789" lon="5.86399">
        <ele>474.5</ele>
        <time>2016-03-20T10:37:13Z</time>
      </trkpt>
      <trkpt lat="43.53796" lon="5.86398">
        <ele>475</ele>
        <time>2016-03-20T10:37:19Z</time>
      </trkpt>
      <trkpt lat="43.53798" lon="5.86398">
        <ele>475.2</ele>
        <time>2016-03-20T10:37:20Z</time>
      </trkpt>
      <trkpt lat="43.53813" lon="5.86394">
        <ele>475.6</ele>
        <time>2016-03-20T10:37:32Z</time>
      </trkpt>
      <trkpt lat="43.53821" lon="5.86389">
        <ele>476.2</ele>
        <time>2016-03-20T10:37:40Z</time>
      </trkpt>
      <trkpt lat="43.53828" lon="5.86384">
        <ele>477</ele>
        <time>2016-03-20T10:37:48Z</time>
      </trkpt>
      <trkpt lat="43.53837" lon="5.86382">
        <ele>477.5</ele>
        <time>2016-03-20T10:37:57Z</time>
      </trkpt>
      <trkpt lat="43.53845" lon="5.8638">
        <ele>478.1</ele>
        <time>2016-03-20T10:38:04Z</time>
      </trkpt>
      <trkpt lat="43.53854" lon="5.86381">
        <ele>477.9</ele>
        <time>2016-03-20T10:38:11Z</time>
      </trkpt>
      <trkpt lat="43.53862" lon="5.86379">
        <ele>477.8</ele>
        <time>2016-03-20T10:38:20Z</time>
      </trkpt>
      <trkpt lat="43.53863" lon="5.86378">
        <ele>477.7</ele>
        <time>2016-03-20T10:38:21Z</time>
      </trkpt>
      <trkpt lat="43.53878" lon="5.86376">
        <ele>477.1</ele>
        <time>2016-03-20T10:38:35Z</time>
      </trkpt>
      <trkpt lat="43.53887" lon="5.86373">
        <ele>477.6</ele>
        <time>2016-03-20T10:38:44Z</time>
      </trkpt>
      <trkpt lat="43.53895" lon="5.8637">
        <ele>478.7</ele>
        <time>2016-03-20T10:38:53Z</time>
      </trkpt>
      <trkpt lat="43.53904" lon="5.86369">
        <ele>479.1</ele>
        <time>2016-03-20T10:39:03Z</time>
      </trkpt>
      <trkpt lat="43.53912" lon="5.86371">
        <ele>479.8</ele>
        <time>2016-03-20T10:39:11Z</time>
      </trkpt>
      <trkpt lat="43.5392" lon="5.86373">
        <ele>479.9</ele>
        <time>2016-03-20T10:39:19Z</time>
      </trkpt>
      <trkpt lat="43.53928" lon="5.86379">
        <ele>479.5</ele>
        <time>2016-03-20T10:39:30Z</time>
      </trkpt>
      <trkpt lat="43.53928" lon="5.8638">
        <ele>479.6</ele>
        <time>2016-03-20T10:39:31Z</time>
      </trkpt>
      <trkpt lat="43.53941" lon="5.86394">
        <ele>481</ele>
        <time>2016-03-20T10:39:49Z</time>
      </trkpt>
      <trkpt lat="43.53945" lon="5.86404">
        <ele>481</ele>
        <time>2016-03-20T10:39:57Z</time>
      </trkpt>
      <trkpt lat="43.53949" lon="5.86414">
        <ele>481.9</ele>
        <time>2016-03-20T10:40:05Z</time>
      </trkpt>
      <trkpt lat="43.53954" lon="5.86424">
        <ele>481.3</ele>
        <time>2016-03-20T10:40:15Z</time>
      </trkpt>
      <trkpt lat="43.53958" lon="5.86434">
        <ele>481.5</ele>
        <time>2016-03-20T10:40:23Z</time>
      </trkpt>
      <trkpt lat="43.53963" lon="5.86443">
        <ele>481.7</ele>
        <time>2016-03-20T10:40:30Z</time>
      </trkpt>
      <trkpt lat="43.53968" lon="5.86453">
        <ele>481.6</ele>
        <time>2016-03-20T10:40:37Z</time>
      </trkpt>
      <trkpt lat="43.53969" lon="5.86454">
        <ele>481.4</ele>
        <time>2016-03-20T10:40:38Z</time>
      </trkpt>
      <trkpt lat="43.53979" lon="5.8647">
        <ele>482.4</ele>
        <time>2016-03-20T10:40:53Z</time>
      </trkpt>
      <trkpt lat="43.53985" lon="5.86478">
        <ele>483.3</ele>
        <time>2016-03-20T10:41:01Z</time>
      </trkpt>
      <trkpt lat="43.53991" lon="5.86485">
        <ele>483.9</ele>
        <time>2016-03-20T10:41:10Z</time>
      </trkpt>
      <trkpt lat="43.53999" lon="5.86491">
        <ele>483.8</ele>
        <time>2016-03-20T10:41:18Z</time>
      </trkpt>
      <trkpt lat="43.54005" lon="5.865">
        <ele>484.1</ele>
        <time>2016-03-20T10:41:27Z</time>
      </trkpt>
      <trkpt lat="43.54014" lon="5.865">
        <ele>484.2</ele>
        <time>2016-03-20T10:41:51Z</time>
      </trkpt>
      <trkpt lat="43.54014" lon="5.865">
        <ele>484.5</ele>
        <time>2016-03-20T10:41:52Z</time>
      </trkpt>
      <trkpt lat="43.54015" lon="5.86494">
        <ele>485.5</ele>
        <time>2016-03-20T10:55:21Z</time>
      </trkpt>
      <trkpt lat="43.54014" lon="5.86494">
        <ele>485.5</ele>
        <time>2016-03-20T10:55:22Z</time>
      </trkpt>
      <trkpt lat="43.54029" lon="5.86503">
        <ele>488.3</ele>
        <time>2016-03-20T10:57:55Z</time>
      </trkpt>
      <trkpt lat="43.5403" lon="5.86503">
        <ele>488.3</ele>
        <time>2016-03-20T10:57:56Z</time>
      </trkpt>
      <trkpt lat="43.5402" lon="5.86501">
        <ele>486.7</ele>
        <time>2016-03-20T11:03:09Z</time>
      </trkpt>
      <trkpt lat="43.54027" lon="5.86511">
        <ele>488.1</ele>
        <time>2016-03-20T11:09:50Z</time>
      </trkpt>
      <trkpt lat="43.54021" lon="5.86501">
        <ele>488</ele>
        <time>2016-03-20T11:15:19Z</time>
      </trkpt>
      <trkpt lat="43.54022" lon="5.86514">
        <ele>491.6</ele>
        <time>2016-03-20T11:23:53Z</time>
      </trkpt>
      <trkpt lat="43.5403" lon="5.86514">
        <ele>492.1</ele>
        <time>2016-03-20T11:24:57Z</time>
      </trkpt>
      <trkpt lat="43.54022" lon="5.86508">
        <ele>490.1</ele>
        <time>2016-03-20T11:32:53Z</time>
      </trkpt>
      <trkpt lat="43.54016" lon="5.86499">
        <ele>488</ele>
        <time>2016-03-20T11:34:07Z</time>
      </trkpt>
      <trkpt lat="43.54011" lon="5.86509">
        <ele>487.3</ele>
        <time>2016-03-20T11:35:18Z</time>
      </trkpt>
      <trkpt lat="43.54017" lon="5.8653">
        <ele>488</ele>
        <time>2016-03-20T11:35:36Z</time>
      </trkpt>
      <trkpt lat="43.54021" lon="5.86541">
        <ele>488.9</ele>
        <time>2016-03-20T11:35:45Z</time>
      </trkpt>
      <trkpt lat="43.54022" lon="5.86553">
        <ele>488.1</ele>
        <time>2016-03-20T11:35:54Z</time>
      </trkpt>
      <trkpt lat="43.54025" lon="5.86564">
        <ele>489.2</ele>
        <time>2016-03-20T11:36:02Z</time>
      </trkpt>
      <trkpt lat="43.5403" lon="5.86574">
        <ele>489.9</ele>
        <time>2016-03-20T11:36:11Z</time>
      </trkpt>
      <trkpt lat="43.54031" lon="5.86585">
        <ele>490.1</ele>
        <time>2016-03-20T11:36:20Z</time>
      </trkpt>
      <trkpt lat="43.54031" lon="5.86586">
        <ele>490.1</ele>
        <time>2016-03-20T11:36:21Z</time>
      </trkpt>
      <trkpt lat="43.54029" lon="5.86609">
        <ele>493</ele>
        <time>2016-03-20T11:36:37Z</time>
      </trkpt>
      <trkpt lat="43.54028" lon="5.8662">
        <ele>491.4</ele>
        <time>2016-03-20T11:36:45Z</time>
      </trkpt>
      <trkpt lat="43.54026" lon="5.86632">
        <ele>491.3</ele>
        <time>2016-03-20T11:36:54Z</time>
      </trkpt>
      <trkpt lat="43.54025" lon="5.86644">
        <ele>491.7</ele>
        <time>2016-03-20T11:37:02Z</time>
      </trkpt>
      <trkpt lat="43.54023" lon="5.86655">
        <ele>491</ele>
        <time>2016-03-20T11:37:10Z</time>
      </trkpt>
      <trkpt lat="43.54022" lon="5.86667">
        <ele>491.8</ele>
        <time>2016-03-20T11:37:18Z</time>
      </trkpt>
      <trkpt lat="43.54021" lon="5.86678">
        <ele>492.3</ele>
        <time>2016-03-20T11:37:25Z</time>
      </trkpt>
      <trkpt lat="43.54021" lon="5.86679">
        <ele>492.2</ele>
        <time>2016-03-20T11:37:26Z</time>
      </trkpt>
      <trkpt lat="43.54017" lon="5.867">
        <ele>492.6</ele>
        <time>2016-03-20T11:37:41Z</time>
      </trkpt>
      <trkpt lat="43.54014" lon="5.86711">
        <ele>492.1</ele>
        <time>2016-03-20T11:37:49Z</time>
      </trkpt>
      <trkpt lat="43.54009" lon="5.8672">
        <ele>493.4</ele>
        <time>2016-03-20T11:37:56Z</time>
      </trkpt>
      <trkpt lat="43.54007" lon="5.86731">
        <ele>493.4</ele>
        <time>2016-03-20T11:38:05Z</time>
      </trkpt>
      <trkpt lat="43.5401" lon="5.86742">
        <ele>493</ele>
        <time>2016-03-20T11:38:15Z</time>
      </trkpt>
      <trkpt lat="43.5401" lon="5.86754">
        <ele>493.4</ele>
        <time>2016-03-20T11:38:23Z</time>
      </trkpt>
      <trkpt lat="43.54016" lon="5.86763">
        <ele>493.4</ele>
        <time>2016-03-20T11:38:31Z</time>
      </trkpt>
      <trkpt lat="43.54016" lon="5.86765">
        <ele>493.9</ele>
        <time>2016-03-20T11:38:32Z</time>
      </trkpt>
      <trkpt lat="43.5401" lon="5.86781">
        <ele>495.7</ele>
        <time>2016-03-20T11:38:49Z</time>
      </trkpt>
      <trkpt lat="43.54006" lon="5.8679">
        <ele>495.5</ele>
        <time>2016-03-20T11:39:15Z</time>
      </trkpt>
      <trkpt lat="43.54005" lon="5.86802">
        <ele>497.7</ele>
        <time>2016-03-20T11:39:28Z</time>
      </trkpt>
      <trkpt lat="43.54008" lon="5.86813">
        <ele>497.2</ele>
        <time>2016-03-20T11:39:39Z</time>
      </trkpt>
      <trkpt lat="43.54008" lon="5.86814">
        <ele>497.1</ele>
        <time>2016-03-20T11:39:40Z</time>
      </trkpt>
      <trkpt lat="43.5402" lon="5.86829">
        <ele>497.6</ele>
        <time>2016-03-20T11:39:53Z</time>
      </trkpt>
      <trkpt lat="43.54025" lon="5.86837">
        <ele>497.8</ele>
        <time>2016-03-20T11:40:01Z</time>
      </trkpt>
      <trkpt lat="43.54033" lon="5.86842">
        <ele>496.5</ele>
        <time>2016-03-20T11:40:09Z</time>
      </trkpt>
      <trkpt lat="43.54037" lon="5.86851">
        <ele>496.6</ele>
        <time>2016-03-20T11:40:17Z</time>
      </trkpt>
      <trkpt lat="43.54042" lon="5.86859">
        <ele>496.9</ele>
        <time>2016-03-20T11:40:24Z</time>
      </trkpt>
      <trkpt lat="43.54046" lon="5.8687">
        <ele>496.6</ele>
        <time>2016-03-20T11:40:32Z</time>
      </trkpt>
      <trkpt lat="43.54053" lon="5.86878">
        <ele>496.5</ele>
        <time>2016-03-20T11:40:40Z</time>
      </trkpt>
      <trkpt lat="43.54054" lon="5.8688">
        <ele>496.6</ele>
        <time>2016-03-20T11:40:41Z</time>
      </trkpt>
      <trkpt lat="43.54065" lon="5.86892">
        <ele>496.4</ele>
        <time>2016-03-20T11:40:53Z</time>
      </trkpt>
      <trkpt lat="43.54072" lon="5.86899">
        <ele>497</ele>
        <time>2016-03-20T11:41:03Z</time>
      </trkpt>
      <trkpt lat="43.54079" lon="5.86904">
        <ele>497.4</ele>
        <time>2016-03-20T11:41:10Z</time>
      </trkpt>
      <trkpt lat="43.54087" lon="5.86909">
        <ele>499.1</ele>
        <time>2016-03-20T11:41:17Z</time>
      </trkpt>
      <trkpt lat="43.54095" lon="5.86913">
        <ele>497.7</ele>
        <time>2016-03-20T11:41:24Z</time>
      </trkpt>
      <trkpt lat="43.54104" lon="5.86912">
        <ele>498.7</ele>
        <time>2016-03-20T11:41:31Z</time>
      </trkpt>
      <trkpt lat="43.54112" lon="5.8691">
        <ele>499.5</ele>
        <time>2016-03-20T11:41:40Z</time>
      </trkpt>
      <trkpt lat="43.5412" lon="5.86909">
        <ele>500.3</ele>
        <time>2016-03-20T11:41:48Z</time>
      </trkpt>
      <trkpt lat="43.54121" lon="5.86909">
        <ele>500.2</ele>
        <time>2016-03-20T11:41:49Z</time>
      </trkpt>
      <trkpt lat="43.54137" lon="5.86908">
        <ele>499.9</ele>
        <time>2016-03-20T11:42:05Z</time>
      </trkpt>
      <trkpt lat="43.54145" lon="5.86907">
        <ele>499.2</ele>
        <time>2016-03-20T11:42:11Z</time>
      </trkpt>
      <trkpt lat="43.54154" lon="5.86908">
        <ele>499.8</ele>
        <time>2016-03-20T11:42:20Z</time>
      </trkpt>
      <trkpt lat="43.54162" lon="5.86908">
        <ele>499.1</ele>
        <time>2016-03-20T11:42:28Z</time>
      </trkpt>
      <trkpt lat="43.54169" lon="5.86908">
        <ele>499.7</ele>
        <time>2016-03-20T11:42:35Z</time>
      </trkpt>
      <trkpt lat="43.54177" lon="5.86908">
        <ele>500.3</ele>
        <time>2016-03-20T11:42:40Z</time>
      </trkpt>
      <trkpt lat="43.54185" lon="5.86908">
        <ele>500</ele>
        <time>2016-03-20T11:42:49Z</time>
      </trkpt>
      <trkpt lat="43.54186" lon="5.86908">
        <ele>500.2</ele>
        <time>2016-03-20T11:42:50Z</time>
      </trkpt>
      <trkpt lat="43.54194" lon="5.86926">
        <ele>501</ele>
        <time>2016-03-20T11:43:06Z</time>
      </trkpt>
      <trkpt lat="43.54192" lon="5.86938">
        <ele>501.7</ele>
        <time>2016-03-20T11:43:16Z</time>
      </trkpt>
      <trkpt lat="43.54187" lon="5.86947">
        <ele>501.7</ele>
        <time>2016-03-20T11:43:24Z</time>
      </trkpt>
      <trkpt lat="43.5418" lon="5.86954">
        <ele>501.2</ele>
        <time>2016-03-20T11:43:33Z</time>
      </trkpt>
      <trkpt lat="43.54173" lon="5.86961">
        <ele>500.5</ele>
        <time>2016-03-20T11:43:41Z</time>
      </trkpt>
      <trkpt lat="43.54167" lon="5.86969">
        <ele>500.7</ele>
        <time>2016-03-20T11:43:49Z</time>
      </trkpt>
      <trkpt lat="43.5416" lon="5.86976">
        <ele>500.5</ele>
        <time>2016-03-20T11:43:57Z</time>
      </trkpt>
      <trkpt lat="43.54159" lon="5.86977">
        <ele>500.5</ele>
        <time>2016-03-20T11:43:58Z</time>
      </trkpt>
      <trkpt lat="43.54148" lon="5.86992">
        <ele>501</ele>
        <time>2016-03-20T11:44:12Z</time>
      </trkpt>
      <trkpt lat="43.54143" lon="5.87001">
        <ele>500.8</ele>
        <time>2016-03-20T11:44:19Z</time>
      </trkpt>
      <trkpt lat="43.54137" lon="5.87011">
        <ele>501.3</ele>
        <time>2016-03-20T11:44:27Z</time>
      </trkpt>
      <trkpt lat="43.54132" lon="5.8702">
        <ele>501.1</ele>
        <time>2016-03-20T11:44:36Z</time>
      </trkpt>
      <trkpt lat="43.54126" lon="5.87026">
        <ele>501</ele>
        <time>2016-03-20T11:44:43Z</time>
      </trkpt>
      <trkpt lat="43.5412" lon="5.87034">
        <ele>500.2</ele>
        <time>2016-03-20T11:44:50Z</time>
      </trkpt>
      <trkpt lat="43.54114" lon="5.87042">
        <ele>500.9</ele>
        <time>2016-03-20T11:44:57Z</time>
      </trkpt>
      <trkpt lat="43.54107" lon="5.8705">
        <ele>500.6</ele>
        <time>2016-03-20T11:45:05Z</time>
      </trkpt>
      <trkpt lat="43.54107" lon="5.87051">
        <ele>500.7</ele>
        <time>2016-03-20T11:45:06Z</time>
      </trkpt>
      <trkpt lat="43.54097" lon="5.87068">
        <ele>500.5</ele>
        <time>2016-03-20T11:45:19Z</time>
      </trkpt>
      <trkpt lat="43.54092" lon="5.87076">
        <ele>501.9</ele>
        <time>2016-03-20T11:45:26Z</time>
      </trkpt>
      <trkpt lat="43.54086" lon="5.87085">
        <ele>500.2</ele>
        <time>2016-03-20T11:45:33Z</time>
      </trkpt>
      <trkpt lat="43.54079" lon="5.87094">
        <ele>501.3</ele>
        <time>2016-03-20T11:45:40Z</time>
      </trkpt>
      <trkpt lat="43.54071" lon="5.87103">
        <ele>500.6</ele>
        <time>2016-03-20T11:45:50Z</time>
      </trkpt>
      <trkpt lat="43.54067" lon="5.87112">
        <ele>501.3</ele>
        <time>2016-03-20T11:45:57Z</time>
      </trkpt>
      <trkpt lat="43.54062" lon="5.87122">
        <ele>500.4</ele>
        <time>2016-03-20T11:46:06Z</time>
      </trkpt>
      <trkpt lat="43.54062" lon="5.87122">
        <ele>500.5</ele>
        <time>2016-03-20T11:46:07Z</time>
      </trkpt>
      <trkpt lat="43.54053" lon="5.87139">
        <ele>502.1</ele>
        <time>2016-03-20T11:46:21Z</time>
      </trkpt>
      <trkpt lat="43.54047" lon="5.87148">
        <ele>502.5</ele>
        <time>2016-03-20T11:46:28Z</time>
      </trkpt>
      <trkpt lat="43.54041" lon="5.87157">
        <ele>502.7</ele>
        <time>2016-03-20T11:46:35Z</time>
      </trkpt>
      <trkpt lat="43.5404" lon="5.87167">
        <ele>502.2</ele>
        <time>2016-03-20T11:46:42Z</time>
      </trkpt>
      <trkpt lat="43.54036" lon="5.87178">
        <ele>502</ele>
        <time>2016-03-20T11:46:49Z</time>
      </trkpt>
      <trkpt lat="43.54031" lon="5.87188">
        <ele>503</ele>
        <time>2016-03-20T11:46:57Z</time>
      </trkpt>
      <trkpt lat="43.54027" lon="5.87198">
        <ele>503.9</ele>
        <time>2016-03-20T11:47:03Z</time>
      </trkpt>
      <trkpt lat="43.54023" lon="5.87208">
        <ele>504.6</ele>
        <time>2016-03-20T11:47:10Z</time>
      </trkpt>
      <trkpt lat="43.54022" lon="5.8721">
        <ele>504.8</ele>
        <time>2016-03-20T11:47:11Z</time>
      </trkpt>
      <trkpt lat="43.54018" lon="5.8723">
        <ele>503.9</ele>
        <time>2016-03-20T11:47:23Z</time>
      </trkpt>
      <trkpt lat="43.54013" lon="5.8724">
        <ele>504.7</ele>
        <time>2016-03-20T11:47:31Z</time>
      </trkpt>
      <trkpt lat="43.54011" lon="5.87252">
        <ele>504.3</ele>
        <time>2016-03-20T11:47:38Z</time>
      </trkpt>
      <trkpt lat="43.54006" lon="5.87262">
        <ele>503.3</ele>
        <time>2016-03-20T11:47:44Z</time>
      </trkpt>
      <trkpt lat="43.54001" lon="5.87272">
        <ele>503.8</ele>
        <time>2016-03-20T11:47:52Z</time>
      </trkpt>
      <trkpt lat="43.53998" lon="5.87283">
        <ele>503.7</ele>
        <time>2016-03-20T11:47:58Z</time>
      </trkpt>
      <trkpt lat="43.53993" lon="5.87293">
        <ele>504.1</ele>
        <time>2016-03-20T11:48:07Z</time>
      </trkpt>
      <trkpt lat="43.53988" lon="5.87303">
        <ele>504.2</ele>
        <time>2016-03-20T11:49:33Z</time>
      </trkpt>
      <trkpt lat="43.53988" lon="5.87305">
        <ele>504.4</ele>
        <time>2016-03-20T11:49:34Z</time>
      </trkpt>
      <trkpt lat="43.53979" lon="5.87323">
        <ele>504.3</ele>
        <time>2016-03-20T11:49:52Z</time>
      </trkpt>
      <trkpt lat="43.53975" lon="5.87333">
        <ele>502.9</ele>
        <time>2016-03-20T11:50:00Z</time>
      </trkpt>
      <trkpt lat="43.53972" lon="5.87343">
        <ele>502.1</ele>
        <time>2016-03-20T11:50:08Z</time>
      </trkpt>
      <trkpt lat="43.53969" lon="5.87353">
        <ele>501.4</ele>
        <time>2016-03-20T11:50:14Z</time>
      </trkpt>
      <trkpt lat="43.53965" lon="5.87363">
        <ele>501.6</ele>
        <time>2016-03-20T11:50:21Z</time>
      </trkpt>
      <trkpt lat="43.5396" lon="5.87374">
        <ele>501.1</ele>
        <time>2016-03-20T11:50:30Z</time>
      </trkpt>
      <trkpt lat="43.53956" lon="5.87383">
        <ele>500.1</ele>
        <time>2016-03-20T11:50:37Z</time>
      </trkpt>
      <trkpt lat="43.53956" lon="5.87385">
        <ele>500</ele>
        <time>2016-03-20T11:50:38Z</time>
      </trkpt>
      <trkpt lat="43.53947" lon="5.87403">
        <ele>498.2</ele>
        <time>2016-03-20T11:50:52Z</time>
      </trkpt>
      <trkpt lat="43.53942" lon="5.87413">
        <ele>497.7</ele>
        <time>2016-03-20T11:50:59Z</time>
      </trkpt>
      <trkpt lat="43.53938" lon="5.87423">
        <ele>497.1</ele>
        <time>2016-03-20T11:51:06Z</time>
      </trkpt>
      <trkpt lat="43.53932" lon="5.87432">
        <ele>496.6</ele>
        <time>2016-03-20T11:51:13Z</time>
      </trkpt>
      <trkpt lat="43.53927" lon="5.8744">
        <ele>495.8</ele>
        <time>2016-03-20T11:51:19Z</time>
      </trkpt>
      <trkpt lat="43.53921" lon="5.87448">
        <ele>495.7</ele>
        <time>2016-03-20T11:51:28Z</time>
      </trkpt>
      <trkpt lat="43.53915" lon="5.87456">
        <ele>495.6</ele>
        <time>2016-03-20T11:51:35Z</time>
      </trkpt>
      <trkpt lat="43.53908" lon="5.87463">
        <ele>494.5</ele>
        <time>2016-03-20T11:51:43Z</time>
      </trkpt>
      <trkpt lat="43.53906" lon="5.87463">
        <ele>494.4</ele>
        <time>2016-03-20T11:51:44Z</time>
      </trkpt>
      <trkpt lat="43.53891" lon="5.87467">
        <ele>493.6</ele>
        <time>2016-03-20T11:51:57Z</time>
      </trkpt>
      <trkpt lat="43.53883" lon="5.87472">
        <ele>493.9</ele>
        <time>2016-03-20T11:52:04Z</time>
      </trkpt>
      <trkpt lat="43.53877" lon="5.87479">
        <ele>493.4</ele>
        <time>2016-03-20T11:52:11Z</time>
      </trkpt>
      <trkpt lat="43.53874" lon="5.87489">
        <ele>492.3</ele>
        <time>2016-03-20T11:52:17Z</time>
      </trkpt>
      <trkpt lat="43.53871" lon="5.87501">
        <ele>491.4</ele>
        <time>2016-03-20T11:52:25Z</time>
      </trkpt>
      <trkpt lat="43.53868" lon="5.87512">
        <ele>490.8</ele>
        <time>2016-03-20T11:52:33Z</time>
      </trkpt>
      <trkpt lat="43.53861" lon="5.87519">
        <ele>490.2</ele>
        <time>2016-03-20T11:52:41Z</time>
      </trkpt>
      <trkpt lat="43.53854" lon="5.87526">
        <ele>489.3</ele>
        <time>2016-03-20T11:52:49Z</time>
      </trkpt>
      <trkpt lat="43.53854" lon="5.87526">
        <ele>489.2</ele>
        <time>2016-03-20T11:52:50Z</time>
      </trkpt>
      <trkpt lat="43.53841" lon="5.87539">
        <ele>487.5</ele>
        <time>2016-03-20T11:53:05Z</time>
      </trkpt>
      <trkpt lat="43.53833" lon="5.87545">
        <ele>487.2</ele>
        <time>2016-03-20T11:53:12Z</time>
      </trkpt>
      <trkpt lat="43.53826" lon="5.87552">
        <ele>486.6</ele>
        <time>2016-03-20T11:53:19Z</time>
      </trkpt>
      <trkpt lat="43.53821" lon="5.8756">
        <ele>485.6</ele>
        <time>2016-03-20T11:53:25Z</time>
      </trkpt>
      <trkpt lat="43.53816" lon="5.87569">
        <ele>485</ele>
        <time>2016-03-20T11:53:31Z</time>
      </trkpt>
      <trkpt lat="43.53812" lon="5.87579">
        <ele>483.1</ele>
        <time>2016-03-20T11:53:38Z</time>
      </trkpt>
      <trkpt lat="43.53808" lon="5.87589">
        <ele>484</ele>
        <time>2016-03-20T11:53:46Z</time>
      </trkpt>
      <trkpt lat="43.53801" lon="5.87596">
        <ele>483.1</ele>
        <time>2016-03-20T11:53:56Z</time>
      </trkpt>
      <trkpt lat="43.538" lon="5.87596">
        <ele>483.2</ele>
        <time>2016-03-20T11:53:57Z</time>
      </trkpt>
      <trkpt lat="43.53784" lon="5.87596">
        <ele>481.3</ele>
        <time>2016-03-20T11:54:10Z</time>
      </trkpt>
      <trkpt lat="43.53776" lon="5.87596">
        <ele>481.5</ele>
        <time>2016-03-20T11:54:18Z</time>
      </trkpt>
      <trkpt lat="43.53769" lon="5.87603">
        <ele>481.1</ele>
        <time>2016-03-20T11:54:26Z</time>
      </trkpt>
      <trkpt lat="43.53765" lon="5.87614">
        <ele>480.6</ele>
        <time>2016-03-20T11:54:33Z</time>
      </trkpt>
      <trkpt lat="43.53766" lon="5.87625">
        <ele>481</ele>
        <time>2016-03-20T11:54:40Z</time>
      </trkpt>
      <trkpt lat="43.53769" lon="5.87635">
        <ele>480.4</ele>
        <time>2016-03-20T11:54:46Z</time>
      </trkpt>
      <trkpt lat="43.53773" lon="5.87646">
        <ele>480.2</ele>
        <time>2016-03-20T11:54:53Z</time>
      </trkpt>
      <trkpt lat="43.53779" lon="5.87654">
        <ele>479.4</ele>
        <time>2016-03-20T11:54:59Z</time>
      </trkpt>
      <trkpt lat="43.5378" lon="5.87655">
        <ele>479.3</ele>
        <time>2016-03-20T11:55:00Z</time>
      </trkpt>
      <trkpt lat="43.53784" lon="5.87676">
        <ele>478.3</ele>
        <time>2016-03-20T11:55:14Z</time>
      </trkpt>
      <trkpt lat="43.53783" lon="5.87688">
        <ele>477.6</ele>
        <time>2016-03-20T11:55:22Z</time>
      </trkpt>
      <trkpt lat="43.53782" lon="5.87699">
        <ele>476.1</ele>
        <time>2016-03-20T11:55:29Z</time>
      </trkpt>
      <trkpt lat="43.53781" lon="5.87711">
        <ele>475.5</ele>
        <time>2016-03-20T11:55:37Z</time>
      </trkpt>
      <trkpt lat="43.53781" lon="5.87723">
        <ele>475.2</ele>
        <time>2016-03-20T11:55:44Z</time>
      </trkpt>
      <trkpt lat="43.53781" lon="5.87734">
        <ele>473.9</ele>
        <time>2016-03-20T11:55:50Z</time>
      </trkpt>
      <trkpt lat="43.5378" lon="5.87746">
        <ele>473</ele>
        <time>2016-03-20T11:55:57Z</time>
      </trkpt>
      <trkpt lat="43.5378" lon="5.87759">
        <ele>472.1</ele>
        <time>2016-03-20T11:56:04Z</time>
      </trkpt>
      <trkpt lat="43.53781" lon="5.8776">
        <ele>472.3</ele>
        <time>2016-03-20T11:56:05Z</time>
      </trkpt>
      <trkpt lat="43.53783" lon="5.87781">
        <ele>472.5</ele>
        <time>2016-03-20T11:56:17Z</time>
      </trkpt>
      <trkpt lat="43.53783" lon="5.87793">
        <ele>472.6</ele>
        <time>2016-03-20T11:56:23Z</time>
      </trkpt>
      <trkpt lat="43.53784" lon="5.87804">
        <ele>472.6</ele>
        <time>2016-03-20T11:56:30Z</time>
      </trkpt>
      <trkpt lat="43.53786" lon="5.87815">
        <ele>471.5</ele>
        <time>2016-03-20T11:56:37Z</time>
      </trkpt>
      <trkpt lat="43.53786" lon="5.87828">
        <ele>471.4</ele>
        <time>2016-03-20T11:56:45Z</time>
      </trkpt>
      <trkpt lat="43.53784" lon="5.87839">
        <ele>470.4</ele>
        <time>2016-03-20T11:56:52Z</time>
      </trkpt>
      <trkpt lat="43.53783" lon="5.8785">
        <ele>470.1</ele>
        <time>2016-03-20T11:56:59Z</time>
      </trkpt>
      <trkpt lat="43.53781" lon="5.8786">
        <ele>468.9</ele>
        <time>2016-03-20T11:57:06Z</time>
      </trkpt>
      <trkpt lat="43.5378" lon="5.87862">
        <ele>469.1</ele>
        <time>2016-03-20T11:57:07Z</time>
      </trkpt>
      <trkpt lat="43.53776" lon="5.87881">
        <ele>468.3</ele>
        <time>2016-03-20T11:57:18Z</time>
      </trkpt>
      <trkpt lat="43.53775" lon="5.87892">
        <ele>468.1</ele>
        <time>2016-03-20T11:57:24Z</time>
      </trkpt>
      <trkpt lat="43.53775" lon="5.87903">
        <ele>467.6</ele>
        <time>2016-03-20T11:57:31Z</time>
      </trkpt>
      <trkpt lat="43.53776" lon="5.87914">
        <ele>467.2</ele>
        <time>2016-03-20T11:57:38Z</time>
      </trkpt>
      <trkpt lat="43.53778" lon="5.87926">
        <ele>466.6</ele>
        <time>2016-03-20T11:57:44Z</time>
      </trkpt>
      <trkpt lat="43.53778" lon="5.87936">
        <ele>465.8</ele>
        <time>2016-03-20T11:57:51Z</time>
      </trkpt>
      <trkpt lat="43.53779" lon="5.87948">
        <ele>465.8</ele>
        <time>2016-03-20T11:57:57Z</time>
      </trkpt>
      <trkpt lat="43.53779" lon="5.87959">
        <ele>465.1</ele>
        <time>2016-03-20T11:58:03Z</time>
      </trkpt>
      <trkpt lat="43.53781" lon="5.8797">
        <ele>464.3</ele>
        <time>2016-03-20T11:58:11Z</time>
      </trkpt>
      <trkpt lat="43.53781" lon="5.87972">
        <ele>464.3</ele>
        <time>2016-03-20T11:58:12Z</time>
      </trkpt>
      <trkpt lat="43.53778" lon="5.87991">
        <ele>463.3</ele>
        <time>2016-03-20T11:58:23Z</time>
      </trkpt>
      <trkpt lat="43.53775" lon="5.88002">
        <ele>462.9</ele>
        <time>2016-03-20T11:58:29Z</time>
      </trkpt>
      <trkpt lat="43.53774" lon="5.88013">
        <ele>462.4</ele>
        <time>2016-03-20T11:58:37Z</time>
      </trkpt>
      <trkpt lat="43.53772" lon="5.88025">
        <ele>461.5</ele>
        <time>2016-03-20T11:58:44Z</time>
      </trkpt>
      <trkpt lat="43.5377" lon="5.88036">
        <ele>460.4</ele>
        <time>2016-03-20T11:58:50Z</time>
      </trkpt>
      <trkpt lat="43.53769" lon="5.88047">
        <ele>459.7</ele>
        <time>2016-03-20T11:58:56Z</time>
      </trkpt>
      <trkpt lat="43.53767" lon="5.88059">
        <ele>459.2</ele>
        <time>2016-03-20T11:59:04Z</time>
      </trkpt>
      <trkpt lat="43.53767" lon="5.88071">
        <ele>458.5</ele>
        <time>2016-03-20T11:59:11Z</time>
      </trkpt>
      <trkpt lat="43.53766" lon="5.88083">
        <ele>458.9</ele>
        <time>2016-03-20T11:59:18Z</time>
      </trkpt>
      <trkpt lat="43.53766" lon="5.88085">
        <ele>458.6</ele>
        <time>2016-03-20T11:59:19Z</time>
      </trkpt>
      <trkpt lat="43.53767" lon="5.88107">
        <ele>456.7</ele>
        <time>2016-03-20T11:59:32Z</time>
      </trkpt>
      <trkpt lat="43.53767" lon="5.88118">
        <ele>456.4</ele>
        <time>2016-03-20T11:59:39Z</time>
      </trkpt>
      <trkpt lat="43.53767" lon="5.88131">
        <ele>455.9</ele>
        <time>2016-03-20T11:59:46Z</time>
      </trkpt>
      <trkpt lat="43.53768" lon="5.88141">
        <ele>455.4</ele>
        <time>2016-03-20T11:59:52Z</time>
      </trkpt>
      <trkpt lat="43.53768" lon="5.88152">
        <ele>454.6</ele>
        <time>2016-03-20T11:59:58Z</time>
      </trkpt>
      <trkpt lat="43.53767" lon="5.88164">
        <ele>454.2</ele>
        <time>2016-03-20T12:00:05Z</time>
      </trkpt>
      <trkpt lat="43.53765" lon="5.88175">
        <ele>453.7</ele>
        <time>2016-03-20T12:00:11Z</time>
      </trkpt>
      <trkpt lat="43.53762" lon="5.88186">
        <ele>453.2</ele>
        <time>2016-03-20T12:00:18Z</time>
      </trkpt>
      <trkpt lat="43.5377" lon="5.88193">
        <ele>455.8</ele>
        <time>2016-03-20T12:05:15Z</time>
      </trkpt>
      <trkpt lat="43.5377" lon="5.88193">
        <ele>455.7</ele>
        <time>2016-03-20T12:05:16Z</time>
      </trkpt>
      <trkpt lat="43.53762" lon="5.88214">
        <ele>455</ele>
        <time>2016-03-20T12:05:43Z</time>
      </trkpt>
      <trkpt lat="43.53758" lon="5.88223">
        <ele>454.4</ele>
        <time>2016-03-20T12:05:51Z</time>
      </trkpt>
      <trkpt lat="43.53759" lon="5.88235">
        <ele>454.7</ele>
        <time>2016-03-20T12:06:26Z</time>
      </trkpt>
      <trkpt lat="43.53759" lon="5.88236">
        <ele>454.8</ele>
        <time>2016-03-20T12:06:27Z</time>
      </trkpt>
      <trkpt lat="43.53747" lon="5.88251">
        <ele>453.8</ele>
        <time>2016-03-20T12:07:25Z</time>
      </trkpt>
      <trkpt lat="43.53742" lon="5.8826">
        <ele>452.9</ele>
        <time>2016-03-20T12:07:34Z</time>
      </trkpt>
      <trkpt lat="43.53742" lon="5.88261">
        <ele>452.9</ele>
        <time>2016-03-20T12:07:35Z</time>
      </trkpt>
      <trkpt lat="43.53738" lon="5.88272">
        <ele>452.3</ele>
        <time>2016-03-20T12:08:40Z</time>
      </trkpt>
      <trkpt lat="43.53728" lon="5.8829">
        <ele>451</ele>
        <time>2016-03-20T12:09:03Z</time>
      </trkpt>
      <trkpt lat="43.53724" lon="5.88299">
        <ele>450.6</ele>
        <time>2016-03-20T12:09:14Z</time>
      </trkpt>
      <trkpt lat="43.53719" lon="5.88309">
        <ele>450.6</ele>
        <time>2016-03-20T12:09:23Z</time>
      </trkpt>
      <trkpt lat="43.53716" lon="5.88318">
        <ele>449.6</ele>
        <time>2016-03-20T12:09:30Z</time>
      </trkpt>
      <trkpt lat="43.53712" lon="5.88327">
        <ele>449.2</ele>
        <time>2016-03-20T12:09:37Z</time>
      </trkpt>
      <trkpt lat="43.53707" lon="5.88338">
        <ele>448.7</ele>
        <time>2016-03-20T12:09:48Z</time>
      </trkpt>
      <trkpt lat="43.53707" lon="5.88339">
        <ele>448.7</ele>
        <time>2016-03-20T12:09:49Z</time>
      </trkpt>
      <trkpt lat="43.53699" lon="5.88358">
        <ele>447.8</ele>
        <time>2016-03-20T12:10:02Z</time>
      </trkpt>
      <trkpt lat="43.53694" lon="5.88368">
        <ele>447.8</ele>
        <time>2016-03-20T12:10:09Z</time>
      </trkpt>
      <trkpt lat="43.5369" lon="5.88378">
        <ele>447.4</ele>
        <time>2016-03-20T12:10:18Z</time>
      </trkpt>
      <trkpt lat="43.53687" lon="5.88389">
        <ele>446.2</ele>
        <time>2016-03-20T12:10:26Z</time>
      </trkpt>
      <trkpt lat="43.53683" lon="5.88399">
        <ele>445.9</ele>
        <time>2016-03-20T12:10:34Z</time>
      </trkpt>
      <trkpt lat="43.53678" lon="5.88408">
        <ele>445</ele>
        <time>2016-03-20T12:10:41Z</time>
      </trkpt>
      <trkpt lat="43.53674" lon="5.88417">
        <ele>444.9</ele>
        <time>2016-03-20T12:10:48Z</time>
      </trkpt>
      <trkpt lat="43.5367" lon="5.88427">
        <ele>444.9</ele>
        <time>2016-03-20T12:10:54Z</time>
      </trkpt>
      <trkpt lat="43.5367" lon="5.88429">
        <ele>445</ele>
        <time>2016-03-20T12:10:55Z</time>
      </trkpt>
      <trkpt lat="43.53661" lon="5.88447">
        <ele>443.4</ele>
        <time>2016-03-20T12:11:10Z</time>
      </trkpt>
      <trkpt lat="43.53656" lon="5.88456">
        <ele>442.9</ele>
        <time>2016-03-20T12:11:17Z</time>
      </trkpt>
      <trkpt lat="43.5365" lon="5.88465">
        <ele>442.7</ele>
        <time>2016-03-20T12:11:25Z</time>
      </trkpt>
      <trkpt lat="43.53644" lon="5.88473">
        <ele>440.5</ele>
        <time>2016-03-20T12:11:33Z</time>
      </trkpt>
      <trkpt lat="43.53637" lon="5.88481">
        <ele>441.1</ele>
        <time>2016-03-20T12:11:40Z</time>
      </trkpt>
      <trkpt lat="43.5363" lon="5.88487">
        <ele>441.5</ele>
        <time>2016-03-20T12:11:47Z</time>
      </trkpt>
      <trkpt lat="43.53622" lon="5.88491">
        <ele>440.4</ele>
        <time>2016-03-20T12:11:54Z</time>
      </trkpt>
      <trkpt lat="43.53614" lon="5.88493">
        <ele>440</ele>
        <time>2016-03-20T12:12:00Z</time>
      </trkpt>
      <trkpt lat="43.53613" lon="5.88493">
        <ele>440</ele>
        <time>2016-03-20T12:12:01Z</time>
      </trkpt>
      <trkpt lat="43.53598" lon="5.88487">
        <ele>439.3</ele>
        <time>2016-03-20T12:12:15Z</time>
      </trkpt>
      <trkpt lat="43.53592" lon="5.88478">
        <ele>438.7</ele>
        <time>2016-03-20T12:12:24Z</time>
      </trkpt>
      <trkpt lat="43.53589" lon="5.88467">
        <ele>437.6</ele>
        <time>2016-03-20T12:12:32Z</time>
      </trkpt>
      <trkpt lat="43.53587" lon="5.88456">
        <ele>437.5</ele>
        <time>2016-03-20T12:12:40Z</time>
      </trkpt>
      <trkpt lat="43.53582" lon="5.88446">
        <ele>436.7</ele>
        <time>2016-03-20T12:12:46Z</time>
      </trkpt>
      <trkpt lat="43.53578" lon="5.88437">
        <ele>436.9</ele>
        <time>2016-03-20T12:12:53Z</time>
      </trkpt>
      <trkpt lat="43.5357" lon="5.8843">
        <ele>435.9</ele>
        <time>2016-03-20T12:12:59Z</time>
      </trkpt>
      <trkpt lat="43.53561" lon="5.8843">
        <ele>435.5</ele>
        <time>2016-03-20T12:13:06Z</time>
      </trkpt>
      <trkpt lat="43.5356" lon="5.8843">
        <ele>435.7</ele>
        <time>2016-03-20T12:13:07Z</time>
      </trkpt>
      <trkpt lat="43.53544" lon="5.88433">
        <ele>435.3</ele>
        <time>2016-03-20T12:13:20Z</time>
      </trkpt>
      <trkpt lat="43.53536" lon="5.88433">
        <ele>434.7</ele>
        <time>2016-03-20T12:13:28Z</time>
      </trkpt>
      <trkpt lat="43.53528" lon="5.88428">
        <ele>434</ele>
        <time>2016-03-20T12:13:34Z</time>
      </trkpt>
      <trkpt lat="43.53521" lon="5.88422">
        <ele>433.5</ele>
        <time>2016-03-20T12:13:42Z</time>
      </trkpt>
      <trkpt lat="43.53513" lon="5.88426">
        <ele>432.4</ele>
        <time>2016-03-20T12:13:50Z</time>
      </trkpt>
      <trkpt lat="43.53512" lon="5.88438">
        <ele>432.1</ele>
        <time>2016-03-20T12:13:59Z</time>
      </trkpt>
      <trkpt lat="43.53515" lon="5.8845">
        <ele>431.4</ele>
        <time>2016-03-20T12:14:07Z</time>
      </trkpt>
      <trkpt lat="43.53516" lon="5.88452">
        <ele>431</ele>
        <time>2016-03-20T12:14:08Z</time>
      </trkpt>
      <trkpt lat="43.53521" lon="5.88471">
        <ele>430.3</ele>
        <time>2016-03-20T12:14:20Z</time>
      </trkpt>
      <trkpt lat="43.53524" lon="5.88482">
        <ele>430</ele>
        <time>2016-03-20T12:14:28Z</time>
      </trkpt>
      <trkpt lat="43.53527" lon="5.88494">
        <ele>429.6</ele>
        <time>2016-03-20T12:14:35Z</time>
      </trkpt>
      <trkpt lat="43.53524" lon="5.88505">
        <ele>429</ele>
        <time>2016-03-20T12:14:42Z</time>
      </trkpt>
      <trkpt lat="43.53526" lon="5.88516">
        <ele>428.3</ele>
        <time>2016-03-20T12:14:50Z</time>
      </trkpt>
      <trkpt lat="43.53525" lon="5.88526">
        <ele>428.1</ele>
        <time>2016-03-20T12:14:55Z</time>
      </trkpt>
      <trkpt lat="43.53524" lon="5.88538">
        <ele>428</ele>
        <time>2016-03-20T12:15:04Z</time>
      </trkpt>
      <trkpt lat="43.53523" lon="5.8855">
        <ele>427.1</ele>
        <time>2016-03-20T12:15:12Z</time>
      </trkpt>
      <trkpt lat="43.53523" lon="5.88552">
        <ele>427.2</ele>
        <time>2016-03-20T12:15:13Z</time>
      </trkpt>
      <trkpt lat="43.53522" lon="5.88573">
        <ele>426.9</ele>
        <time>2016-03-20T12:15:26Z</time>
      </trkpt>
      <trkpt lat="43.53522" lon="5.88584">
        <ele>426.3</ele>
        <time>2016-03-20T12:15:32Z</time>
      </trkpt>
      <trkpt lat="43.53521" lon="5.88596">
        <ele>425.3</ele>
        <time>2016-03-20T12:15:39Z</time>
      </trkpt>
      <trkpt lat="43.53521" lon="5.88607">
        <ele>424.9</ele>
        <time>2016-03-20T12:15:47Z</time>
      </trkpt>
      <trkpt lat="43.53518" lon="5.88619">
        <ele>424.1</ele>
        <time>2016-03-20T12:16:00Z</time>
      </trkpt>
      <trkpt lat="43.53514" lon="5.88629">
        <ele>423.4</ele>
        <time>2016-03-20T12:16:07Z</time>
      </trkpt>
      <trkpt lat="43.53511" lon="5.8864">
        <ele>422.5</ele>
        <time>2016-03-20T12:16:14Z</time>
      </trkpt>
      <trkpt lat="43.5351" lon="5.88641">
        <ele>422.5</ele>
        <time>2016-03-20T12:16:15Z</time>
      </trkpt>
      <trkpt lat="43.53499" lon="5.88658">
        <ele>421.9</ele>
        <time>2016-03-20T12:16:30Z</time>
      </trkpt>
      <trkpt lat="43.53494" lon="5.88667">
        <ele>421.7</ele>
        <time>2016-03-20T12:16:37Z</time>
      </trkpt>
      <trkpt lat="43.5349" lon="5.88677">
        <ele>421.1</ele>
        <time>2016-03-20T12:16:44Z</time>
      </trkpt>
      <trkpt lat="43.53485" lon="5.88685">
        <ele>420.5</ele>
        <time>2016-03-20T12:16:51Z</time>
      </trkpt>
      <trkpt lat="43.53479" lon="5.88693">
        <ele>420</ele>
        <time>2016-03-20T12:16:58Z</time>
      </trkpt>
      <trkpt lat="43.53474" lon="5.88702">
        <ele>419.3</ele>
        <time>2016-03-20T12:17:06Z</time>
      </trkpt>
      <trkpt lat="43.53469" lon="5.88711">
        <ele>419.4</ele>
        <time>2016-03-20T12:17:12Z</time>
      </trkpt>
      <trkpt lat="43.53464" lon="5.8872">
        <ele>418.8</ele>
        <time>2016-03-20T12:17:18Z</time>
      </trkpt>
      <trkpt lat="43.53463" lon="5.88721">
        <ele>418.7</ele>
        <time>2016-03-20T12:17:19Z</time>
      </trkpt>
      <trkpt lat="43.5345" lon="5.8873">
        <ele>416.7</ele>
        <time>2016-03-20T12:17:34Z</time>
      </trkpt>
      <trkpt lat="43.53442" lon="5.88732">
        <ele>416.9</ele>
        <time>2016-03-20T12:17:40Z</time>
      </trkpt>
      <trkpt lat="43.53433" lon="5.88732">
        <ele>416.7</ele>
        <time>2016-03-20T12:17:48Z</time>
      </trkpt>
      <trkpt lat="43.53424" lon="5.8873">
        <ele>417.2</ele>
        <time>2016-03-20T12:17:57Z</time>
      </trkpt>
      <trkpt lat="43.53416" lon="5.88727">
        <ele>417.3</ele>
        <time>2016-03-20T12:18:05Z</time>
      </trkpt>
      <trkpt lat="43.53408" lon="5.88723">
        <ele>416</ele>
        <time>2016-03-20T12:18:12Z</time>
      </trkpt>
      <trkpt lat="43.53401" lon="5.88719">
        <ele>415.4</ele>
        <time>2016-03-20T12:18:20Z</time>
      </trkpt>
      <trkpt lat="43.53399" lon="5.88718">
        <ele>414.7</ele>
        <time>2016-03-20T12:18:21Z</time>
      </trkpt>
      <trkpt lat="43.53385" lon="5.8871">
        <ele>413.7</ele>
        <time>2016-03-20T12:18:33Z</time>
      </trkpt>
      <trkpt lat="43.53377" lon="5.88707">
        <ele>413.1</ele>
        <time>2016-03-20T12:18:41Z</time>
      </trkpt>
      <trkpt lat="43.53369" lon="5.88704">
        <ele>412.5</ele>
        <time>2016-03-20T12:18:48Z</time>
      </trkpt>
      <trkpt lat="43.53361" lon="5.88701">
        <ele>412.3</ele>
        <time>2016-03-20T12:18:54Z</time>
      </trkpt>
      <trkpt lat="43.53352" lon="5.88698">
        <ele>412.1</ele>
        <time>2016-03-20T12:19:02Z</time>
      </trkpt>
      <trkpt lat="43.53344" lon="5.88696">
        <ele>411.5</ele>
        <time>2016-03-20T12:19:09Z</time>
      </trkpt>
      <trkpt lat="43.53337" lon="5.88693">
        <ele>412.1</ele>
        <time>2016-03-20T12:19:14Z</time>
      </trkpt>
      <trkpt lat="43.5333" lon="5.88688">
        <ele>411.7</ele>
        <time>2016-03-20T12:19:21Z</time>
      </trkpt>
      <trkpt lat="43.53329" lon="5.88687">
        <ele>411.7</ele>
        <time>2016-03-20T12:19:22Z</time>
      </trkpt>
      <trkpt lat="43.53315" lon="5.88677">
        <ele>410.7</ele>
        <time>2016-03-20T12:19:34Z</time>
      </trkpt>
      <trkpt lat="43.53308" lon="5.88671">
        <ele>410.3</ele>
        <time>2016-03-20T12:19:41Z</time>
      </trkpt>
      <trkpt lat="43.53301" lon="5.88666">
        <ele>410.5</ele>
        <time>2016-03-20T12:19:47Z</time>
      </trkpt>
      <trkpt lat="43.53292" lon="5.88669">
        <ele>409.8</ele>
        <time>2016-03-20T12:19:55Z</time>
      </trkpt>
      <trkpt lat="43.53285" lon="5.88673">
        <ele>409.7</ele>
        <time>2016-03-20T12:20:02Z</time>
      </trkpt>
      <trkpt lat="43.53279" lon="5.88683">
        <ele>409.5</ele>
        <time>2016-03-20T12:20:10Z</time>
      </trkpt>
      <trkpt lat="43.53279" lon="5.88695">
        <ele>409.9</ele>
        <time>2016-03-20T12:20:18Z</time>
      </trkpt>
      <trkpt lat="43.53279" lon="5.88706">
        <ele>410.1</ele>
        <time>2016-03-20T12:20:24Z</time>
      </trkpt>
      <trkpt lat="43.53279" lon="5.88708">
        <ele>410.2</ele>
        <time>2016-03-20T12:20:25Z</time>
      </trkpt>
      <trkpt lat="43.53275" lon="5.88728">
        <ele>411.5</ele>
        <time>2016-03-20T12:20:39Z</time>
      </trkpt>
      <trkpt lat="43.53268" lon="5.88736">
        <ele>411.9</ele>
        <time>2016-03-20T12:20:47Z</time>
      </trkpt>
      <trkpt lat="43.53261" lon="5.88741">
        <ele>412.9</ele>
        <time>2016-03-20T12:20:54Z</time>
      </trkpt>
      <trkpt lat="43.53253" lon="5.88745">
        <ele>413.4</ele>
        <time>2016-03-20T12:21:01Z</time>
      </trkpt>
      <trkpt lat="43.53245" lon="5.88748">
        <ele>413.2</ele>
        <time>2016-03-20T12:21:08Z</time>
      </trkpt>
      <trkpt lat="43.53238" lon="5.88755">
        <ele>413.5</ele>
        <time>2016-03-20T12:21:15Z</time>
      </trkpt>
      <trkpt lat="43.5324" lon="5.88767">
        <ele>413.3</ele>
        <time>2016-03-20T12:21:50Z</time>
      </trkpt>
      <trkpt lat="43.5324" lon="5.88768">
        <ele>413.5</ele>
        <time>2016-03-20T12:21:51Z</time>
      </trkpt>
      <trkpt lat="43.5323" lon="5.88785">
        <ele>412.3</ele>
        <time>2016-03-20T12:22:44Z</time>
      </trkpt>
      <trkpt lat="43.53235" lon="5.88776">
        <ele>412</ele>
        <time>2016-03-20T12:23:12Z</time>
      </trkpt>
      <trkpt lat="43.53236" lon="5.88775">
        <ele>412</ele>
        <time>2016-03-20T12:23:13Z</time>
      </trkpt>
      <trkpt lat="43.53234" lon="5.88788">
        <ele>411.4</ele>
        <time>2016-03-20T12:24:48Z</time>
      </trkpt>
      <trkpt lat="43.53248" lon="5.88773">
        <ele>412.3</ele>
        <time>2016-03-20T12:25:44Z</time>
      </trkpt>
      <trkpt lat="43.53239" lon="5.88774">
        <ele>412.6</ele>
        <time>2016-03-20T12:27:05Z</time>
      </trkpt>
      <trkpt lat="43.53239" lon="5.88774">
        <ele>412.6</ele>
        <time>2016-03-20T12:27:06Z</time>
      </trkpt>
      <trkpt lat="43.53242" lon="5.88787">
        <ele>414.4</ele>
        <time>2016-03-20T12:32:18Z</time>
      </trkpt>
      <trkpt lat="43.53253" lon="5.88803">
        <ele>415.3</ele>
        <time>2016-03-20T12:32:33Z</time>
      </trkpt>
      <trkpt lat="43.53261" lon="5.88808">
        <ele>415.6</ele>
        <time>2016-03-20T12:32:40Z</time>
      </trkpt>
      <trkpt lat="43.53269" lon="5.88814">
        <ele>416.2</ele>
        <time>2016-03-20T12:32:47Z</time>
      </trkpt>
      <trkpt lat="43.53275" lon="5.88822">
        <ele>415.7</ele>
        <time>2016-03-20T12:32:54Z</time>
      </trkpt>
      <trkpt lat="43.53283" lon="5.88828">
        <ele>416.2</ele>
        <time>2016-03-20T12:33:01Z</time>
      </trkpt>
      <trkpt lat="43.53291" lon="5.88833">
        <ele>415.7</ele>
        <time>2016-03-20T12:33:08Z</time>
      </trkpt>
      <trkpt lat="43.53297" lon="5.88839">
        <ele>415.7</ele>
        <time>2016-03-20T12:33:15Z</time>
      </trkpt>
      <trkpt lat="43.53305" lon="5.88844">
        <ele>415.4</ele>
        <time>2016-03-20T12:33:22Z</time>
      </trkpt>
      <trkpt lat="43.53306" lon="5.88845">
        <ele>415.3</ele>
        <time>2016-03-20T12:33:23Z</time>
      </trkpt>
      <trkpt lat="43.53317" lon="5.8886">
        <ele>414.7</ele>
        <time>2016-03-20T12:33:38Z</time>
      </trkpt>
      <trkpt lat="43.53322" lon="5.88868">
        <ele>414.4</ele>
        <time>2016-03-20T12:33:45Z</time>
      </trkpt>
      <trkpt lat="43.53327" lon="5.88876">
        <ele>413.9</ele>
        <time>2016-03-20T12:33:52Z</time>
      </trkpt>
      <trkpt lat="43.53329" lon="5.88887">
        <ele>414.6</ele>
        <time>2016-03-20T12:33:59Z</time>
      </trkpt>
      <trkpt lat="43.53331" lon="5.88898">
        <ele>414.9</ele>
        <time>2016-03-20T12:34:07Z</time>
      </trkpt>
      <trkpt lat="43.53332" lon="5.8891">
        <ele>414.4</ele>
        <time>2016-03-20T12:34:15Z</time>
      </trkpt>
      <trkpt lat="43.53333" lon="5.88922">
        <ele>415.5</ele>
        <time>2016-03-20T12:34:23Z</time>
      </trkpt>
      <trkpt lat="43.53333" lon="5.88923">
        <ele>415.7</ele>
        <time>2016-03-20T12:34:24Z</time>
      </trkpt>
      <trkpt lat="43.53333" lon="5.88944">
        <ele>417.2</ele>
        <time>2016-03-20T12:34:39Z</time>
      </trkpt>
      <trkpt lat="43.53333" lon="5.88957">
        <ele>416.8</ele>
        <time>2016-03-20T12:34:48Z</time>
      </trkpt>
      <trkpt lat="43.53332" lon="5.88969">
        <ele>419</ele>
        <time>2016-03-20T12:34:57Z</time>
      </trkpt>
      <trkpt lat="43.53331" lon="5.88979">
        <ele>419.5</ele>
        <time>2016-03-20T12:35:06Z</time>
      </trkpt>
      <trkpt lat="43.53328" lon="5.88991">
        <ele>420.4</ele>
        <time>2016-03-20T12:35:15Z</time>
      </trkpt>
      <trkpt lat="43.53327" lon="5.89003">
        <ele>421.1</ele>
        <time>2016-03-20T12:35:24Z</time>
      </trkpt>
      <trkpt lat="43.53327" lon="5.89004">
        <ele>421.4</ele>
        <time>2016-03-20T12:35:25Z</time>
      </trkpt>
      <trkpt lat="43.53325" lon="5.89027">
        <ele>421.8</ele>
        <time>2016-03-20T12:35:42Z</time>
      </trkpt>
      <trkpt lat="43.53326" lon="5.89039">
        <ele>422.4</ele>
        <time>2016-03-20T12:35:51Z</time>
      </trkpt>
      <trkpt lat="43.53315" lon="5.89012">
        <ele>420</ele>
        <time>2016-03-20T12:36:23Z</time>
      </trkpt>
      <trkpt lat="43.53318" lon="5.89023">
        <ele>421.1</ele>
        <time>2016-03-20T12:36:35Z</time>
      </trkpt>
      <trkpt lat="43.53319" lon="5.89025">
        <ele>420.7</ele>
        <time>2016-03-20T12:36:36Z</time>
      </trkpt>
      <trkpt lat="43.53335" lon="5.89026">
        <ele>420.3</ele>
        <time>2016-03-20T12:37:10Z</time>
      </trkpt>
      <trkpt lat="43.53327" lon="5.89023">
        <ele>421.2</ele>
        <time>2016-03-20T12:37:34Z</time>
      </trkpt>
      <trkpt lat="43.53323" lon="5.89034">
        <ele>421.4</ele>
        <time>2016-03-20T12:37:55Z</time>
      </trkpt>
      <trkpt lat="43.53322" lon="5.89035">
        <ele>421.7</ele>
        <time>2016-03-20T12:37:56Z</time>
      </trkpt>
      <trkpt lat="43.53319" lon="5.89055">
        <ele>421.8</ele>
        <time>2016-03-20T12:38:58Z</time>
      </trkpt>
      <trkpt lat="43.53319" lon="5.89057">
        <ele>421.9</ele>
        <time>2016-03-20T12:38:59Z</time>
      </trkpt>
      <trkpt lat="43.53317" lon="5.89078">
        <ele>420.2</ele>
        <time>2016-03-20T12:39:20Z</time>
      </trkpt>
      <trkpt lat="43.53317" lon="5.8909">
        <ele>419.5</ele>
        <time>2016-03-20T12:39:30Z</time>
      </trkpt>
      <trkpt lat="43.5332" lon="5.89101">
        <ele>419</ele>
        <time>2016-03-20T12:39:41Z</time>
      </trkpt>
      <trkpt lat="43.53313" lon="5.89109">
        <ele>417.2</ele>
        <time>2016-03-20T12:39:53Z</time>
      </trkpt>
      <trkpt lat="43.53305" lon="5.89105">
        <ele>414.8</ele>
        <time>2016-03-20T12:41:08Z</time>
      </trkpt>
      <trkpt lat="43.53305" lon="5.89104">
        <ele>414.6</ele>
        <time>2016-03-20T12:41:09Z</time>
      </trkpt>
      <trkpt lat="43.53301" lon="5.89107">
        <ele>415.8</ele>
        <time>2016-03-20T12:42:01Z</time>
      </trkpt>
      <trkpt lat="43.53301" lon="5.89095">
        <ele>417.5</ele>
        <time>2016-03-20T12:43:05Z</time>
      </trkpt>
      <trkpt lat="43.53301" lon="5.89094">
        <ele>417.6</ele>
        <time>2016-03-20T12:43:06Z</time>
      </trkpt>
      <trkpt lat="43.53299" lon="5.89089">
        <ele>417.8</ele>
        <time>2016-03-20T12:43:38Z</time>
      </trkpt>
      <trkpt lat="43.53303" lon="5.89078">
        <ele>419.8</ele>
        <time>2016-03-20T12:43:48Z</time>
      </trkpt>
      <trkpt lat="43.533" lon="5.89068">
        <ele>420.6</ele>
        <time>2016-03-20T12:43:58Z</time>
      </trkpt>
      <trkpt lat="43.53292" lon="5.89065">
        <ele>419.9</ele>
        <time>2016-03-20T12:44:03Z</time>
      </trkpt>
      <trkpt lat="43.53284" lon="5.89068">
        <ele>420.4</ele>
        <time>2016-03-20T12:44:12Z</time>
      </trkpt>
      <trkpt lat="43.53283" lon="5.89069">
        <ele>420.2</ele>
        <time>2016-03-20T12:44:13Z</time>
      </trkpt>
      <trkpt lat="43.53277" lon="5.89077">
        <ele>419.6</ele>
        <time>2016-03-20T12:45:20Z</time>
      </trkpt>
      <trkpt lat="43.53269" lon="5.89096">
        <ele>417.2</ele>
        <time>2016-03-20T12:45:37Z</time>
      </trkpt>
      <trkpt lat="43.53266" lon="5.89107">
        <ele>416.1</ele>
        <time>2016-03-20T12:45:46Z</time>
      </trkpt>
      <trkpt lat="43.53264" lon="5.8912">
        <ele>415.6</ele>
        <time>2016-03-20T12:45:55Z</time>
      </trkpt>
      <trkpt lat="43.53264" lon="5.89131">
        <ele>414</ele>
        <time>2016-03-20T12:46:03Z</time>
      </trkpt>
      <trkpt lat="43.53265" lon="5.89143">
        <ele>414.6</ele>
        <time>2016-03-20T12:46:12Z</time>
      </trkpt>
      <trkpt lat="43.5327" lon="5.89153">
        <ele>412.2</ele>
        <time>2016-03-20T12:46:29Z</time>
      </trkpt>
      <trkpt lat="43.5327" lon="5.89153">
        <ele>411.8</ele>
        <time>2016-03-20T12:46:30Z</time>
      </trkpt>
      <trkpt lat="43.53277" lon="5.89175">
        <ele>408.2</ele>
        <time>2016-03-20T12:47:16Z</time>
      </trkpt>
      <trkpt lat="43.53273" lon="5.89186">
        <ele>406.4</ele>
        <time>2016-03-20T12:47:45Z</time>
      </trkpt>
      <trkpt lat="43.53273" lon="5.89187">
        <ele>406.1</ele>
        <time>2016-03-20T12:47:46Z</time>
      </trkpt>
      <trkpt lat="43.53262" lon="5.89204">
        <ele>404.8</ele>
        <time>2016-03-20T12:48:03Z</time>
      </trkpt>
      <trkpt lat="43.53257" lon="5.89212">
        <ele>403.8</ele>
        <time>2016-03-20T12:48:11Z</time>
      </trkpt>
      <trkpt lat="43.5325" lon="5.89219">
        <ele>402.8</ele>
        <time>2016-03-20T12:48:20Z</time>
      </trkpt>
      <trkpt lat="43.53242" lon="5.89225">
        <ele>401.9</ele>
        <time>2016-03-20T12:48:28Z</time>
      </trkpt>
      <trkpt lat="43.53236" lon="5.89232">
        <ele>400.5</ele>
        <time>2016-03-20T12:48:36Z</time>
      </trkpt>
      <trkpt lat="43.53229" lon="5.89238">
        <ele>400.4</ele>
        <time>2016-03-20T12:48:45Z</time>
      </trkpt>
      <trkpt lat="43.53223" lon="5.89247">
        <ele>399.3</ele>
        <time>2016-03-20T12:48:54Z</time>
      </trkpt>
      <trkpt lat="43.53222" lon="5.89248">
        <ele>399.2</ele>
        <time>2016-03-20T12:48:55Z</time>
      </trkpt>
      <trkpt lat="43.53209" lon="5.89263">
        <ele>397.5</ele>
        <time>2016-03-20T12:49:11Z</time>
      </trkpt>
      <trkpt lat="43.53202" lon="5.89269">
        <ele>397.3</ele>
        <time>2016-03-20T12:49:19Z</time>
      </trkpt>
      <trkpt lat="43.53195" lon="5.89274">
        <ele>396.2</ele>
        <time>2016-03-20T12:49:27Z</time>
      </trkpt>
      <trkpt lat="43.53188" lon="5.89281">
        <ele>395.4</ele>
        <time>2016-03-20T12:49:36Z</time>
      </trkpt>
      <trkpt lat="43.53183" lon="5.89291">
        <ele>394.7</ele>
        <time>2016-03-20T12:49:44Z</time>
      </trkpt>
      <trkpt lat="43.53176" lon="5.89294">
        <ele>394.2</ele>
        <time>2016-03-20T12:49:51Z</time>
      </trkpt>
      <trkpt lat="43.53169" lon="5.893">
        <ele>394</ele>
        <time>2016-03-20T12:49:59Z</time>
      </trkpt>
      <trkpt lat="43.53167" lon="5.89302">
        <ele>394</ele>
        <time>2016-03-20T12:50:00Z</time>
      </trkpt>
      <trkpt lat="43.53155" lon="5.89313">
        <ele>393.4</ele>
        <time>2016-03-20T12:50:12Z</time>
      </trkpt>
      <trkpt lat="43.5315" lon="5.89322">
        <ele>392.9</ele>
        <time>2016-03-20T12:50:19Z</time>
      </trkpt>
      <trkpt lat="43.53144" lon="5.8933">
        <ele>392.4</ele>
        <time>2016-03-20T12:50:27Z</time>
      </trkpt>
      <trkpt lat="43.53138" lon="5.89338">
        <ele>391.2</ele>
        <time>2016-03-20T12:50:35Z</time>
      </trkpt>
      <trkpt lat="43.53132" lon="5.89346">
        <ele>390.7</ele>
        <time>2016-03-20T12:50:44Z</time>
      </trkpt>
      <trkpt lat="43.53129" lon="5.89358">
        <ele>389</ele>
        <time>2016-03-20T12:51:03Z</time>
      </trkpt>
      <trkpt lat="43.5313" lon="5.89359">
        <ele>388.9</ele>
        <time>2016-03-20T12:51:04Z</time>
      </trkpt>
      <trkpt lat="43.53118" lon="5.89374">
        <ele>388.5</ele>
        <time>2016-03-20T12:51:53Z</time>
      </trkpt>
      <trkpt lat="43.5311" lon="5.89377">
        <ele>388.6</ele>
        <time>2016-03-20T12:52:00Z</time>
      </trkpt>
      <trkpt lat="43.53103" lon="5.89384">
        <ele>387.5</ele>
        <time>2016-03-20T12:52:08Z</time>
      </trkpt>
      <trkpt lat="43.53102" lon="5.89385">
        <ele>387.6</ele>
        <time>2016-03-20T12:52:09Z</time>
      </trkpt>
      <trkpt lat="43.53088" lon="5.89394">
        <ele>386.7</ele>
        <time>2016-03-20T12:52:23Z</time>
      </trkpt>
      <trkpt lat="43.53082" lon="5.894">
        <ele>386.4</ele>
        <time>2016-03-20T12:52:31Z</time>
      </trkpt>
      <trkpt lat="43.53074" lon="5.89407">
        <ele>386.2</ele>
        <time>2016-03-20T12:52:38Z</time>
      </trkpt>
      <trkpt lat="43.53068" lon="5.89415">
        <ele>385.9</ele>
        <time>2016-03-20T12:52:45Z</time>
      </trkpt>
      <trkpt lat="43.53061" lon="5.89423">
        <ele>385.7</ele>
        <time>2016-03-20T12:52:53Z</time>
      </trkpt>
      <trkpt lat="43.53053" lon="5.89429">
        <ele>385.4</ele>
        <time>2016-03-20T12:53:01Z</time>
      </trkpt>
      <trkpt lat="43.53047" lon="5.89436">
        <ele>385.5</ele>
        <time>2016-03-20T12:53:08Z</time>
      </trkpt>
      <trkpt lat="43.5304" lon="5.89443">
        <ele>385</ele>
        <time>2016-03-20T12:53:15Z</time>
      </trkpt>
      <trkpt lat="43.5304" lon="5.89443">
        <ele>385</ele>
        <time>2016-03-20T12:53:16Z</time>
      </trkpt>
      <trkpt lat="43.53023" lon="5.8945">
        <ele>385.3</ele>
        <time>2016-03-20T12:53:30Z</time>
      </trkpt>
      <trkpt lat="43.53015" lon="5.89453">
        <ele>384.8</ele>
        <time>2016-03-20T12:53:37Z</time>
      </trkpt>
      <trkpt lat="43.53008" lon="5.89457">
        <ele>384.7</ele>
        <time>2016-03-20T12:53:44Z</time>
      </trkpt>
      <trkpt lat="43.53" lon="5.8946">
        <ele>384.7</ele>
        <time>2016-03-20T12:53:53Z</time>
      </trkpt>
      <trkpt lat="43.52992" lon="5.89462">
        <ele>384.3</ele>
        <time>2016-03-20T12:53:59Z</time>
      </trkpt>
      <trkpt lat="43.52984" lon="5.89466">
        <ele>384.4</ele>
        <time>2016-03-20T12:54:06Z</time>
      </trkpt>
      <trkpt lat="43.52976" lon="5.89472">
        <ele>383.6</ele>
        <time>2016-03-20T12:54:14Z</time>
      </trkpt>
      <trkpt lat="43.52969" lon="5.89476">
        <ele>383.4</ele>
        <time>2016-03-20T12:54:21Z</time>
      </trkpt>
      <trkpt lat="43.52968" lon="5.89477">
        <ele>383.4</ele>
        <time>2016-03-20T12:54:22Z</time>
      </trkpt>
      <trkpt lat="43.52954" lon="5.89483">
        <ele>382.6</ele>
        <time>2016-03-20T12:54:35Z</time>
      </trkpt>
      <trkpt lat="43.52945" lon="5.89487">
        <ele>382.3</ele>
        <time>2016-03-20T12:54:44Z</time>
      </trkpt>
      <trkpt lat="43.52938" lon="5.8949">
        <ele>382.1</ele>
        <time>2016-03-20T12:54:50Z</time>
      </trkpt>
      <trkpt lat="43.5293" lon="5.89493">
        <ele>381.8</ele>
        <time>2016-03-20T12:54:57Z</time>
      </trkpt>
      <trkpt lat="43.52922" lon="5.89498">
        <ele>381</ele>
        <time>2016-03-20T12:55:04Z</time>
      </trkpt>
      <trkpt lat="43.52914" lon="5.89501">
        <ele>381.3</ele>
        <time>2016-03-20T12:55:10Z</time>
      </trkpt>
      <trkpt lat="43.52907" lon="5.89506">
        <ele>381.6</ele>
        <time>2016-03-20T12:55:17Z</time>
      </trkpt>
      <trkpt lat="43.52899" lon="5.89509">
        <ele>380.8</ele>
        <time>2016-03-20T12:55:24Z</time>
      </trkpt>
      <trkpt lat="43.52898" lon="5.8951">
        <ele>380.8</ele>
        <time>2016-03-20T12:55:25Z</time>
      </trkpt>
      <trkpt lat="43.52883" lon="5.89515">
        <ele>381.1</ele>
        <time>2016-03-20T12:55:38Z</time>
      </trkpt>
      <trkpt lat="43.52875" lon="5.89518">
        <ele>380.8</ele>
        <time>2016-03-20T12:55:43Z</time>
      </trkpt>
      <trkpt lat="43.52867" lon="5.89523">
        <ele>380.7</ele>
        <time>2016-03-20T12:55:51Z</time>
      </trkpt>
      <trkpt lat="43.52859" lon="5.89528">
        <ele>380.7</ele>
        <time>2016-03-20T12:56:00Z</time>
      </trkpt>
      <trkpt lat="43.52852" lon="5.89533">
        <ele>380.7</ele>
        <time>2016-03-20T12:56:05Z</time>
      </trkpt>
      <trkpt lat="43.52845" lon="5.89538">
        <ele>380</ele>
        <time>2016-03-20T12:56:11Z</time>
      </trkpt>
      <trkpt lat="43.52839" lon="5.89545">
        <ele>380.2</ele>
        <time>2016-03-20T12:56:16Z</time>
      </trkpt>
      <trkpt lat="43.52834" lon="5.89555">
        <ele>380</ele>
        <time>2016-03-20T12:56:24Z</time>
      </trkpt>
      <trkpt lat="43.52827" lon="5.89561">
        <ele>379.1</ele>
        <time>2016-03-20T12:56:32Z</time>
      </trkpt>
      <trkpt lat="43.52827" lon="5.89562">
        <ele>379</ele>
        <time>2016-03-20T12:56:33Z</time>
      </trkpt>
      <trkpt lat="43.52815" lon="5.89579">
        <ele>376.5</ele>
        <time>2016-03-20T12:56:51Z</time>
      </trkpt>
      <trkpt lat="43.52809" lon="5.89586">
        <ele>376.1</ele>
        <time>2016-03-20T12:56:56Z</time>
      </trkpt>
      <trkpt lat="43.52801" lon="5.89588">
        <ele>375.5</ele>
        <time>2016-03-20T12:57:03Z</time>
      </trkpt>
      <trkpt lat="43.52795" lon="5.89596">
        <ele>373.9</ele>
        <time>2016-03-20T12:57:12Z</time>
      </trkpt>
      <trkpt lat="43.52789" lon="5.89605">
        <ele>372.7</ele>
        <time>2016-03-20T12:57:19Z</time>
      </trkpt>
      <trkpt lat="43.52784" lon="5.89615">
        <ele>371.9</ele>
        <time>2016-03-20T12:57:27Z</time>
      </trkpt>
      <trkpt lat="43.5278" lon="5.89625">
        <ele>370.9</ele>
        <time>2016-03-20T12:57:35Z</time>
      </trkpt>
      <trkpt lat="43.5278" lon="5.89627">
        <ele>370.9</ele>
        <time>2016-03-20T12:57:36Z</time>
      </trkpt>
      <trkpt lat="43.52774" lon="5.89647">
        <ele>369.4</ele>
        <time>2016-03-20T12:57:51Z</time>
      </trkpt>
      <trkpt lat="43.52769" lon="5.89656">
        <ele>368.5</ele>
        <time>2016-03-20T12:57:57Z</time>
      </trkpt>
      <trkpt lat="43.52762" lon="5.89664">
        <ele>368.2</ele>
        <time>2016-03-20T12:58:04Z</time>
      </trkpt>
      <trkpt lat="43.52758" lon="5.89673">
        <ele>368</ele>
        <time>2016-03-20T12:58:12Z</time>
      </trkpt>
      <trkpt lat="43.52752" lon="5.89682">
        <ele>367</ele>
        <time>2016-03-20T12:58:20Z</time>
      </trkpt>
      <trkpt lat="43.52748" lon="5.89691">
        <ele>365.8</ele>
        <time>2016-03-20T12:58:27Z</time>
      </trkpt>
      <trkpt lat="43.52742" lon="5.897">
        <ele>364.9</ele>
        <time>2016-03-20T12:58:34Z</time>
      </trkpt>
      <trkpt lat="43.52737" lon="5.8971">
        <ele>363.8</ele>
        <time>2016-03-20T12:58:42Z</time>
      </trkpt>
      <trkpt lat="43.52737" lon="5.89712">
        <ele>363.7</ele>
        <time>2016-03-20T12:58:43Z</time>
      </trkpt>
      <trkpt lat="43.52737" lon="5.89733">
        <ele>362.7</ele>
        <time>2016-03-20T13:01:24Z</time>
      </trkpt>
      <trkpt lat="43.52736" lon="5.89733">
        <ele>362.8</ele>
        <time>2016-03-20T13:01:25Z</time>
      </trkpt>
      <trkpt lat="43.52734" lon="5.89745">
        <ele>363.3</ele>
        <time>2016-03-20T13:04:19Z</time>
      </trkpt>
      <trkpt lat="43.52731" lon="5.89767">
        <ele>362.2</ele>
        <time>2016-03-20T13:04:37Z</time>
      </trkpt>
      <trkpt lat="43.52732" lon="5.89779">
        <ele>362.1</ele>
        <time>2016-03-20T13:04:44Z</time>
      </trkpt>
      <trkpt lat="43.52727" lon="5.89789">
        <ele>360.5</ele>
        <time>2016-03-20T13:04:57Z</time>
      </trkpt>
      <trkpt lat="43.52723" lon="5.89799">
        <ele>359.5</ele>
        <time>2016-03-20T13:05:08Z</time>
      </trkpt>
      <trkpt lat="43.5272" lon="5.89809">
        <ele>358.5</ele>
        <time>2016-03-20T13:05:16Z</time>
      </trkpt>
      <trkpt lat="43.52717" lon="5.8982">
        <ele>358</ele>
        <time>2016-03-20T13:05:27Z</time>
      </trkpt>
      <trkpt lat="43.52716" lon="5.89821">
        <ele>357.6</ele>
        <time>2016-03-20T13:05:28Z</time>
      </trkpt>
      <trkpt lat="43.5271" lon="5.89842">
        <ele>356.7</ele>
        <time>2016-03-20T13:05:47Z</time>
      </trkpt>
      <trkpt lat="43.52705" lon="5.89851">
        <ele>356.6</ele>
        <time>2016-03-20T13:06:01Z</time>
      </trkpt>
      <trkpt lat="43.52697" lon="5.89854">
        <ele>356.5</ele>
        <time>2016-03-20T13:06:10Z</time>
      </trkpt>
      <trkpt lat="43.52689" lon="5.89856">
        <ele>357</ele>
        <time>2016-03-20T13:06:20Z</time>
      </trkpt>
      <trkpt lat="43.52681" lon="5.89859">
        <ele>357</ele>
        <time>2016-03-20T13:06:28Z</time>
      </trkpt>
      <trkpt lat="43.5268" lon="5.8986">
        <ele>357.1</ele>
        <time>2016-03-20T13:06:29Z</time>
      </trkpt>
      <trkpt lat="43.52667" lon="5.89871">
        <ele>356.4</ele>
        <time>2016-03-20T13:06:40Z</time>
      </trkpt>
      <trkpt lat="43.5266" lon="5.89877">
        <ele>356.4</ele>
        <time>2016-03-20T13:06:48Z</time>
      </trkpt>
      <trkpt lat="43.52652" lon="5.89882">
        <ele>355.9</ele>
        <time>2016-03-20T13:06:55Z</time>
      </trkpt>
      <trkpt lat="43.52644" lon="5.89887">
        <ele>355.4</ele>
        <time>2016-03-20T13:07:04Z</time>
      </trkpt>
      <trkpt lat="43.52645" lon="5.89899">
        <ele>356</ele>
        <time>2016-03-20T13:07:22Z</time>
      </trkpt>
      <trkpt lat="43.52641" lon="5.89909">
        <ele>355.3</ele>
        <time>2016-03-20T13:07:34Z</time>
      </trkpt>
      <trkpt lat="43.52641" lon="5.8991">
        <ele>355.5</ele>
        <time>2016-03-20T13:07:35Z</time>
      </trkpt>
      <trkpt lat="43.52641" lon="5.89933">
        <ele>355.1</ele>
        <time>2016-03-20T13:07:52Z</time>
      </trkpt>
      <trkpt lat="43.52645" lon="5.89922">
        <ele>354.4</ele>
        <time>2016-03-20T13:08:26Z</time>
      </trkpt>
      <trkpt lat="43.52645" lon="5.8991">
        <ele>355.2</ele>
        <time>2016-03-20T13:08:41Z</time>
      </trkpt>
      <trkpt lat="43.52645" lon="5.89909">
        <ele>355.3</ele>
        <time>2016-03-20T13:08:42Z</time>
      </trkpt>
      <trkpt lat="43.52635" lon="5.89892">
        <ele>356</ele>
        <time>2016-03-20T13:09:00Z</time>
      </trkpt>
      <trkpt lat="43.52627" lon="5.89887">
        <ele>356</ele>
        <time>2016-03-20T13:09:07Z</time>
      </trkpt>
      <trkpt lat="43.5262" lon="5.89884">
        <ele>356.2</ele>
        <time>2016-03-20T13:09:14Z</time>
      </trkpt>
      <trkpt lat="43.52611" lon="5.89885">
        <ele>356.8</ele>
        <time>2016-03-20T13:09:28Z</time>
      </trkpt>
      <trkpt lat="43.52603" lon="5.89881">
        <ele>356.6</ele>
        <time>2016-03-20T13:09:37Z</time>
      </trkpt>
      <trkpt lat="43.52595" lon="5.89882">
        <ele>356.5</ele>
        <time>2016-03-20T13:09:45Z</time>
      </trkpt>
      <trkpt lat="43.52594" lon="5.89882">
        <ele>356.5</ele>
        <time>2016-03-20T13:09:46Z</time>
      </trkpt>
      <trkpt lat="43.52578" lon="5.8989">
        <ele>357.4</ele>
        <time>2016-03-20T13:10:03Z</time>
      </trkpt>
      <trkpt lat="43.52571" lon="5.89893">
        <ele>357.3</ele>
        <time>2016-03-20T13:10:11Z</time>
      </trkpt>
      <trkpt lat="43.52563" lon="5.89897">
        <ele>357.7</ele>
        <time>2016-03-20T13:10:22Z</time>
      </trkpt>
      <trkpt lat="43.52555" lon="5.899">
        <ele>358.5</ele>
        <time>2016-03-20T13:10:32Z</time>
      </trkpt>
      <trkpt lat="43.52547" lon="5.89906">
        <ele>359.5</ele>
        <time>2016-03-20T13:10:46Z</time>
      </trkpt>
      <trkpt lat="43.52546" lon="5.89906">
        <ele>359.4</ele>
        <time>2016-03-20T13:10:47Z</time>
      </trkpt>
      <trkpt lat="43.5253" lon="5.8991">
        <ele>361.4</ele>
        <time>2016-03-20T13:11:08Z</time>
      </trkpt>
      <trkpt lat="43.52522" lon="5.89908">
        <ele>361.7</ele>
        <time>2016-03-20T13:11:15Z</time>
      </trkpt>
      <trkpt lat="43.52514" lon="5.89908">
        <ele>363.1</ele>
        <time>2016-03-20T13:11:24Z</time>
      </trkpt>
      <trkpt lat="43.52505" lon="5.89909">
        <ele>363.8</ele>
        <time>2016-03-20T13:11:34Z</time>
      </trkpt>
      <trkpt lat="43.52497" lon="5.8991">
        <ele>364.6</ele>
        <time>2016-03-20T13:11:43Z</time>
      </trkpt>
      <trkpt lat="43.52488" lon="5.8991">
        <ele>365</ele>
        <time>2016-03-20T13:11:51Z</time>
      </trkpt>
      <trkpt lat="43.52487" lon="5.8991">
        <ele>365.2</ele>
        <time>2016-03-20T13:11:52Z</time>
      </trkpt>
      <trkpt lat="43.52472" lon="5.89919">
        <ele>367.3</ele>
        <time>2016-03-20T13:12:10Z</time>
      </trkpt>
      <trkpt lat="43.52464" lon="5.89922">
        <ele>367.8</ele>
        <time>2016-03-20T13:12:17Z</time>
      </trkpt>
      <trkpt lat="43.52456" lon="5.89926">
        <ele>367.9</ele>
        <time>2016-03-20T13:12:24Z</time>
      </trkpt>
      <trkpt lat="43.52449" lon="5.89932">
        <ele>369.2</ele>
        <time>2016-03-20T13:12:33Z</time>
      </trkpt>
      <trkpt lat="43.52441" lon="5.89937">
        <ele>370.6</ele>
        <time>2016-03-20T13:12:42Z</time>
      </trkpt>
      <trkpt lat="43.52434" lon="5.89945">
        <ele>371.7</ele>
        <time>2016-03-20T13:12:52Z</time>
      </trkpt>
      <trkpt lat="43.52433" lon="5.89945">
        <ele>371.9</ele>
        <time>2016-03-20T13:12:53Z</time>
      </trkpt>
      <trkpt lat="43.5242" lon="5.89958">
        <ele>375.2</ele>
        <time>2016-03-20T13:13:14Z</time>
      </trkpt>
      <trkpt lat="43.52413" lon="5.89965">
        <ele>376.7</ele>
        <time>2016-03-20T13:13:24Z</time>
      </trkpt>
      <trkpt lat="43.52406" lon="5.89971">
        <ele>377.8</ele>
        <time>2016-03-20T13:13:34Z</time>
      </trkpt>
      <trkpt lat="43.52398" lon="5.89975">
        <ele>378.9</ele>
        <time>2016-03-20T13:13:43Z</time>
      </trkpt>
      <trkpt lat="43.52389" lon="5.89978">
        <ele>379.3</ele>
        <time>2016-03-20T13:13:51Z</time>
      </trkpt>
      <trkpt lat="43.52382" lon="5.89984">
        <ele>380.7</ele>
        <time>2016-03-20T13:14:01Z</time>
      </trkpt>
      <trkpt lat="43.52381" lon="5.89984">
        <ele>380.6</ele>
        <time>2016-03-20T13:14:02Z</time>
      </trkpt>
      <trkpt lat="43.52366" lon="5.89992">
        <ele>382.2</ele>
        <time>2016-03-20T13:14:17Z</time>
      </trkpt>
      <trkpt lat="43.52362" lon="5.90003">
        <ele>383.1</ele>
        <time>2016-03-20T13:15:08Z</time>
      </trkpt>
      <trkpt lat="43.52362" lon="5.90004">
        <ele>383</ele>
        <time>2016-03-20T13:15:09Z</time>
      </trkpt>
      <trkpt lat="43.52353" lon="5.90007">
        <ele>382.8</ele>
        <time>2016-03-20T13:19:23Z</time>
      </trkpt>
      <trkpt lat="43.5234" lon="5.9002">
        <ele>384.5</ele>
        <time>2016-03-20T13:19:45Z</time>
      </trkpt>
      <trkpt lat="43.52332" lon="5.90026">
        <ele>385.4</ele>
        <time>2016-03-20T13:19:55Z</time>
      </trkpt>
      <trkpt lat="43.52326" lon="5.90034">
        <ele>386.1</ele>
        <time>2016-03-20T13:20:03Z</time>
      </trkpt>
      <trkpt lat="43.5232" lon="5.90041">
        <ele>386.3</ele>
        <time>2016-03-20T13:20:12Z</time>
      </trkpt>
      <trkpt lat="43.52313" lon="5.90045">
        <ele>387.1</ele>
        <time>2016-03-20T13:20:19Z</time>
      </trkpt>
      <trkpt lat="43.52306" lon="5.90051">
        <ele>387</ele>
        <time>2016-03-20T13:20:26Z</time>
      </trkpt>
      <trkpt lat="43.52305" lon="5.90052">
        <ele>386.9</ele>
        <time>2016-03-20T13:20:27Z</time>
      </trkpt>
      <trkpt lat="43.52294" lon="5.90066">
        <ele>388.1</ele>
        <time>2016-03-20T13:20:41Z</time>
      </trkpt>
      <trkpt lat="43.52287" lon="5.90074">
        <ele>389.4</ele>
        <time>2016-03-20T13:20:49Z</time>
      </trkpt>
      <trkpt lat="43.5228" lon="5.9008">
        <ele>389.5</ele>
        <time>2016-03-20T13:20:57Z</time>
      </trkpt>
      <trkpt lat="43.52273" lon="5.90087">
        <ele>389.8</ele>
        <time>2016-03-20T13:21:05Z</time>
      </trkpt>
      <trkpt lat="43.52267" lon="5.90096">
        <ele>391.1</ele>
        <time>2016-03-20T13:21:13Z</time>
      </trkpt>
      <trkpt lat="43.52262" lon="5.90104">
        <ele>391.7</ele>
        <time>2016-03-20T13:21:21Z</time>
      </trkpt>
      <trkpt lat="43.52255" lon="5.90112">
        <ele>392.1</ele>
        <time>2016-03-20T13:21:29Z</time>
      </trkpt>
      <trkpt lat="43.52255" lon="5.90113">
        <ele>392.1</ele>
        <time>2016-03-20T13:21:30Z</time>
      </trkpt>
      <trkpt lat="43.52242" lon="5.90126">
        <ele>392.6</ele>
        <time>2016-03-20T13:21:44Z</time>
      </trkpt>
      <trkpt lat="43.52235" lon="5.90131">
        <ele>393</ele>
        <time>2016-03-20T13:21:52Z</time>
      </trkpt>
      <trkpt lat="43.52227" lon="5.90135">
        <ele>393.6</ele>
        <time>2016-03-20T13:22:01Z</time>
      </trkpt>
      <trkpt lat="43.52219" lon="5.90139">
        <ele>393.8</ele>
        <time>2016-03-20T13:22:08Z</time>
      </trkpt>
      <trkpt lat="43.5221" lon="5.90142">
        <ele>393.5</ele>
        <time>2016-03-20T13:22:15Z</time>
      </trkpt>
      <trkpt lat="43.52202" lon="5.90147">
        <ele>393.8</ele>
        <time>2016-03-20T13:22:23Z</time>
      </trkpt>
      <trkpt lat="43.52195" lon="5.90151">
        <ele>393.6</ele>
        <time>2016-03-20T13:22:31Z</time>
      </trkpt>
      <trkpt lat="43.52193" lon="5.90152">
        <ele>393.5</ele>
        <time>2016-03-20T13:22:32Z</time>
      </trkpt>
      <trkpt lat="43.52181" lon="5.90164">
        <ele>394.6</ele>
        <time>2016-03-20T13:22:44Z</time>
      </trkpt>
      <trkpt lat="43.52174" lon="5.90171">
        <ele>394.3</ele>
        <time>2016-03-20T13:22:53Z</time>
      </trkpt>
      <trkpt lat="43.52167" lon="5.90177">
        <ele>394.8</ele>
        <time>2016-03-20T13:23:02Z</time>
      </trkpt>
      <trkpt lat="43.52159" lon="5.90183">
        <ele>395.3</ele>
        <time>2016-03-20T13:23:08Z</time>
      </trkpt>
      <trkpt lat="43.52151" lon="5.90187">
        <ele>395.5</ele>
        <time>2016-03-20T13:23:16Z</time>
      </trkpt>
      <trkpt lat="43.52143" lon="5.9019">
        <ele>395.2</ele>
        <time>2016-03-20T13:23:24Z</time>
      </trkpt>
      <trkpt lat="43.52135" lon="5.90194">
        <ele>395.6</ele>
        <time>2016-03-20T13:23:30Z</time>
      </trkpt>
      <trkpt lat="43.52127" lon="5.90199">
        <ele>396.1</ele>
        <time>2016-03-20T13:23:37Z</time>
      </trkpt>
      <trkpt lat="43.52127" lon="5.902">
        <ele>395.9</ele>
        <time>2016-03-20T13:23:38Z</time>
      </trkpt>
      <trkpt lat="43.5211" lon="5.90207">
        <ele>396.6</ele>
        <time>2016-03-20T13:23:54Z</time>
      </trkpt>
      <trkpt lat="43.52102" lon="5.90211">
        <ele>397.4</ele>
        <time>2016-03-20T13:24:03Z</time>
      </trkpt>
      <trkpt lat="43.52094" lon="5.90215">
        <ele>397.3</ele>
        <time>2016-03-20T13:24:09Z</time>
      </trkpt>
      <trkpt lat="43.52087" lon="5.90218">
        <ele>397.4</ele>
        <time>2016-03-20T13:24:16Z</time>
      </trkpt>
      <trkpt lat="43.52078" lon="5.9022">
        <ele>396.9</ele>
        <time>2016-03-20T13:24:22Z</time>
      </trkpt>
      <trkpt lat="43.52071" lon="5.90222">
        <ele>396.8</ele>
        <time>2016-03-20T13:24:27Z</time>
      </trkpt>
      <trkpt lat="43.52063" lon="5.90227">
        <ele>397.6</ele>
        <time>2016-03-20T13:24:35Z</time>
      </trkpt>
      <trkpt lat="43.52055" lon="5.90233">
        <ele>398.1</ele>
        <time>2016-03-20T13:24:44Z</time>
      </trkpt>
      <trkpt lat="43.52054" lon="5.90233">
        <ele>398.1</ele>
        <time>2016-03-20T13:24:45Z</time>
      </trkpt>
      <trkpt lat="43.5204" lon="5.90237">
        <ele>398.8</ele>
        <time>2016-03-20T13:24:55Z</time>
      </trkpt>
      <trkpt lat="43.52032" lon="5.9024">
        <ele>398.5</ele>
        <time>2016-03-20T13:25:02Z</time>
      </trkpt>
      <trkpt lat="43.52025" lon="5.90246">
        <ele>398.9</ele>
        <time>2016-03-20T13:25:10Z</time>
      </trkpt>
      <trkpt lat="43.52016" lon="5.90248">
        <ele>399.4</ele>
        <time>2016-03-20T13:25:16Z</time>
      </trkpt>
      <trkpt lat="43.52008" lon="5.9025">
        <ele>399.4</ele>
        <time>2016-03-20T13:25:24Z</time>
      </trkpt>
      <trkpt lat="43.52001" lon="5.90255">
        <ele>399.5</ele>
        <time>2016-03-20T13:25:30Z</time>
      </trkpt>
      <trkpt lat="43.51994" lon="5.90258">
        <ele>399.9</ele>
        <time>2016-03-20T13:25:37Z</time>
      </trkpt>
      <trkpt lat="43.51985" lon="5.9026">
        <ele>399.9</ele>
        <time>2016-03-20T13:25:45Z</time>
      </trkpt>
      <trkpt lat="43.51984" lon="5.90261">
        <ele>399.5</ele>
        <time>2016-03-20T13:25:46Z</time>
      </trkpt>
      <trkpt lat="43.51968" lon="5.90259">
        <ele>400</ele>
        <time>2016-03-20T13:26:01Z</time>
      </trkpt>
      <trkpt lat="43.5196" lon="5.90259">
        <ele>400.6</ele>
        <time>2016-03-20T13:26:08Z</time>
      </trkpt>
      <trkpt lat="43.51951" lon="5.9026">
        <ele>400.9</ele>
        <time>2016-03-20T13:26:17Z</time>
      </trkpt>
      <trkpt lat="43.51944" lon="5.90265">
        <ele>401.3</ele>
        <time>2016-03-20T13:26:24Z</time>
      </trkpt>
      <trkpt lat="43.51937" lon="5.90271">
        <ele>401</ele>
        <time>2016-03-20T13:26:31Z</time>
      </trkpt>
      <trkpt lat="43.51929" lon="5.90277">
        <ele>401.4</ele>
        <time>2016-03-20T13:26:39Z</time>
      </trkpt>
      <trkpt lat="43.51921" lon="5.90283">
        <ele>401</ele>
        <time>2016-03-20T13:26:47Z</time>
      </trkpt>
      <trkpt lat="43.51919" lon="5.90283">
        <ele>401.1</ele>
        <time>2016-03-20T13:26:48Z</time>
      </trkpt>
      <trkpt lat="43.51905" lon="5.90286">
        <ele>402.4</ele>
        <time>2016-03-20T13:26:59Z</time>
      </trkpt>
      <trkpt lat="43.51897" lon="5.9029">
        <ele>402.7</ele>
        <time>2016-03-20T13:27:08Z</time>
      </trkpt>
      <trkpt lat="43.51889" lon="5.90293">
        <ele>403.1</ele>
        <time>2016-03-20T13:27:15Z</time>
      </trkpt>
      <trkpt lat="43.51881" lon="5.90294">
        <ele>402.8</ele>
        <time>2016-03-20T13:27:23Z</time>
      </trkpt>
      <trkpt lat="43.51874" lon="5.90299">
        <ele>402.7</ele>
        <time>2016-03-20T13:27:32Z</time>
      </trkpt>
      <trkpt lat="43.51866" lon="5.90298">
        <ele>403.2</ele>
        <time>2016-03-20T13:27:39Z</time>
      </trkpt>
      <trkpt lat="43.51858" lon="5.90303">
        <ele>402.9</ele>
        <time>2016-03-20T13:27:47Z</time>
      </trkpt>
      <trkpt lat="43.51849" lon="5.90304">
        <ele>403.1</ele>
        <time>2016-03-20T13:27:54Z</time>
      </trkpt>
      <trkpt lat="43.51849" lon="5.90304">
        <ele>403.5</ele>
        <time>2016-03-20T13:27:55Z</time>
      </trkpt>
      <trkpt lat="43.51833" lon="5.90308">
        <ele>403.8</ele>
        <time>2016-03-20T13:28:06Z</time>
      </trkpt>
      <trkpt lat="43.51826" lon="5.90312">
        <ele>403.3</ele>
        <time>2016-03-20T13:28:13Z</time>
      </trkpt>
      <trkpt lat="43.51817" lon="5.90314">
        <ele>403.8</ele>
        <time>2016-03-20T13:28:21Z</time>
      </trkpt>
      <trkpt lat="43.51809" lon="5.90318">
        <ele>404.1</ele>
        <time>2016-03-20T13:28:29Z</time>
      </trkpt>
      <trkpt lat="43.518" lon="5.9032">
        <ele>403.8</ele>
        <time>2016-03-20T13:28:37Z</time>
      </trkpt>
      <trkpt lat="43.51793" lon="5.90319">
        <ele>404.5</ele>
        <time>2016-03-20T13:28:44Z</time>
      </trkpt>
      <trkpt lat="43.51784" lon="5.90318">
        <ele>404.3</ele>
        <time>2016-03-20T13:28:50Z</time>
      </trkpt>
      <trkpt lat="43.51776" lon="5.90319">
        <ele>404.6</ele>
        <time>2016-03-20T13:28:57Z</time>
      </trkpt>
      <trkpt lat="43.51774" lon="5.90319">
        <ele>404.7</ele>
        <time>2016-03-20T13:28:59Z</time>
      </trkpt>
      <trkpt lat="43.51761" lon="5.90325">
        <ele>404.5</ele>
        <time>2016-03-20T13:29:12Z</time>
      </trkpt>
      <trkpt lat="43.51752" lon="5.90328">
        <ele>404.7</ele>
        <time>2016-03-20T13:29:17Z</time>
      </trkpt>
      <trkpt lat="43.51744" lon="5.9033">
        <ele>405.3</ele>
        <time>2016-03-20T13:29:25Z</time>
      </trkpt>
      <trkpt lat="43.51735" lon="5.90332">
        <ele>404.7</ele>
        <time>2016-03-20T13:29:32Z</time>
      </trkpt>
      <trkpt lat="43.51727" lon="5.90336">
        <ele>405.1</ele>
        <time>2016-03-20T13:29:42Z</time>
      </trkpt>
      <trkpt lat="43.51718" lon="5.9034">
        <ele>405</ele>
        <time>2016-03-20T13:29:48Z</time>
      </trkpt>
      <trkpt lat="43.5171" lon="5.90341">
        <ele>404.4</ele>
        <time>2016-03-20T13:29:54Z</time>
      </trkpt>
      <trkpt lat="43.51702" lon="5.90344">
        <ele>405.1</ele>
        <time>2016-03-20T13:29:59Z</time>
      </trkpt>
      <trkpt lat="43.51701" lon="5.90346">
        <ele>405</ele>
        <time>2016-03-20T13:30:00Z</time>
      </trkpt>
      <trkpt lat="43.5169" lon="5.9036">
        <ele>404.6</ele>
        <time>2016-03-20T13:30:15Z</time>
      </trkpt>
      <trkpt lat="43.51684" lon="5.9037">
        <ele>404.4</ele>
        <time>2016-03-20T13:30:37Z</time>
      </trkpt>
      <trkpt lat="43.51676" lon="5.90371">
        <ele>401.8</ele>
        <time>2016-03-20T13:37:19Z</time>
      </trkpt>
      <trkpt lat="43.51675" lon="5.90371">
        <ele>401.8</ele>
        <time>2016-03-20T13:37:20Z</time>
      </trkpt>
      <trkpt lat="43.5166" lon="5.90376">
        <ele>401.5</ele>
        <time>2016-03-20T13:37:36Z</time>
      </trkpt>
      <trkpt lat="43.51652" lon="5.90379">
        <ele>401.4</ele>
        <time>2016-03-20T13:37:43Z</time>
      </trkpt>
      <trkpt lat="43.51643" lon="5.90382">
        <ele>401.3</ele>
        <time>2016-03-20T13:37:51Z</time>
      </trkpt>
      <trkpt lat="43.51635" lon="5.90383">
        <ele>401.4</ele>
        <time>2016-03-20T13:37:57Z</time>
      </trkpt>
      <trkpt lat="43.51627" lon="5.90386">
        <ele>401.6</ele>
        <time>2016-03-20T13:38:06Z</time>
      </trkpt>
      <trkpt lat="43.51619" lon="5.90385">
        <ele>400.6</ele>
        <time>2016-03-20T13:38:12Z</time>
      </trkpt>
      <trkpt lat="43.51611" lon="5.90388">
        <ele>399</ele>
        <time>2016-03-20T13:38:20Z</time>
      </trkpt>
      <trkpt lat="43.5161" lon="5.90388">
        <ele>398.5</ele>
        <time>2016-03-20T13:38:21Z</time>
      </trkpt>
      <trkpt lat="43.51596" lon="5.90396">
        <ele>397.7</ele>
        <time>2016-03-20T13:38:34Z</time>
      </trkpt>
      <trkpt lat="43.51588" lon="5.90399">
        <ele>397.2</ele>
        <time>2016-03-20T13:38:41Z</time>
      </trkpt>
      <trkpt lat="43.5158" lon="5.90401">
        <ele>396.3</ele>
        <time>2016-03-20T13:38:48Z</time>
      </trkpt>
      <trkpt lat="43.51572" lon="5.90405">
        <ele>395.6</ele>
        <time>2016-03-20T13:38:55Z</time>
      </trkpt>
      <trkpt lat="43.51564" lon="5.90408">
        <ele>394.6</ele>
        <time>2016-03-20T13:39:02Z</time>
      </trkpt>
      <trkpt lat="43.51556" lon="5.90409">
        <ele>396.3</ele>
        <time>2016-03-20T13:39:11Z</time>
      </trkpt>
      <trkpt lat="43.51547" lon="5.90408">
        <ele>395.1</ele>
        <time>2016-03-20T13:39:17Z</time>
      </trkpt>
      <trkpt lat="43.51539" lon="5.9041">
        <ele>395.6</ele>
        <time>2016-03-20T13:39:24Z</time>
      </trkpt>
      <trkpt lat="43.51538" lon="5.9041">
        <ele>395.5</ele>
        <time>2016-03-20T13:39:25Z</time>
      </trkpt>
      <trkpt lat="43.51523" lon="5.90415">
        <ele>396.9</ele>
        <time>2016-03-20T13:39:39Z</time>
      </trkpt>
      <trkpt lat="43.51514" lon="5.90415">
        <ele>396.3</ele>
        <time>2016-03-20T13:39:48Z</time>
      </trkpt>
      <trkpt lat="43.51505" lon="5.90417">
        <ele>398</ele>
        <time>2016-03-20T13:39:56Z</time>
      </trkpt>
      <trkpt lat="43.51497" lon="5.90419">
        <ele>396.9</ele>
        <time>2016-03-20T13:40:03Z</time>
      </trkpt>
      <trkpt lat="43.51491" lon="5.90424">
        <ele>397.8</ele>
        <time>2016-03-20T13:40:09Z</time>
      </trkpt>
      <trkpt lat="43.51482" lon="5.90426">
        <ele>396.1</ele>
        <time>2016-03-20T13:40:15Z</time>
      </trkpt>
      <trkpt lat="43.51474" lon="5.90428">
        <ele>396.6</ele>
        <time>2016-03-20T13:40:22Z</time>
      </trkpt>
      <trkpt lat="43.51466" lon="5.90434">
        <ele>396.2</ele>
        <time>2016-03-20T13:40:31Z</time>
      </trkpt>
      <trkpt lat="43.51465" lon="5.90434">
        <ele>395.6</ele>
        <time>2016-03-20T13:40:32Z</time>
      </trkpt>
      <trkpt lat="43.51452" lon="5.90444">
        <ele>396.5</ele>
        <time>2016-03-20T13:40:45Z</time>
      </trkpt>
      <trkpt lat="43.51443" lon="5.90449">
        <ele>395.4</ele>
        <time>2016-03-20T13:40:52Z</time>
      </trkpt>
      <trkpt lat="43.51436" lon="5.90452">
        <ele>394.8</ele>
        <time>2016-03-20T13:40:59Z</time>
      </trkpt>
      <trkpt lat="43.51429" lon="5.90459">
        <ele>394.4</ele>
        <time>2016-03-20T13:41:07Z</time>
      </trkpt>
      <trkpt lat="43.51422" lon="5.90465">
        <ele>393.7</ele>
        <time>2016-03-20T13:41:14Z</time>
      </trkpt>
      <trkpt lat="43.51413" lon="5.90468">
        <ele>393.2</ele>
        <time>2016-03-20T13:41:21Z</time>
      </trkpt>
      <trkpt lat="43.51406" lon="5.90471">
        <ele>395</ele>
        <time>2016-03-20T13:41:27Z</time>
      </trkpt>
      <trkpt lat="43.51399" lon="5.90479">
        <ele>393.2</ele>
        <time>2016-03-20T13:41:35Z</time>
      </trkpt>
      <trkpt lat="43.51398" lon="5.9048">
        <ele>393.1</ele>
        <time>2016-03-20T13:41:36Z</time>
      </trkpt>
      <trkpt lat="43.51388" lon="5.90495">
        <ele>393</ele>
        <time>2016-03-20T13:41:48Z</time>
      </trkpt>
      <trkpt lat="43.51383" lon="5.90505">
        <ele>394.3</ele>
        <time>2016-03-20T13:41:57Z</time>
      </trkpt>
      <trkpt lat="43.51377" lon="5.90514">
        <ele>394</ele>
        <time>2016-03-20T13:42:06Z</time>
      </trkpt>
      <trkpt lat="43.51371" lon="5.90522">
        <ele>394.6</ele>
        <time>2016-03-20T13:42:14Z</time>
      </trkpt>
      <trkpt lat="43.51368" lon="5.90534">
        <ele>395.2</ele>
        <time>2016-03-20T13:42:23Z</time>
      </trkpt>
      <trkpt lat="43.51366" lon="5.90544">
        <ele>395.9</ele>
        <time>2016-03-20T13:42:30Z</time>
      </trkpt>
      <trkpt lat="43.51362" lon="5.90554">
        <ele>396.9</ele>
        <time>2016-03-20T13:42:38Z</time>
      </trkpt>
      <trkpt lat="43.51361" lon="5.90555">
        <ele>396.8</ele>
        <time>2016-03-20T13:42:39Z</time>
      </trkpt>
      <trkpt lat="43.51353" lon="5.90573">
        <ele>398.1</ele>
        <time>2016-03-20T13:42:52Z</time>
      </trkpt>
      <trkpt lat="43.51352" lon="5.90584">
        <ele>398.5</ele>
        <time>2016-03-20T13:42:59Z</time>
      </trkpt>
      <trkpt lat="43.51351" lon="5.90595">
        <ele>398.5</ele>
        <time>2016-03-20T13:43:05Z</time>
      </trkpt>
      <trkpt lat="43.51351" lon="5.90606">
        <ele>399.8</ele>
        <time>2016-03-20T13:43:11Z</time>
      </trkpt>
      <trkpt lat="43.5135" lon="5.90618">
        <ele>399.2</ele>
        <time>2016-03-20T13:43:18Z</time>
      </trkpt>
      <trkpt lat="43.51344" lon="5.90627">
        <ele>398.5</ele>
        <time>2016-03-20T13:43:27Z</time>
      </trkpt>
      <trkpt lat="43.51341" lon="5.90638">
        <ele>399.9</ele>
        <time>2016-03-20T13:44:03Z</time>
      </trkpt>
      <trkpt lat="43.5134" lon="5.90639">
        <ele>400</ele>
        <time>2016-03-20T13:44:04Z</time>
      </trkpt>
      <trkpt lat="43.51339" lon="5.90651">
        <ele>398.2</ele>
        <time>2016-03-20T13:48:25Z</time>
      </trkpt>
      <trkpt lat="43.51339" lon="5.90673">
        <ele>398.7</ele>
        <time>2016-03-20T13:48:40Z</time>
      </trkpt>
      <trkpt lat="43.51336" lon="5.90684">
        <ele>399</ele>
        <time>2016-03-20T13:48:48Z</time>
      </trkpt>
      <trkpt lat="43.51331" lon="5.90692">
        <ele>398.8</ele>
        <time>2016-03-20T13:48:56Z</time>
      </trkpt>
      <trkpt lat="43.51326" lon="5.90702">
        <ele>399</ele>
        <time>2016-03-20T13:49:04Z</time>
      </trkpt>
      <trkpt lat="43.5132" lon="5.9071">
        <ele>398.6</ele>
        <time>2016-03-20T13:49:12Z</time>
      </trkpt>
      <trkpt lat="43.51316" lon="5.90719">
        <ele>399.2</ele>
        <time>2016-03-20T13:49:19Z</time>
      </trkpt>
      <trkpt lat="43.5131" lon="5.90728">
        <ele>398.5</ele>
        <time>2016-03-20T13:49:26Z</time>
      </trkpt>
      <trkpt lat="43.51309" lon="5.9073">
        <ele>398.4</ele>
        <time>2016-03-20T13:49:27Z</time>
      </trkpt>
      <trkpt lat="43.51299" lon="5.90745">
        <ele>397.6</ele>
        <time>2016-03-20T13:49:41Z</time>
      </trkpt>
      <trkpt lat="43.51293" lon="5.90753">
        <ele>397.6</ele>
        <time>2016-03-20T13:49:47Z</time>
      </trkpt>
      <trkpt lat="43.51286" lon="5.9076">
        <ele>397.5</ele>
        <time>2016-03-20T13:49:54Z</time>
      </trkpt>
      <trkpt lat="43.51281" lon="5.90769">
        <ele>397</ele>
        <time>2016-03-20T13:49:59Z</time>
      </trkpt>
      <trkpt lat="43.51275" lon="5.90776">
        <ele>395.6</ele>
        <time>2016-03-20T13:50:05Z</time>
      </trkpt>
      <trkpt lat="43.5127" lon="5.90785">
        <ele>395.7</ele>
        <time>2016-03-20T13:50:12Z</time>
      </trkpt>
      <trkpt lat="43.51266" lon="5.90796">
        <ele>394.9</ele>
        <time>2016-03-20T13:50:19Z</time>
      </trkpt>
      <trkpt lat="43.51263" lon="5.90807">
        <ele>394.1</ele>
        <time>2016-03-20T13:50:26Z</time>
      </trkpt>
      <trkpt lat="43.5126" lon="5.90818">
        <ele>393.2</ele>
        <time>2016-03-20T13:50:34Z</time>
      </trkpt>
      <trkpt lat="43.51259" lon="5.9082">
        <ele>392.8</ele>
        <time>2016-03-20T13:50:35Z</time>
      </trkpt>
      <trkpt lat="43.51249" lon="5.90836">
        <ele>391.3</ele>
        <time>2016-03-20T13:50:49Z</time>
      </trkpt>
      <trkpt lat="43.51243" lon="5.90845">
        <ele>390.9</ele>
        <time>2016-03-20T13:50:57Z</time>
      </trkpt>
      <trkpt lat="43.51238" lon="5.90855">
        <ele>389.5</ele>
        <time>2016-03-20T13:51:05Z</time>
      </trkpt>
      <trkpt lat="43.51236" lon="5.90867">
        <ele>387.8</ele>
        <time>2016-03-20T13:51:14Z</time>
      </trkpt>
      <trkpt lat="43.51235" lon="5.90879">
        <ele>385.9</ele>
        <time>2016-03-20T13:51:23Z</time>
      </trkpt>
      <trkpt lat="43.51234" lon="5.90891">
        <ele>383.9</ele>
        <time>2016-03-20T13:51:33Z</time>
      </trkpt>
      <trkpt lat="43.51237" lon="5.90902">
        <ele>382.4</ele>
        <time>2016-03-20T13:51:43Z</time>
      </trkpt>
      <trkpt lat="43.51237" lon="5.90904">
        <ele>382.1</ele>
        <time>2016-03-20T13:51:44Z</time>
      </trkpt>
      <trkpt lat="43.51244" lon="5.90925">
        <ele>379.4</ele>
        <time>2016-03-20T13:52:01Z</time>
      </trkpt>
      <trkpt lat="43.51248" lon="5.90934">
        <ele>378.1</ele>
        <time>2016-03-20T13:52:07Z</time>
      </trkpt>
      <trkpt lat="43.51252" lon="5.90944">
        <ele>377.3</ele>
        <time>2016-03-20T13:52:15Z</time>
      </trkpt>
      <trkpt lat="43.51256" lon="5.90954">
        <ele>375.9</ele>
        <time>2016-03-20T13:52:23Z</time>
      </trkpt>
      <trkpt lat="43.5126" lon="5.90964">
        <ele>374.8</ele>
        <time>2016-03-20T13:52:29Z</time>
      </trkpt>
      <trkpt lat="43.5126" lon="5.90975">
        <ele>373.9</ele>
        <time>2016-03-20T13:52:37Z</time>
      </trkpt>
      <trkpt lat="43.51257" lon="5.90985">
        <ele>372.8</ele>
        <time>2016-03-20T13:52:45Z</time>
      </trkpt>
      <trkpt lat="43.51257" lon="5.90987">
        <ele>372.7</ele>
        <time>2016-03-20T13:52:46Z</time>
      </trkpt>
      <trkpt lat="43.51248" lon="5.91004">
        <ele>370.2</ele>
        <time>2016-03-20T13:53:03Z</time>
      </trkpt>
      <trkpt lat="43.51243" lon="5.91013">
        <ele>368.3</ele>
        <time>2016-03-20T13:53:13Z</time>
      </trkpt>
      <trkpt lat="43.51238" lon="5.91022">
        <ele>366.8</ele>
        <time>2016-03-20T13:53:21Z</time>
      </trkpt>
      <trkpt lat="43.51233" lon="5.91032">
        <ele>365.8</ele>
        <time>2016-03-20T13:53:29Z</time>
      </trkpt>
      <trkpt lat="43.51227" lon="5.9104">
        <ele>363.9</ele>
        <time>2016-03-20T13:53:37Z</time>
      </trkpt>
      <trkpt lat="43.5122" lon="5.91046">
        <ele>362.8</ele>
        <time>2016-03-20T13:53:45Z</time>
      </trkpt>
      <trkpt lat="43.51213" lon="5.91054">
        <ele>362.3</ele>
        <time>2016-03-20T13:53:53Z</time>
      </trkpt>
      <trkpt lat="43.51212" lon="5.91055">
        <ele>361.6</ele>
        <time>2016-03-20T13:53:54Z</time>
      </trkpt>
      <trkpt lat="43.512" lon="5.91069">
        <ele>358.9</ele>
        <time>2016-03-20T13:54:11Z</time>
      </trkpt>
      <trkpt lat="43.51192" lon="5.9107">
        <ele>357</ele>
        <time>2016-03-20T13:54:21Z</time>
      </trkpt>
      <trkpt lat="43.51184" lon="5.91071">
        <ele>354.7</ele>
        <time>2016-03-20T13:54:31Z</time>
      </trkpt>
      <trkpt lat="43.51176" lon="5.91076">
        <ele>354.1</ele>
        <time>2016-03-20T13:54:38Z</time>
      </trkpt>
      <trkpt lat="43.51172" lon="5.91085">
        <ele>353.2</ele>
        <time>2016-03-20T13:54:46Z</time>
      </trkpt>
      <trkpt lat="43.51174" lon="5.91097">
        <ele>353.2</ele>
        <time>2016-03-20T13:54:52Z</time>
      </trkpt>
      <trkpt lat="43.51172" lon="5.91108">
        <ele>351.6</ele>
        <time>2016-03-20T13:54:58Z</time>
      </trkpt>
      <trkpt lat="43.51172" lon="5.9111">
        <ele>351.3</ele>
        <time>2016-03-20T13:54:59Z</time>
      </trkpt>
      <trkpt lat="43.51159" lon="5.91123">
        <ele>349.2</ele>
        <time>2016-03-20T13:55:18Z</time>
      </trkpt>
      <trkpt lat="43.51152" lon="5.91128">
        <ele>348.2</ele>
        <time>2016-03-20T13:55:25Z</time>
      </trkpt>
      <trkpt lat="43.51146" lon="5.91136">
        <ele>348.3</ele>
        <time>2016-03-20T13:55:31Z</time>
      </trkpt>
      <trkpt lat="43.51138" lon="5.91141">
        <ele>347.1</ele>
        <time>2016-03-20T13:55:38Z</time>
      </trkpt>
      <trkpt lat="43.5113" lon="5.91146">
        <ele>346</ele>
        <time>2016-03-20T13:55:46Z</time>
      </trkpt>
      <trkpt lat="43.51123" lon="5.91149">
        <ele>345.1</ele>
        <time>2016-03-20T13:55:53Z</time>
      </trkpt>
      <trkpt lat="43.51115" lon="5.91146">
        <ele>345.1</ele>
        <time>2016-03-20T13:56:00Z</time>
      </trkpt>
      <trkpt lat="43.51114" lon="5.91146">
        <ele>345</ele>
        <time>2016-03-20T13:56:01Z</time>
      </trkpt>
      <trkpt lat="43.51099" lon="5.91143">
        <ele>342.7</ele>
        <time>2016-03-20T13:56:19Z</time>
      </trkpt>
      <trkpt lat="43.51091" lon="5.91143">
        <ele>341.2</ele>
        <time>2016-03-20T13:56:25Z</time>
      </trkpt>
      <trkpt lat="43.51083" lon="5.91143">
        <ele>341.2</ele>
        <time>2016-03-20T13:56:32Z</time>
      </trkpt>
      <trkpt lat="43.51074" lon="5.91145">
        <ele>339.9</ele>
        <time>2016-03-20T13:56:39Z</time>
      </trkpt>
      <trkpt lat="43.51067" lon="5.9115">
        <ele>339.1</ele>
        <time>2016-03-20T13:56:46Z</time>
      </trkpt>
      <trkpt lat="43.51059" lon="5.91154">
        <ele>337.2</ele>
        <time>2016-03-20T13:56:54Z</time>
      </trkpt>
      <trkpt lat="43.51052" lon="5.91162">
        <ele>336.8</ele>
        <time>2016-03-20T13:57:01Z</time>
      </trkpt>
      <trkpt lat="43.51051" lon="5.91162">
        <ele>336.5</ele>
        <time>2016-03-20T13:57:02Z</time>
      </trkpt>
      <trkpt lat="43.5104" lon="5.91177">
        <ele>335.2</ele>
        <time>2016-03-20T13:57:17Z</time>
      </trkpt>
      <trkpt lat="43.51034" lon="5.91185">
        <ele>334.8</ele>
        <time>2016-03-20T13:57:22Z</time>
      </trkpt>
      <trkpt lat="43.5103" lon="5.91196">
        <ele>333.1</ele>
        <time>2016-03-20T13:57:31Z</time>
      </trkpt>
      <trkpt lat="43.51026" lon="5.91207">
        <ele>331.7</ele>
        <time>2016-03-20T13:57:36Z</time>
      </trkpt>
      <trkpt lat="43.51021" lon="5.91216">
        <ele>331.6</ele>
        <time>2016-03-20T13:57:42Z</time>
      </trkpt>
      <trkpt lat="43.51017" lon="5.91226">
        <ele>331</ele>
        <time>2016-03-20T13:57:48Z</time>
      </trkpt>
      <trkpt lat="43.51011" lon="5.91233">
        <ele>329.9</ele>
        <time>2016-03-20T13:57:55Z</time>
      </trkpt>
      <trkpt lat="43.51006" lon="5.91244">
        <ele>328.7</ele>
        <time>2016-03-20T13:58:04Z</time>
      </trkpt>
      <trkpt lat="43.51006" lon="5.91245">
        <ele>328.8</ele>
        <time>2016-03-20T13:58:05Z</time>
      </trkpt>
      <trkpt lat="43.50997" lon="5.91263">
        <ele>327.3</ele>
        <time>2016-03-20T13:58:18Z</time>
      </trkpt>
      <trkpt lat="43.50991" lon="5.91268">
        <ele>325.8</ele>
        <time>2016-03-20T13:58:23Z</time>
      </trkpt>
      <trkpt lat="43.50985" lon="5.91276">
        <ele>325.3</ele>
        <time>2016-03-20T13:58:31Z</time>
      </trkpt>
      <trkpt lat="43.5098" lon="5.91284">
        <ele>324</ele>
        <time>2016-03-20T13:58:37Z</time>
      </trkpt>
      <trkpt lat="43.50973" lon="5.91291">
        <ele>323.3</ele>
        <time>2016-03-20T13:58:45Z</time>
      </trkpt>
      <trkpt lat="43.50965" lon="5.91294">
        <ele>322.2</ele>
        <time>2016-03-20T13:58:54Z</time>
      </trkpt>
      <trkpt lat="43.50959" lon="5.91287">
        <ele>321.8</ele>
        <time>2016-03-20T13:59:02Z</time>
      </trkpt>
      <trkpt lat="43.50953" lon="5.91279">
        <ele>320.9</ele>
        <time>2016-03-20T13:59:09Z</time>
      </trkpt>
      <trkpt lat="43.50952" lon="5.91278">
        <ele>320.6</ele>
        <time>2016-03-20T13:59:10Z</time>
      </trkpt>
      <trkpt lat="43.50945" lon="5.91258">
        <ele>320.2</ele>
        <time>2016-03-20T13:59:30Z</time>
      </trkpt>
      <trkpt lat="43.50937" lon="5.91258">
        <ele>318.9</ele>
        <time>2016-03-20T14:04:56Z</time>
      </trkpt>
      <trkpt lat="43.50936" lon="5.91258">
        <ele>319</ele>
        <time>2016-03-20T14:04:57Z</time>
      </trkpt>
      <trkpt lat="43.50921" lon="5.9126">
        <ele>318.1</ele>
        <time>2016-03-20T14:05:15Z</time>
      </trkpt>
      <trkpt lat="43.50914" lon="5.91253">
        <ele>317.5</ele>
        <time>2016-03-20T14:05:22Z</time>
      </trkpt>
      <trkpt lat="43.50909" lon="5.91244">
        <ele>318.2</ele>
        <time>2016-03-20T14:05:30Z</time>
      </trkpt>
      <trkpt lat="43.50903" lon="5.91235">
        <ele>316.8</ele>
        <time>2016-03-20T14:05:38Z</time>
      </trkpt>
      <trkpt lat="43.50896" lon="5.91228">
        <ele>317.8</ele>
        <time>2016-03-20T14:05:49Z</time>
      </trkpt>
      <trkpt lat="43.50892" lon="5.91218">
        <ele>318.2</ele>
        <time>2016-03-20T14:05:59Z</time>
      </trkpt>
      <trkpt lat="43.50891" lon="5.91217">
        <ele>318.3</ele>
        <time>2016-03-20T14:06:00Z</time>
      </trkpt>
      <trkpt lat="43.5088" lon="5.91201">
        <ele>320.6</ele>
        <time>2016-03-20T14:06:16Z</time>
      </trkpt>
      <trkpt lat="43.50874" lon="5.91192">
        <ele>320.5</ele>
        <time>2016-03-20T14:06:24Z</time>
      </trkpt>
      <trkpt lat="43.50869" lon="5.91184">
        <ele>320.4</ele>
        <time>2016-03-20T14:06:32Z</time>
      </trkpt>
      <trkpt lat="43.50863" lon="5.91176">
        <ele>321.7</ele>
        <time>2016-03-20T14:06:39Z</time>
      </trkpt>
      <trkpt lat="43.50858" lon="5.91167">
        <ele>322.1</ele>
        <time>2016-03-20T14:06:47Z</time>
      </trkpt>
      <trkpt lat="43.50853" lon="5.91159">
        <ele>323.7</ele>
        <time>2016-03-20T14:06:55Z</time>
      </trkpt>
      <trkpt lat="43.50848" lon="5.9115">
        <ele>324</ele>
        <time>2016-03-20T14:07:03Z</time>
      </trkpt>
      <trkpt lat="43.50847" lon="5.91149">
        <ele>324</ele>
        <time>2016-03-20T14:07:04Z</time>
      </trkpt>
      <trkpt lat="43.50835" lon="5.91133">
        <ele>326.2</ele>
        <time>2016-03-20T14:07:19Z</time>
      </trkpt>
      <trkpt lat="43.50829" lon="5.91125">
        <ele>326.9</ele>
        <time>2016-03-20T14:07:27Z</time>
      </trkpt>
      <trkpt lat="43.50824" lon="5.91116">
        <ele>327.2</ele>
        <time>2016-03-20T14:07:35Z</time>
      </trkpt>
      <trkpt lat="43.50818" lon="5.91107">
        <ele>327.7</ele>
        <time>2016-03-20T14:07:44Z</time>
      </trkpt>
      <trkpt lat="43.5081" lon="5.91103">
        <ele>328.2</ele>
        <time>2016-03-20T14:07:53Z</time>
      </trkpt>
      <trkpt lat="43.50802" lon="5.91106">
        <ele>328.1</ele>
        <time>2016-03-20T14:08:00Z</time>
      </trkpt>
      <trkpt lat="43.50794" lon="5.91108">
        <ele>327</ele>
        <time>2016-03-20T14:08:08Z</time>
      </trkpt>
      <trkpt lat="43.50793" lon="5.91108">
        <ele>327.1</ele>
        <time>2016-03-20T14:08:09Z</time>
      </trkpt>
      <trkpt lat="43.50778" lon="5.91117">
        <ele>325</ele>
        <time>2016-03-20T14:08:23Z</time>
      </trkpt>
      <trkpt lat="43.5077" lon="5.91121">
        <ele>324.2</ele>
        <time>2016-03-20T14:08:30Z</time>
      </trkpt>
      <trkpt lat="43.50762" lon="5.91125">
        <ele>324.1</ele>
        <time>2016-03-20T14:08:38Z</time>
      </trkpt>
      <trkpt lat="43.50754" lon="5.9113">
        <ele>323.5</ele>
        <time>2016-03-20T14:08:45Z</time>
      </trkpt>
      <trkpt lat="43.50746" lon="5.91134">
        <ele>323</ele>
        <time>2016-03-20T14:08:52Z</time>
      </trkpt>
      <trkpt lat="43.50737" lon="5.91139">
        <ele>321.5</ele>
        <time>2016-03-20T14:08:59Z</time>
      </trkpt>
      <trkpt lat="43.50729" lon="5.91143">
        <ele>320.3</ele>
        <time>2016-03-20T14:09:06Z</time>
      </trkpt>
      <trkpt lat="43.50723" lon="5.91149">
        <ele>319.8</ele>
        <time>2016-03-20T14:09:13Z</time>
      </trkpt>
      <trkpt lat="43.50722" lon="5.9115">
        <ele>319.7</ele>
        <time>2016-03-20T14:09:14Z</time>
      </trkpt>
      <trkpt lat="43.50709" lon="5.91158">
        <ele>318</ele>
        <time>2016-03-20T14:09:26Z</time>
      </trkpt>
      <trkpt lat="43.50701" lon="5.91162">
        <ele>316.7</ele>
        <time>2016-03-20T14:09:32Z</time>
      </trkpt>
      <trkpt lat="43.50694" lon="5.91168">
        <ele>316.1</ele>
        <time>2016-03-20T14:09:38Z</time>
      </trkpt>
      <trkpt lat="43.50687" lon="5.91172">
        <ele>315.8</ele>
        <time>2016-03-20T14:09:45Z</time>
      </trkpt>
      <trkpt lat="43.5068" lon="5.91178">
        <ele>315.3</ele>
        <time>2016-03-20T14:09:52Z</time>
      </trkpt>
      <trkpt lat="43.50672" lon="5.91184">
        <ele>314</ele>
        <time>2016-03-20T14:09:59Z</time>
      </trkpt>
      <trkpt lat="43.50665" lon="5.9119">
        <ele>313.2</ele>
        <time>2016-03-20T14:10:06Z</time>
      </trkpt>
      <trkpt lat="43.50657" lon="5.91194">
        <ele>312.6</ele>
        <time>2016-03-20T14:10:13Z</time>
      </trkpt>
      <trkpt lat="43.50649" lon="5.912">
        <ele>311.6</ele>
        <time>2016-03-20T14:10:21Z</time>
      </trkpt>
      <trkpt lat="43.50648" lon="5.912">
        <ele>311.7</ele>
        <time>2016-03-20T14:10:22Z</time>
      </trkpt>
      <trkpt lat="43.50634" lon="5.91207">
        <ele>309.8</ele>
        <time>2016-03-20T14:10:35Z</time>
      </trkpt>
      <trkpt lat="43.50626" lon="5.91209">
        <ele>309.9</ele>
        <time>2016-03-20T14:10:42Z</time>
      </trkpt>
      <trkpt lat="43.50617" lon="5.91208">
        <ele>309.4</ele>
        <time>2016-03-20T14:10:50Z</time>
      </trkpt>
      <trkpt lat="43.50609" lon="5.91206">
        <ele>308.8</ele>
        <time>2016-03-20T14:10:56Z</time>
      </trkpt>
      <trkpt lat="43.50601" lon="5.91204">
        <ele>308.5</ele>
        <time>2016-03-20T14:11:03Z</time>
      </trkpt>
      <trkpt lat="43.50593" lon="5.91201">
        <ele>307.3</ele>
        <time>2016-03-20T14:11:11Z</time>
      </trkpt>
      <trkpt lat="43.50584" lon="5.912">
        <ele>306.3</ele>
        <time>2016-03-20T14:11:18Z</time>
      </trkpt>
      <trkpt lat="43.50576" lon="5.91198">
        <ele>304.9</ele>
        <time>2016-03-20T14:11:25Z</time>
      </trkpt>
      <trkpt lat="43.50574" lon="5.91197">
        <ele>304.7</ele>
        <time>2016-03-20T14:11:26Z</time>
      </trkpt>
      <trkpt lat="43.50559" lon="5.91192">
        <ele>302.9</ele>
        <time>2016-03-20T14:11:40Z</time>
      </trkpt>
      <trkpt lat="43.50551" lon="5.91188">
        <ele>302.5</ele>
        <time>2016-03-20T14:11:47Z</time>
      </trkpt>
      <trkpt lat="43.50543" lon="5.91187">
        <ele>301.9</ele>
        <time>2016-03-20T14:11:54Z</time>
      </trkpt>
      <trkpt lat="43.50535" lon="5.91183">
        <ele>301</ele>
        <time>2016-03-20T14:12:00Z</time>
      </trkpt>
      <trkpt lat="43.50528" lon="5.91181">
        <ele>301.4</ele>
        <time>2016-03-20T14:12:06Z</time>
      </trkpt>
      <trkpt lat="43.5052" lon="5.91178">
        <ele>300.2</ele>
        <time>2016-03-20T14:12:13Z</time>
      </trkpt>
      <trkpt lat="43.50511" lon="5.91176">
        <ele>297.4</ele>
        <time>2016-03-20T14:12:20Z</time>
      </trkpt>
      <trkpt lat="43.50504" lon="5.91173">
        <ele>298.1</ele>
        <time>2016-03-20T14:12:28Z</time>
      </trkpt>
      <trkpt lat="43.50503" lon="5.91172">
        <ele>298</ele>
        <time>2016-03-20T14:12:29Z</time>
      </trkpt>
      <trkpt lat="43.50491" lon="5.91161">
        <ele>297.3</ele>
        <time>2016-03-20T14:12:43Z</time>
      </trkpt>
      <trkpt lat="43.50484" lon="5.91154">
        <ele>295.9</ele>
        <time>2016-03-20T14:12:52Z</time>
      </trkpt>
      <trkpt lat="43.50476" lon="5.91147">
        <ele>295.9</ele>
        <time>2016-03-20T14:12:59Z</time>
      </trkpt>
      <trkpt lat="43.5047" lon="5.91141">
        <ele>295.4</ele>
        <time>2016-03-20T14:13:07Z</time>
      </trkpt>
      <trkpt lat="43.50462" lon="5.91139">
        <ele>295.7</ele>
        <time>2016-03-20T14:13:14Z</time>
      </trkpt>
      <trkpt lat="43.50454" lon="5.91142">
        <ele>293.9</ele>
        <time>2016-03-20T14:13:20Z</time>
      </trkpt>
      <trkpt lat="43.50446" lon="5.91148">
        <ele>293.4</ele>
        <time>2016-03-20T14:13:27Z</time>
      </trkpt>
      <trkpt lat="43.5044" lon="5.91155">
        <ele>292.1</ele>
        <time>2016-03-20T14:13:34Z</time>
      </trkpt>
      <trkpt lat="43.50439" lon="5.91156">
        <ele>291.8</ele>
        <time>2016-03-20T14:13:35Z</time>
      </trkpt>
      <trkpt lat="43.50425" lon="5.91164">
        <ele>291.2</ele>
        <time>2016-03-20T14:13:49Z</time>
      </trkpt>
      <trkpt lat="43.50419" lon="5.91156">
        <ele>289.3</ele>
        <time>2016-03-20T14:13:58Z</time>
      </trkpt>
      <trkpt lat="43.50414" lon="5.91147">
        <ele>287.5</ele>
        <time>2016-03-20T14:14:07Z</time>
      </trkpt>
      <trkpt lat="43.50406" lon="5.9114">
        <ele>288.1</ele>
        <time>2016-03-20T14:14:19Z</time>
      </trkpt>
      <trkpt lat="43.50398" lon="5.91138">
        <ele>287.6</ele>
        <time>2016-03-20T14:16:59Z</time>
      </trkpt>
      <trkpt lat="43.50397" lon="5.91137">
        <ele>287.2</ele>
        <time>2016-03-20T14:17:00Z</time>
      </trkpt>
      <trkpt lat="43.50387" lon="5.91121">
        <ele>287</ele>
        <time>2016-03-20T14:17:15Z</time>
      </trkpt>
      <trkpt lat="43.50383" lon="5.91112">
        <ele>286</ele>
        <time>2016-03-20T14:17:22Z</time>
      </trkpt>
      <trkpt lat="43.50378" lon="5.91102">
        <ele>285.4</ele>
        <time>2016-03-20T14:17:29Z</time>
      </trkpt>
      <trkpt lat="43.50373" lon="5.91093">
        <ele>286.3</ele>
        <time>2016-03-20T14:17:36Z</time>
      </trkpt>
      <trkpt lat="43.50368" lon="5.91084">
        <ele>286.4</ele>
        <time>2016-03-20T14:17:43Z</time>
      </trkpt>
      <trkpt lat="43.50363" lon="5.91074">
        <ele>285.7</ele>
        <time>2016-03-20T14:17:50Z</time>
      </trkpt>
      <trkpt lat="43.50359" lon="5.91064">
        <ele>284.4</ele>
        <time>2016-03-20T14:17:57Z</time>
      </trkpt>
      <trkpt lat="43.50354" lon="5.91055">
        <ele>284.2</ele>
        <time>2016-03-20T14:18:03Z</time>
      </trkpt>
      <trkpt lat="43.50354" lon="5.91054">
        <ele>283.8</ele>
        <time>2016-03-20T14:18:04Z</time>
      </trkpt>
      <trkpt lat="43.50344" lon="5.91036">
        <ele>283.2</ele>
        <time>2016-03-20T14:18:18Z</time>
      </trkpt>
      <trkpt lat="43.5034" lon="5.91027">
        <ele>283.1</ele>
        <time>2016-03-20T14:18:25Z</time>
      </trkpt>
      <trkpt lat="43.50335" lon="5.91017">
        <ele>282.9</ele>
        <time>2016-03-20T14:18:32Z</time>
      </trkpt>
      <trkpt lat="43.5033" lon="5.91007">
        <ele>282</ele>
        <time>2016-03-20T14:18:39Z</time>
      </trkpt>
      <trkpt lat="43.50326" lon="5.90997">
        <ele>281.8</ele>
        <time>2016-03-20T14:18:46Z</time>
      </trkpt>
      <trkpt lat="43.50321" lon="5.90989">
        <ele>281.2</ele>
        <time>2016-03-20T14:18:52Z</time>
      </trkpt>
      <trkpt lat="43.50316" lon="5.9098">
        <ele>280.7</ele>
        <time>2016-03-20T14:18:59Z</time>
      </trkpt>
      <trkpt lat="43.50311" lon="5.90971">
        <ele>280.4</ele>
        <time>2016-03-20T14:19:07Z</time>
      </trkpt>
      <trkpt lat="43.50309" lon="5.90969">
        <ele>280.3</ele>
        <time>2016-03-20T14:19:08Z</time>
      </trkpt>
      <trkpt lat="43.50298" lon="5.90954">
        <ele>280.2</ele>
        <time>2016-03-20T14:19:20Z</time>
      </trkpt>
      <trkpt lat="43.50292" lon="5.90946">
        <ele>278.9</ele>
        <time>2016-03-20T14:19:27Z</time>
      </trkpt>
      <trkpt lat="43.50287" lon="5.90936">
        <ele>279.2</ele>
        <time>2016-03-20T14:19:33Z</time>
      </trkpt>
      <trkpt lat="43.50281" lon="5.90928">
        <ele>278.5</ele>
        <time>2016-03-20T14:19:41Z</time>
      </trkpt>
      <trkpt lat="43.50277" lon="5.90919">
        <ele>279</ele>
        <time>2016-03-20T14:19:46Z</time>
      </trkpt>
      <trkpt lat="43.50271" lon="5.9091">
        <ele>279.6</ele>
        <time>2016-03-20T14:19:54Z</time>
      </trkpt>
      <trkpt lat="43.50265" lon="5.90903">
        <ele>279.6</ele>
        <time>2016-03-20T14:20:01Z</time>
      </trkpt>
      <trkpt lat="43.50258" lon="5.90896">
        <ele>279.2</ele>
        <time>2016-03-20T14:20:09Z</time>
      </trkpt>
      <trkpt lat="43.50257" lon="5.90896">
        <ele>279.2</ele>
        <time>2016-03-20T14:20:10Z</time>
      </trkpt>
      <trkpt lat="43.50245" lon="5.9088">
        <ele>278.5</ele>
        <time>2016-03-20T14:20:25Z</time>
      </trkpt>
      <trkpt lat="43.50242" lon="5.90868">
        <ele>278.4</ele>
        <time>2016-03-20T14:20:34Z</time>
      </trkpt>
      <trkpt lat="43.50238" lon="5.90858">
        <ele>278.1</ele>
        <time>2016-03-20T14:20:41Z</time>
      </trkpt>
      <trkpt lat="43.50237" lon="5.90846">
        <ele>278.7</ele>
        <time>2016-03-20T14:20:50Z</time>
      </trkpt>
      <trkpt lat="43.50233" lon="5.90836">
        <ele>278.6</ele>
        <time>2016-03-20T14:20:58Z</time>
      </trkpt>
      <trkpt lat="43.50227" lon="5.90826">
        <ele>279.3</ele>
        <time>2016-03-20T14:21:06Z</time>
      </trkpt>
      <trkpt lat="43.50222" lon="5.90817">
        <ele>280.9</ele>
        <time>2016-03-20T14:21:14Z</time>
      </trkpt>
      <trkpt lat="43.50222" lon="5.90816">
        <ele>281</ele>
        <time>2016-03-20T14:21:15Z</time>
      </trkpt>
      <trkpt lat="43.50214" lon="5.90797">
        <ele>281.5</ele>
        <time>2016-03-20T14:21:29Z</time>
      </trkpt>
      <trkpt lat="43.5021" lon="5.90787">
        <ele>281.2</ele>
        <time>2016-03-20T14:21:37Z</time>
      </trkpt>
      <trkpt lat="43.50206" lon="5.90777">
        <ele>281.5</ele>
        <time>2016-03-20T14:21:44Z</time>
      </trkpt>
      <trkpt lat="43.50203" lon="5.90767">
        <ele>281.6</ele>
        <time>2016-03-20T14:21:51Z</time>
      </trkpt>
      <trkpt lat="43.50197" lon="5.9076">
        <ele>282.4</ele>
        <time>2016-03-20T14:21:58Z</time>
      </trkpt>
      <trkpt lat="43.50193" lon="5.90749">
        <ele>282.2</ele>
        <time>2016-03-20T14:22:06Z</time>
      </trkpt>
      <trkpt lat="43.50191" lon="5.90738">
        <ele>283.4</ele>
        <time>2016-03-20T14:22:13Z</time>
      </trkpt>
      <trkpt lat="43.50187" lon="5.90727">
        <ele>283.8</ele>
        <time>2016-03-20T14:22:20Z</time>
      </trkpt>
      <trkpt lat="43.50187" lon="5.90726">
        <ele>284.4</ele>
        <time>2016-03-20T14:22:21Z</time>
      </trkpt>
      <trkpt lat="43.50192" lon="5.90721">
        <ele>284.4</ele>
        <time>2016-03-20T14:23:59Z</time>
      </trkpt>
      <trkpt lat="43.50193" lon="5.90723">
        <ele>284</ele>
        <time>2016-03-20T14:24:00Z</time>
      </trkpt>
      <trkpt lat="43.50203" lon="5.90739">
        <ele>283.8</ele>
        <time>2016-03-20T14:24:12Z</time>
      </trkpt>
      <trkpt lat="43.50209" lon="5.90747">
        <ele>282.9</ele>
        <time>2016-03-20T14:24:20Z</time>
      </trkpt>
      <trkpt lat="43.50214" lon="5.90754">
        <ele>282.9</ele>
        <time>2016-03-20T14:24:27Z</time>
      </trkpt>
      <trkpt lat="43.50221" lon="5.90761">
        <ele>283.2</ele>
        <time>2016-03-20T14:24:34Z</time>
      </trkpt>
      <trkpt lat="43.50226" lon="5.90769">
        <ele>282.8</ele>
        <time>2016-03-20T14:24:41Z</time>
      </trkpt>
      <trkpt lat="43.50233" lon="5.90775">
        <ele>282.8</ele>
        <time>2016-03-20T14:24:48Z</time>
      </trkpt>
      <trkpt lat="43.50239" lon="5.90784">
        <ele>283.7</ele>
        <time>2016-03-20T14:24:56Z</time>
      </trkpt>
      <trkpt lat="43.50245" lon="5.90791">
        <ele>282.6</ele>
        <time>2016-03-20T14:25:02Z</time>
      </trkpt>
      <trkpt lat="43.50246" lon="5.90792">
        <ele>282.6</ele>
        <time>2016-03-20T14:25:03Z</time>
      </trkpt>
      <trkpt lat="43.50259" lon="5.90804">
        <ele>281.3</ele>
        <time>2016-03-20T14:25:20Z</time>
      </trkpt>
      <trkpt lat="43.50267" lon="5.90808">
        <ele>282.2</ele>
        <time>2016-03-20T14:25:28Z</time>
      </trkpt>
      <trkpt lat="43.50275" lon="5.90811">
        <ele>281.9</ele>
        <time>2016-03-20T14:25:36Z</time>
      </trkpt>
      <trkpt lat="43.50283" lon="5.90816">
        <ele>282.2</ele>
        <time>2016-03-20T14:25:46Z</time>
      </trkpt>
      <trkpt lat="43.50292" lon="5.90816">
        <ele>281.2</ele>
        <time>2016-03-20T14:25:55Z</time>
      </trkpt>
      <trkpt lat="43.50299" lon="5.90817">
        <ele>281.2</ele>
        <time>2016-03-20T14:26:00Z</time>
      </trkpt>
      <trkpt lat="43.50308" lon="5.90821">
        <ele>281.7</ele>
        <time>2016-03-20T14:26:08Z</time>
      </trkpt>
      <trkpt lat="43.50309" lon="5.90821">
        <ele>281.5</ele>
        <time>2016-03-20T14:26:09Z</time>
      </trkpt>
    </trkseg>
  </trk>
</gpx>